<?xml version="1.0" encoding="UTF-8" standalone="no" ?>
<gpx xmlns="http://www.topografix.com/GPX/1/1" xmlns:xsi="http://www.w3.org/2001/XMLSchema-instance" xsi:schemaLocation="http://www.topografix.com/GPX/1/1 http://www.topografix.com/GPX/1/1/gpx.xsd" version="1.1" creator="VisuGPX - https://www.visugpx.com">
  <metadata>
    <name>Pal de fer</name>
    <desc><![CDATA[
]]></desc>
  </metadata>
  <trk>
    <name><![CDATA[Pal de fer_1]]></name>
    <extensions>
      <line xmlns="http://www.topografix.com/GPX/gpx_style/0/2">
        <color>0000FF</color>
        <width>4</width>
      </line>
    </extensions>
    <trkseg>
      <trkpt lat="45.27741" lon="5.85955">
        <ele>349.43600463867</ele>
        <time>2017-10-28T06:29:36Z</time>
      </trkpt>
      <trkpt lat="45.27746" lon="5.85949">
        <ele>351.43600463867</ele>
        <time>2017-10-28T06:29:37Z</time>
      </trkpt>
      <trkpt lat="45.2774" lon="5.85952">
        <ele>343.43600463867</ele>
        <time>2017-10-28T06:29:38Z</time>
      </trkpt>
      <trkpt lat="45.27743" lon="5.85946">
        <ele>334.43600463867</ele>
        <time>2017-10-28T06:29:42Z</time>
      </trkpt>
      <trkpt lat="45.27748" lon="5.85942">
        <ele>339.43600463867</ele>
        <time>2017-10-28T06:29:45Z</time>
      </trkpt>
      <trkpt lat="45.27751" lon="5.85935">
        <ele>335.43600463867</ele>
        <time>2017-10-28T06:29:49Z</time>
      </trkpt>
      <trkpt lat="45.27753" lon="5.85929">
        <ele>333.43600463867</ele>
        <time>2017-10-28T06:29:52Z</time>
      </trkpt>
      <trkpt lat="45.27757" lon="5.85924">
        <ele>333.43600463867</ele>
        <time>2017-10-28T06:29:55Z</time>
      </trkpt>
      <trkpt lat="45.27761" lon="5.85917">
        <ele>336.43600463867</ele>
        <time>2017-10-28T06:29:59Z</time>
      </trkpt>
      <trkpt lat="45.27762" lon="5.8591">
        <ele>336.43600463867</ele>
        <time>2017-10-28T06:30:01Z</time>
      </trkpt>
      <trkpt lat="45.27764" lon="5.85902">
        <ele>335.43600463867</ele>
        <time>2017-10-28T06:30:04Z</time>
      </trkpt>
      <trkpt lat="45.27766" lon="5.85895">
        <ele>336.43600463867</ele>
        <time>2017-10-28T06:30:07Z</time>
      </trkpt>
      <trkpt lat="45.27768" lon="5.85888">
        <ele>337.43600463867</ele>
        <time>2017-10-28T06:30:11Z</time>
      </trkpt>
      <trkpt lat="45.27769" lon="5.8588">
        <ele>338.43600463867</ele>
        <time>2017-10-28T06:30:14Z</time>
      </trkpt>
      <trkpt lat="45.27771" lon="5.85873">
        <ele>339.43600463867</ele>
        <time>2017-10-28T06:30:17Z</time>
      </trkpt>
      <trkpt lat="45.27774" lon="5.85867">
        <ele>339.43600463867</ele>
        <time>2017-10-28T06:30:21Z</time>
      </trkpt>
      <trkpt lat="45.27777" lon="5.85861">
        <ele>341.43600463867</ele>
        <time>2017-10-28T06:30:25Z</time>
      </trkpt>
      <trkpt lat="45.27779" lon="5.85854">
        <ele>341.43600463867</ele>
        <time>2017-10-28T06:30:29Z</time>
      </trkpt>
      <trkpt lat="45.27781" lon="5.85847">
        <ele>340.43600463867</ele>
        <time>2017-10-28T06:30:33Z</time>
      </trkpt>
      <trkpt lat="45.27783" lon="5.8584">
        <ele>341.43600463867</ele>
        <time>2017-10-28T06:30:36Z</time>
      </trkpt>
      <trkpt lat="45.27785" lon="5.85834">
        <ele>343.43600463867</ele>
        <time>2017-10-28T06:30:40Z</time>
      </trkpt>
      <trkpt lat="45.27785" lon="5.85826">
        <ele>347.43600463867</ele>
        <time>2017-10-28T06:30:43Z</time>
      </trkpt>
      <trkpt lat="45.27786" lon="5.8582">
        <ele>346.43600463867</ele>
        <time>2017-10-28T06:30:47Z</time>
      </trkpt>
      <trkpt lat="45.27789" lon="5.85813">
        <ele>346.43600463867</ele>
        <time>2017-10-28T06:30:50Z</time>
      </trkpt>
      <trkpt lat="45.2779" lon="5.85805">
        <ele>345.43600463867</ele>
        <time>2017-10-28T06:30:53Z</time>
      </trkpt>
      <trkpt lat="45.27792" lon="5.85799">
        <ele>348.43600463867</ele>
        <time>2017-10-28T06:30:56Z</time>
      </trkpt>
      <trkpt lat="45.27793" lon="5.85792">
        <ele>349.43600463867</ele>
        <time>2017-10-28T06:30:59Z</time>
      </trkpt>
      <trkpt lat="45.27794" lon="5.85785">
        <ele>348.43600463867</ele>
        <time>2017-10-28T06:31:02Z</time>
      </trkpt>
      <trkpt lat="45.27796" lon="5.85779">
        <ele>345.43600463867</ele>
        <time>2017-10-28T06:31:05Z</time>
      </trkpt>
      <trkpt lat="45.27799" lon="5.85772">
        <ele>345.43600463867</ele>
        <time>2017-10-28T06:31:08Z</time>
      </trkpt>
      <trkpt lat="45.278" lon="5.85765">
        <ele>345.43600463867</ele>
        <time>2017-10-28T06:31:11Z</time>
      </trkpt>
      <trkpt lat="45.27803" lon="5.8576">
        <ele>351.43600463867</ele>
        <time>2017-10-28T06:31:15Z</time>
      </trkpt>
      <trkpt lat="45.27807" lon="5.85757">
        <ele>353.43600463867</ele>
        <time>2017-10-28T06:31:19Z</time>
      </trkpt>
      <trkpt lat="45.27813" lon="5.85752">
        <ele>353.43600463867</ele>
        <time>2017-10-28T06:31:24Z</time>
      </trkpt>
      <trkpt lat="45.27816" lon="5.85747">
        <ele>351.43600463867</ele>
        <time>2017-10-28T06:31:28Z</time>
      </trkpt>
      <trkpt lat="45.27819" lon="5.85739">
        <ele>351.43600463867</ele>
        <time>2017-10-28T06:31:31Z</time>
      </trkpt>
      <trkpt lat="45.27821" lon="5.85732">
        <ele>350.43600463867</ele>
        <time>2017-10-28T06:31:33Z</time>
      </trkpt>
      <trkpt lat="45.27823" lon="5.85726">
        <ele>348.43600463867</ele>
        <time>2017-10-28T06:31:36Z</time>
      </trkpt>
      <trkpt lat="45.27823" lon="5.85714">
        <ele>352.43600463867</ele>
        <time>2017-10-28T06:31:40Z</time>
      </trkpt>
      <trkpt lat="45.27825" lon="5.85706">
        <ele>354.43600463867</ele>
        <time>2017-10-28T06:31:43Z</time>
      </trkpt>
      <trkpt lat="45.2783" lon="5.85704">
        <ele>354.43600463867</ele>
        <time>2017-10-28T06:31:47Z</time>
      </trkpt>
      <trkpt lat="45.27835" lon="5.85706">
        <ele>352.43600463867</ele>
        <time>2017-10-28T06:31:50Z</time>
      </trkpt>
      <trkpt lat="45.2784" lon="5.85702">
        <ele>352.43600463867</ele>
        <time>2017-10-28T06:31:55Z</time>
      </trkpt>
      <trkpt lat="45.2784" lon="5.85695">
        <ele>488.43600463867</ele>
        <time>2017-10-28T06:32:01Z</time>
      </trkpt>
      <trkpt lat="45.27844" lon="5.85691">
        <ele>375.43600463867</ele>
        <time>2017-10-28T06:32:12Z</time>
      </trkpt>
      <trkpt lat="45.27849" lon="5.85688">
        <ele>364.43600463867</ele>
        <time>2017-10-28T06:32:21Z</time>
      </trkpt>
      <trkpt lat="45.27854" lon="5.85687">
        <ele>365.43600463867</ele>
        <time>2017-10-28T06:32:25Z</time>
      </trkpt>
      <trkpt lat="45.27859" lon="5.85687">
        <ele>367.43600463867</ele>
        <time>2017-10-28T06:32:31Z</time>
      </trkpt>
      <trkpt lat="45.27864" lon="5.85688">
        <ele>370.43600463867</ele>
        <time>2017-10-28T06:32:36Z</time>
      </trkpt>
      <trkpt lat="45.27868" lon="5.85686">
        <ele>370.43600463867</ele>
        <time>2017-10-28T06:32:40Z</time>
      </trkpt>
      <trkpt lat="45.27872" lon="5.85682">
        <ele>372.43600463867</ele>
        <time>2017-10-28T06:32:47Z</time>
      </trkpt>
      <trkpt lat="45.27876" lon="5.85679">
        <ele>373.43600463867</ele>
        <time>2017-10-28T06:32:55Z</time>
      </trkpt>
      <trkpt lat="45.27879" lon="5.85673">
        <ele>377.43600463867</ele>
        <time>2017-10-28T06:33:01Z</time>
      </trkpt>
      <trkpt lat="45.27883" lon="5.85671">
        <ele>378.43600463867</ele>
        <time>2017-10-28T06:33:10Z</time>
      </trkpt>
      <trkpt lat="45.27884" lon="5.85663">
        <ele>379.43600463867</ele>
        <time>2017-10-28T06:33:14Z</time>
      </trkpt>
      <trkpt lat="45.27886" lon="5.85657">
        <ele>379.43600463867</ele>
        <time>2017-10-28T06:33:18Z</time>
      </trkpt>
      <trkpt lat="45.27886" lon="5.8565">
        <ele>381.43600463867</ele>
        <time>2017-10-28T06:33:23Z</time>
      </trkpt>
      <trkpt lat="45.27887" lon="5.85642">
        <ele>384.43600463867</ele>
        <time>2017-10-28T06:33:30Z</time>
      </trkpt>
      <trkpt lat="45.27887" lon="5.85634">
        <ele>385.43600463867</ele>
        <time>2017-10-28T06:33:35Z</time>
      </trkpt>
      <trkpt lat="45.2789" lon="5.85628">
        <ele>385.43600463867</ele>
        <time>2017-10-28T06:33:41Z</time>
      </trkpt>
      <trkpt lat="45.27893" lon="5.85622">
        <ele>381.43600463867</ele>
        <time>2017-10-28T06:33:46Z</time>
      </trkpt>
      <trkpt lat="45.27893" lon="5.85616">
        <ele>381.43600463867</ele>
        <time>2017-10-28T06:33:50Z</time>
      </trkpt>
      <trkpt lat="45.27897" lon="5.85611">
        <ele>382.43600463867</ele>
        <time>2017-10-28T06:33:56Z</time>
      </trkpt>
      <trkpt lat="45.279" lon="5.85604">
        <ele>384.43600463867</ele>
        <time>2017-10-28T06:34:02Z</time>
      </trkpt>
      <trkpt lat="45.27902" lon="5.85598">
        <ele>383.43600463867</ele>
        <time>2017-10-28T06:34:07Z</time>
      </trkpt>
      <trkpt lat="45.27903" lon="5.85592">
        <ele>387.43600463867</ele>
        <time>2017-10-28T06:34:14Z</time>
      </trkpt>
      <trkpt lat="45.27906" lon="5.85585">
        <ele>388.43600463867</ele>
        <time>2017-10-28T06:34:20Z</time>
      </trkpt>
      <trkpt lat="45.2791" lon="5.8558">
        <ele>390.43600463867</ele>
        <time>2017-10-28T06:34:27Z</time>
      </trkpt>
      <trkpt lat="45.27912" lon="5.85573">
        <ele>394.43600463867</ele>
        <time>2017-10-28T06:34:32Z</time>
      </trkpt>
      <trkpt lat="45.27915" lon="5.85551">
        <ele>400.43600463867</ele>
        <time>2017-10-28T06:34:47Z</time>
      </trkpt>
      <trkpt lat="45.2792" lon="5.85549">
        <ele>405.43600463867</ele>
        <time>2017-10-28T06:34:54Z</time>
      </trkpt>
      <trkpt lat="45.27924" lon="5.85545">
        <ele>406.43600463867</ele>
        <time>2017-10-28T06:35:00Z</time>
      </trkpt>
      <trkpt lat="45.2793" lon="5.85545">
        <ele>401.43600463867</ele>
        <time>2017-10-28T06:35:04Z</time>
      </trkpt>
      <trkpt lat="45.27933" lon="5.8554">
        <ele>399.43600463867</ele>
        <time>2017-10-28T06:35:08Z</time>
      </trkpt>
      <trkpt lat="45.27936" lon="5.85535">
        <ele>398.43600463867</ele>
        <time>2017-10-28T06:35:13Z</time>
      </trkpt>
      <trkpt lat="45.2794" lon="5.85532">
        <ele>401.43600463867</ele>
        <time>2017-10-28T06:35:20Z</time>
      </trkpt>
      <trkpt lat="45.27943" lon="5.85524">
        <ele>400.43600463867</ele>
        <time>2017-10-28T06:35:24Z</time>
      </trkpt>
      <trkpt lat="45.27945" lon="5.85519">
        <ele>402.43600463867</ele>
        <time>2017-10-28T06:35:29Z</time>
      </trkpt>
      <trkpt lat="45.2795" lon="5.85518">
        <ele>404.43600463867</ele>
        <time>2017-10-28T06:35:33Z</time>
      </trkpt>
      <trkpt lat="45.27952" lon="5.85509">
        <ele>405.43600463867</ele>
        <time>2017-10-28T06:35:37Z</time>
      </trkpt>
      <trkpt lat="45.27956" lon="5.85506">
        <ele>404.43600463867</ele>
        <time>2017-10-28T06:35:41Z</time>
      </trkpt>
      <trkpt lat="45.2796" lon="5.85503">
        <ele>405.43600463867</ele>
        <time>2017-10-28T06:35:44Z</time>
      </trkpt>
      <trkpt lat="45.27965" lon="5.85499">
        <ele>405.43600463867</ele>
        <time>2017-10-28T06:35:49Z</time>
      </trkpt>
      <trkpt lat="45.27969" lon="5.85497">
        <ele>411.43600463867</ele>
        <time>2017-10-28T06:35:58Z</time>
      </trkpt>
      <trkpt lat="45.27973" lon="5.85493">
        <ele>411.43600463867</ele>
        <time>2017-10-28T06:36:01Z</time>
      </trkpt>
      <trkpt lat="45.27979" lon="5.85495">
        <ele>409.43600463867</ele>
        <time>2017-10-28T06:36:05Z</time>
      </trkpt>
      <trkpt lat="45.27983" lon="5.85491">
        <ele>408.43600463867</ele>
        <time>2017-10-28T06:36:09Z</time>
      </trkpt>
      <trkpt lat="45.27987" lon="5.85488">
        <ele>410.43600463867</ele>
        <time>2017-10-28T06:36:14Z</time>
      </trkpt>
      <trkpt lat="45.27991" lon="5.85485">
        <ele>410.43600463867</ele>
        <time>2017-10-28T06:36:18Z</time>
      </trkpt>
      <trkpt lat="45.27996" lon="5.85485">
        <ele>412.43600463867</ele>
        <time>2017-10-28T06:36:25Z</time>
      </trkpt>
      <trkpt lat="45.28" lon="5.85483">
        <ele>414.43600463867</ele>
        <time>2017-10-28T06:36:32Z</time>
      </trkpt>
      <trkpt lat="45.28005" lon="5.85482">
        <ele>413.43600463867</ele>
        <time>2017-10-28T06:36:36Z</time>
      </trkpt>
      <trkpt lat="45.2801" lon="5.85481">
        <ele>414.43600463867</ele>
        <time>2017-10-28T06:36:40Z</time>
      </trkpt>
      <trkpt lat="45.28014" lon="5.85476">
        <ele>413.43600463867</ele>
        <time>2017-10-28T06:36:44Z</time>
      </trkpt>
      <trkpt lat="45.28019" lon="5.85475">
        <ele>416.43600463867</ele>
        <time>2017-10-28T06:36:50Z</time>
      </trkpt>
      <trkpt lat="45.28024" lon="5.85474">
        <ele>418.43600463867</ele>
        <time>2017-10-28T06:36:56Z</time>
      </trkpt>
      <trkpt lat="45.28029" lon="5.85473">
        <ele>421.43600463867</ele>
        <time>2017-10-28T06:37:01Z</time>
      </trkpt>
      <trkpt lat="45.28034" lon="5.85472">
        <ele>420.43600463867</ele>
        <time>2017-10-28T06:37:06Z</time>
      </trkpt>
      <trkpt lat="45.28038" lon="5.8547">
        <ele>422.43600463867</ele>
        <time>2017-10-28T06:37:12Z</time>
      </trkpt>
      <trkpt lat="45.28043" lon="5.8547">
        <ele>420.43600463867</ele>
        <time>2017-10-28T06:37:18Z</time>
      </trkpt>
      <trkpt lat="45.28047" lon="5.85465">
        <ele>415.43600463867</ele>
        <time>2017-10-28T06:37:23Z</time>
      </trkpt>
      <trkpt lat="45.28052" lon="5.85463">
        <ele>420.43600463867</ele>
        <time>2017-10-28T06:37:30Z</time>
      </trkpt>
      <trkpt lat="45.28053" lon="5.85471">
        <ele>422.43600463867</ele>
        <time>2017-10-28T06:37:42Z</time>
      </trkpt>
      <trkpt lat="45.28054" lon="5.85479">
        <ele>426.43600463867</ele>
        <time>2017-10-28T06:37:47Z</time>
      </trkpt>
      <trkpt lat="45.28052" lon="5.85485">
        <ele>427.43600463867</ele>
        <time>2017-10-28T06:37:53Z</time>
      </trkpt>
      <trkpt lat="45.28053" lon="5.85493">
        <ele>431.43600463867</ele>
        <time>2017-10-28T06:38:02Z</time>
      </trkpt>
      <trkpt lat="45.28051" lon="5.85498">
        <ele>434.43600463867</ele>
        <time>2017-10-28T06:38:06Z</time>
      </trkpt>
      <trkpt lat="45.2805" lon="5.85505">
        <ele>441.43600463867</ele>
        <time>2017-10-28T06:38:13Z</time>
      </trkpt>
      <trkpt lat="45.28053" lon="5.85511">
        <ele>443.43600463867</ele>
        <time>2017-10-28T06:38:21Z</time>
      </trkpt>
      <trkpt lat="45.28058" lon="5.85513">
        <ele>443.43600463867</ele>
        <time>2017-10-28T06:38:26Z</time>
      </trkpt>
      <trkpt lat="45.28062" lon="5.8551">
        <ele>443.43600463867</ele>
        <time>2017-10-28T06:38:31Z</time>
      </trkpt>
      <trkpt lat="45.28066" lon="5.85514">
        <ele>447.43600463867</ele>
        <time>2017-10-28T06:38:38Z</time>
      </trkpt>
      <trkpt lat="45.2807" lon="5.85515">
        <ele>446.43600463867</ele>
        <time>2017-10-28T06:38:45Z</time>
      </trkpt>
      <trkpt lat="45.28072" lon="5.85521">
        <ele>444.43600463867</ele>
        <time>2017-10-28T06:38:52Z</time>
      </trkpt>
      <trkpt lat="45.28077" lon="5.85518">
        <ele>452.43600463867</ele>
        <time>2017-10-28T06:39:03Z</time>
      </trkpt>
      <trkpt lat="45.28081" lon="5.85515">
        <ele>455.43600463867</ele>
        <time>2017-10-28T06:39:08Z</time>
      </trkpt>
      <trkpt lat="45.28085" lon="5.85517">
        <ele>458.43600463867</ele>
        <time>2017-10-28T06:39:23Z</time>
      </trkpt>
      <trkpt lat="45.2809" lon="5.85515">
        <ele>467.43600463867</ele>
        <time>2017-10-28T06:39:30Z</time>
      </trkpt>
      <trkpt lat="45.28095" lon="5.85516">
        <ele>470.43600463867</ele>
        <time>2017-10-28T06:39:35Z</time>
      </trkpt>
      <trkpt lat="45.28099" lon="5.85515">
        <ele>471.43701171875</ele>
        <time>2017-10-28T06:39:41Z</time>
      </trkpt>
      <trkpt lat="45.28103" lon="5.85511">
        <ele>475.43701171875</ele>
        <time>2017-10-28T06:39:47Z</time>
      </trkpt>
      <trkpt lat="45.28109" lon="5.85511">
        <ele>482.43701171875</ele>
        <time>2017-10-28T06:39:57Z</time>
      </trkpt>
      <trkpt lat="45.28113" lon="5.85511">
        <ele>483.43701171875</ele>
        <time>2017-10-28T06:40:04Z</time>
      </trkpt>
      <trkpt lat="45.28117" lon="5.85506">
        <ele>486.43701171875</ele>
        <time>2017-10-28T06:40:09Z</time>
      </trkpt>
      <trkpt lat="45.2812" lon="5.85501">
        <ele>492.43701171875</ele>
        <time>2017-10-28T06:40:14Z</time>
      </trkpt>
      <trkpt lat="45.28125" lon="5.85501">
        <ele>492.43701171875</ele>
        <time>2017-10-28T06:40:20Z</time>
      </trkpt>
      <trkpt lat="45.28128" lon="5.85495">
        <ele>493.43701171875</ele>
        <time>2017-10-28T06:40:26Z</time>
      </trkpt>
      <trkpt lat="45.28132" lon="5.85491">
        <ele>497.43701171875</ele>
        <time>2017-10-28T06:40:37Z</time>
      </trkpt>
      <trkpt lat="45.28135" lon="5.85486">
        <ele>504.43701171875</ele>
        <time>2017-10-28T06:40:45Z</time>
      </trkpt>
      <trkpt lat="45.28138" lon="5.85481">
        <ele>508.43701171875</ele>
        <time>2017-10-28T06:40:51Z</time>
      </trkpt>
      <trkpt lat="45.28142" lon="5.85482">
        <ele>508.43701171875</ele>
        <time>2017-10-28T06:40:59Z</time>
      </trkpt>
      <trkpt lat="45.28146" lon="5.8548">
        <ele>506.43701171875</ele>
        <time>2017-10-28T06:41:05Z</time>
      </trkpt>
      <trkpt lat="45.28148" lon="5.85486">
        <ele>508.43701171875</ele>
        <time>2017-10-28T06:41:13Z</time>
      </trkpt>
      <trkpt lat="45.28151" lon="5.85492">
        <ele>508.43701171875</ele>
        <time>2017-10-28T06:41:19Z</time>
      </trkpt>
      <trkpt lat="45.28151" lon="5.85498">
        <ele>509.43701171875</ele>
        <time>2017-10-28T06:41:26Z</time>
      </trkpt>
      <trkpt lat="45.28154" lon="5.85503">
        <ele>513.43701171875</ele>
        <time>2017-10-28T06:42:12Z</time>
      </trkpt>
      <trkpt lat="45.28156" lon="5.85497">
        <ele>514.43701171875</ele>
        <time>2017-10-28T06:42:23Z</time>
      </trkpt>
      <trkpt lat="45.28158" lon="5.8549">
        <ele>516.43701171875</ele>
        <time>2017-10-28T06:42:29Z</time>
      </trkpt>
      <trkpt lat="45.28158" lon="5.85483">
        <ele>517.43701171875</ele>
        <time>2017-10-28T06:42:33Z</time>
      </trkpt>
      <trkpt lat="45.2816" lon="5.85475">
        <ele>511.43701171875</ele>
        <time>2017-10-28T06:42:39Z</time>
      </trkpt>
      <trkpt lat="45.28161" lon="5.85467">
        <ele>512.43701171875</ele>
        <time>2017-10-28T06:42:44Z</time>
      </trkpt>
      <trkpt lat="45.28162" lon="5.85461">
        <ele>511.43701171875</ele>
        <time>2017-10-28T06:42:50Z</time>
      </trkpt>
      <trkpt lat="45.28166" lon="5.85465">
        <ele>507.43701171875</ele>
        <time>2017-10-28T06:43:02Z</time>
      </trkpt>
      <trkpt lat="45.2817" lon="5.8547">
        <ele>509.43701171875</ele>
        <time>2017-10-28T06:43:07Z</time>
      </trkpt>
      <trkpt lat="45.28174" lon="5.85473">
        <ele>510.43701171875</ele>
        <time>2017-10-28T06:43:14Z</time>
      </trkpt>
      <trkpt lat="45.28175" lon="5.85467">
        <ele>512.43701171875</ele>
        <time>2017-10-28T06:43:21Z</time>
      </trkpt>
      <trkpt lat="45.28175" lon="5.8546">
        <ele>511.43701171875</ele>
        <time>2017-10-28T06:43:25Z</time>
      </trkpt>
      <trkpt lat="45.28178" lon="5.85453">
        <ele>513.43701171875</ele>
        <time>2017-10-28T06:43:32Z</time>
      </trkpt>
      <trkpt lat="45.28177" lon="5.85446">
        <ele>513.43701171875</ele>
        <time>2017-10-28T06:43:38Z</time>
      </trkpt>
      <trkpt lat="45.28179" lon="5.85439">
        <ele>515.43701171875</ele>
        <time>2017-10-28T06:43:44Z</time>
      </trkpt>
      <trkpt lat="45.28182" lon="5.85433">
        <ele>515.43701171875</ele>
        <time>2017-10-28T06:43:49Z</time>
      </trkpt>
      <trkpt lat="45.28183" lon="5.85427">
        <ele>515.43701171875</ele>
        <time>2017-10-28T06:43:53Z</time>
      </trkpt>
      <trkpt lat="45.28188" lon="5.85427">
        <ele>517.43701171875</ele>
        <time>2017-10-28T06:44:00Z</time>
      </trkpt>
      <trkpt lat="45.28188" lon="5.85418">
        <ele>520.43701171875</ele>
        <time>2017-10-28T06:44:05Z</time>
      </trkpt>
      <trkpt lat="45.28193" lon="5.85421">
        <ele>520.43701171875</ele>
        <time>2017-10-28T06:44:10Z</time>
      </trkpt>
      <trkpt lat="45.28197" lon="5.85416">
        <ele>522.43701171875</ele>
        <time>2017-10-28T06:44:15Z</time>
      </trkpt>
      <trkpt lat="45.28197" lon="5.85406">
        <ele>522.43701171875</ele>
        <time>2017-10-28T06:44:17Z</time>
      </trkpt>
      <trkpt lat="45.28198" lon="5.85398">
        <ele>524.43701171875</ele>
        <time>2017-10-28T06:44:19Z</time>
      </trkpt>
      <trkpt lat="45.28196" lon="5.8539">
        <ele>528.43701171875</ele>
        <time>2017-10-28T06:44:24Z</time>
      </trkpt>
      <trkpt lat="45.28198" lon="5.85385">
        <ele>529.43701171875</ele>
        <time>2017-10-28T06:44:28Z</time>
      </trkpt>
      <trkpt lat="45.282" lon="5.85378">
        <ele>529.43701171875</ele>
        <time>2017-10-28T06:44:33Z</time>
      </trkpt>
      <trkpt lat="45.28203" lon="5.85371">
        <ele>528.43701171875</ele>
        <time>2017-10-28T06:44:38Z</time>
      </trkpt>
      <trkpt lat="45.28203" lon="5.85364">
        <ele>527.43701171875</ele>
        <time>2017-10-28T06:44:41Z</time>
      </trkpt>
      <trkpt lat="45.28204" lon="5.85357">
        <ele>527.43701171875</ele>
        <time>2017-10-28T06:44:44Z</time>
      </trkpt>
      <trkpt lat="45.28204" lon="5.8535">
        <ele>528.43701171875</ele>
        <time>2017-10-28T06:44:48Z</time>
      </trkpt>
      <trkpt lat="45.28206" lon="5.85343">
        <ele>529.43597412109</ele>
        <time>2017-10-28T06:44:52Z</time>
      </trkpt>
      <trkpt lat="45.28206" lon="5.85336">
        <ele>530.43597412109</ele>
        <time>2017-10-28T06:44:55Z</time>
      </trkpt>
      <trkpt lat="45.28207" lon="5.85328">
        <ele>532.43597412109</ele>
        <time>2017-10-28T06:44:58Z</time>
      </trkpt>
      <trkpt lat="45.28208" lon="5.85321">
        <ele>535.43597412109</ele>
        <time>2017-10-28T06:45:01Z</time>
      </trkpt>
      <trkpt lat="45.28211" lon="5.85313">
        <ele>533.43597412109</ele>
        <time>2017-10-28T06:45:05Z</time>
      </trkpt>
      <trkpt lat="45.28212" lon="5.85307">
        <ele>532.43597412109</ele>
        <time>2017-10-28T06:45:08Z</time>
      </trkpt>
      <trkpt lat="45.28215" lon="5.85301">
        <ele>529.43597412109</ele>
        <time>2017-10-28T06:45:13Z</time>
      </trkpt>
      <trkpt lat="45.28215" lon="5.85295">
        <ele>531.43597412109</ele>
        <time>2017-10-28T06:45:18Z</time>
      </trkpt>
      <trkpt lat="45.28215" lon="5.85288">
        <ele>529.43597412109</ele>
        <time>2017-10-28T06:45:22Z</time>
      </trkpt>
      <trkpt lat="45.28218" lon="5.85282">
        <ele>529.43597412109</ele>
        <time>2017-10-28T06:45:27Z</time>
      </trkpt>
      <trkpt lat="45.28219" lon="5.85275">
        <ele>530.43597412109</ele>
        <time>2017-10-28T06:45:31Z</time>
      </trkpt>
      <trkpt lat="45.2822" lon="5.85269">
        <ele>530.43597412109</ele>
        <time>2017-10-28T06:45:35Z</time>
      </trkpt>
      <trkpt lat="45.28222" lon="5.85261">
        <ele>528.43597412109</ele>
        <time>2017-10-28T06:45:40Z</time>
      </trkpt>
      <trkpt lat="45.28222" lon="5.85254">
        <ele>529.43597412109</ele>
        <time>2017-10-28T06:45:44Z</time>
      </trkpt>
      <trkpt lat="45.28228" lon="5.85251">
        <ele>530.43597412109</ele>
        <time>2017-10-28T06:45:49Z</time>
      </trkpt>
      <trkpt lat="45.28232" lon="5.8525">
        <ele>530.43597412109</ele>
        <time>2017-10-28T06:45:54Z</time>
      </trkpt>
      <trkpt lat="45.28238" lon="5.8525">
        <ele>529.43597412109</ele>
        <time>2017-10-28T06:45:58Z</time>
      </trkpt>
      <trkpt lat="45.2824" lon="5.85242">
        <ele>526.43597412109</ele>
        <time>2017-10-28T06:46:01Z</time>
      </trkpt>
      <trkpt lat="45.2824" lon="5.85234">
        <ele>522.43597412109</ele>
        <time>2017-10-28T06:46:06Z</time>
      </trkpt>
      <trkpt lat="45.28239" lon="5.85226">
        <ele>524.43597412109</ele>
        <time>2017-10-28T06:46:14Z</time>
      </trkpt>
      <trkpt lat="45.28236" lon="5.85221">
        <ele>525.43597412109</ele>
        <time>2017-10-28T06:46:21Z</time>
      </trkpt>
      <trkpt lat="45.28239" lon="5.85226">
        <ele>532.43597412109</ele>
        <time>2017-10-28T06:46:32Z</time>
      </trkpt>
      <trkpt lat="45.28241" lon="5.85219">
        <ele>531.43597412109</ele>
        <time>2017-10-28T06:46:42Z</time>
      </trkpt>
      <trkpt lat="45.2824" lon="5.85213">
        <ele>535.43597412109</ele>
        <time>2017-10-28T06:46:46Z</time>
      </trkpt>
      <trkpt lat="45.28243" lon="5.85207">
        <ele>534.43597412109</ele>
        <time>2017-10-28T06:46:54Z</time>
      </trkpt>
      <trkpt lat="45.28249" lon="5.85206">
        <ele>537.43597412109</ele>
        <time>2017-10-28T06:47:04Z</time>
      </trkpt>
      <trkpt lat="45.28254" lon="5.85205">
        <ele>541.43597412109</ele>
        <time>2017-10-28T06:47:11Z</time>
      </trkpt>
      <trkpt lat="45.28258" lon="5.85207">
        <ele>538.43597412109</ele>
        <time>2017-10-28T06:47:16Z</time>
      </trkpt>
      <trkpt lat="45.28263" lon="5.85209">
        <ele>540.43597412109</ele>
        <time>2017-10-28T06:47:29Z</time>
      </trkpt>
      <trkpt lat="45.28267" lon="5.85212">
        <ele>548.43597412109</ele>
        <time>2017-10-28T06:47:35Z</time>
      </trkpt>
      <trkpt lat="45.28272" lon="5.85209">
        <ele>555.43597412109</ele>
        <time>2017-10-28T06:47:44Z</time>
      </trkpt>
      <trkpt lat="45.28277" lon="5.85208">
        <ele>553.43597412109</ele>
        <time>2017-10-28T06:47:49Z</time>
      </trkpt>
      <trkpt lat="45.28282" lon="5.85206">
        <ele>554.43597412109</ele>
        <time>2017-10-28T06:47:55Z</time>
      </trkpt>
      <trkpt lat="45.28286" lon="5.85211">
        <ele>555.43597412109</ele>
        <time>2017-10-28T06:47:58Z</time>
      </trkpt>
      <trkpt lat="45.28289" lon="5.85205">
        <ele>556.43597412109</ele>
        <time>2017-10-28T06:48:03Z</time>
      </trkpt>
      <trkpt lat="45.28293" lon="5.85203">
        <ele>560.43597412109</ele>
        <time>2017-10-28T06:48:08Z</time>
      </trkpt>
      <trkpt lat="45.28296" lon="5.8521">
        <ele>562.43701171875</ele>
        <time>2017-10-28T06:48:13Z</time>
      </trkpt>
      <trkpt lat="45.28294" lon="5.85217">
        <ele>565.43701171875</ele>
        <time>2017-10-28T06:48:23Z</time>
      </trkpt>
      <trkpt lat="45.28288" lon="5.85218">
        <ele>566.43597412109</ele>
        <time>2017-10-28T06:48:27Z</time>
      </trkpt>
      <trkpt lat="45.28285" lon="5.85222">
        <ele>570.43597412109</ele>
        <time>2017-10-28T06:48:31Z</time>
      </trkpt>
      <trkpt lat="45.28283" lon="5.85229">
        <ele>574.43597412109</ele>
        <time>2017-10-28T06:48:36Z</time>
      </trkpt>
      <trkpt lat="45.28279" lon="5.85232">
        <ele>577.43597412109</ele>
        <time>2017-10-28T06:48:40Z</time>
      </trkpt>
      <trkpt lat="45.28276" lon="5.85238">
        <ele>576.43597412109</ele>
        <time>2017-10-28T06:48:45Z</time>
      </trkpt>
      <trkpt lat="45.28273" lon="5.85243">
        <ele>580.43597412109</ele>
        <time>2017-10-28T06:48:49Z</time>
      </trkpt>
      <trkpt lat="45.28276" lon="5.85248">
        <ele>579.43701171875</ele>
        <time>2017-10-28T06:48:54Z</time>
      </trkpt>
      <trkpt lat="45.28281" lon="5.85254">
        <ele>584.43701171875</ele>
        <time>2017-10-28T06:49:10Z</time>
      </trkpt>
      <trkpt lat="45.28285" lon="5.8525">
        <ele>597.43701171875</ele>
        <time>2017-10-28T06:49:20Z</time>
      </trkpt>
      <trkpt lat="45.28286" lon="5.85243">
        <ele>604.43701171875</ele>
        <time>2017-10-28T06:49:28Z</time>
      </trkpt>
      <trkpt lat="45.28291" lon="5.85247">
        <ele>607.43701171875</ele>
        <time>2017-10-28T06:49:38Z</time>
      </trkpt>
      <trkpt lat="45.28296" lon="5.8525">
        <ele>610.43701171875</ele>
        <time>2017-10-28T06:49:44Z</time>
      </trkpt>
      <trkpt lat="45.283" lon="5.85252">
        <ele>614.43701171875</ele>
        <time>2017-10-28T06:49:56Z</time>
      </trkpt>
      <trkpt lat="45.28304" lon="5.85258">
        <ele>614.43701171875</ele>
        <time>2017-10-28T06:50:05Z</time>
      </trkpt>
      <trkpt lat="45.28306" lon="5.85264">
        <ele>615.43701171875</ele>
        <time>2017-10-28T06:50:09Z</time>
      </trkpt>
      <trkpt lat="45.28309" lon="5.85269">
        <ele>618.43701171875</ele>
        <time>2017-10-28T06:50:12Z</time>
      </trkpt>
      <trkpt lat="45.28311" lon="5.85276">
        <ele>620.43701171875</ele>
        <time>2017-10-28T06:50:18Z</time>
      </trkpt>
      <trkpt lat="45.28315" lon="5.8528">
        <ele>623.43701171875</ele>
        <time>2017-10-28T06:50:35Z</time>
      </trkpt>
      <trkpt lat="45.28313" lon="5.85287">
        <ele>624.43701171875</ele>
        <time>2017-10-28T06:50:40Z</time>
      </trkpt>
      <trkpt lat="45.28309" lon="5.85293">
        <ele>622.43701171875</ele>
        <time>2017-10-28T06:50:45Z</time>
      </trkpt>
      <trkpt lat="45.28305" lon="5.85299">
        <ele>624.43701171875</ele>
        <time>2017-10-28T06:50:49Z</time>
      </trkpt>
      <trkpt lat="45.28303" lon="5.85307">
        <ele>625.43701171875</ele>
        <time>2017-10-28T06:50:53Z</time>
      </trkpt>
      <trkpt lat="45.28302" lon="5.85316">
        <ele>626.43701171875</ele>
        <time>2017-10-28T06:50:57Z</time>
      </trkpt>
      <trkpt lat="45.28299" lon="5.85321">
        <ele>627.43701171875</ele>
        <time>2017-10-28T06:51:02Z</time>
      </trkpt>
      <trkpt lat="45.283" lon="5.85329">
        <ele>628.43701171875</ele>
        <time>2017-10-28T06:51:06Z</time>
      </trkpt>
      <trkpt lat="45.28299" lon="5.85338">
        <ele>631.43701171875</ele>
        <time>2017-10-28T06:51:10Z</time>
      </trkpt>
      <trkpt lat="45.28298" lon="5.85346">
        <ele>551.43701171875</ele>
        <time>2017-10-28T06:51:15Z</time>
      </trkpt>
      <trkpt lat="45.28297" lon="5.85353">
        <ele>586.43701171875</ele>
        <time>2017-10-28T06:51:19Z</time>
      </trkpt>
      <trkpt lat="45.28297" lon="5.85361">
        <ele>605.43701171875</ele>
        <time>2017-10-28T06:51:23Z</time>
      </trkpt>
      <trkpt lat="45.28298" lon="5.85367">
        <ele>621.43701171875</ele>
        <time>2017-10-28T06:51:26Z</time>
      </trkpt>
      <trkpt lat="45.283" lon="5.85374">
        <ele>644.43701171875</ele>
        <time>2017-10-28T06:51:36Z</time>
      </trkpt>
      <trkpt lat="45.28302" lon="5.8538">
        <ele>641.43701171875</ele>
        <time>2017-10-28T06:51:41Z</time>
      </trkpt>
      <trkpt lat="45.28304" lon="5.85388">
        <ele>647.43701171875</ele>
        <time>2017-10-28T06:51:49Z</time>
      </trkpt>
      <trkpt lat="45.28307" lon="5.85396">
        <ele>649.43701171875</ele>
        <time>2017-10-28T06:51:58Z</time>
      </trkpt>
      <trkpt lat="45.28311" lon="5.85397">
        <ele>653.43701171875</ele>
        <time>2017-10-28T06:52:05Z</time>
      </trkpt>
      <trkpt lat="45.28315" lon="5.85394">
        <ele>650.43701171875</ele>
        <time>2017-10-28T06:52:11Z</time>
      </trkpt>
      <trkpt lat="45.28318" lon="5.85389">
        <ele>651.43701171875</ele>
        <time>2017-10-28T06:52:16Z</time>
      </trkpt>
      <trkpt lat="45.2832" lon="5.85382">
        <ele>655.43701171875</ele>
        <time>2017-10-28T06:52:21Z</time>
      </trkpt>
      <trkpt lat="45.28324" lon="5.85377">
        <ele>655.43701171875</ele>
        <time>2017-10-28T06:52:27Z</time>
      </trkpt>
      <trkpt lat="45.28327" lon="5.8537">
        <ele>544.43701171875</ele>
        <time>2017-10-28T06:52:32Z</time>
      </trkpt>
      <trkpt lat="45.28326" lon="5.85363">
        <ele>626.43701171875</ele>
        <time>2017-10-28T06:52:37Z</time>
      </trkpt>
      <trkpt lat="45.2833" lon="5.85359">
        <ele>644.43701171875</ele>
        <time>2017-10-28T06:52:43Z</time>
      </trkpt>
      <trkpt lat="45.28334" lon="5.85355">
        <ele>645.43701171875</ele>
        <time>2017-10-28T06:52:48Z</time>
      </trkpt>
      <trkpt lat="45.28337" lon="5.8535">
        <ele>658.43701171875</ele>
        <time>2017-10-28T06:52:55Z</time>
      </trkpt>
      <trkpt lat="45.28342" lon="5.8535">
        <ele>663.43701171875</ele>
        <time>2017-10-28T06:53:00Z</time>
      </trkpt>
      <trkpt lat="45.28346" lon="5.85346">
        <ele>669.43701171875</ele>
        <time>2017-10-28T06:53:06Z</time>
      </trkpt>
      <trkpt lat="45.28351" lon="5.85345">
        <ele>669.43701171875</ele>
        <time>2017-10-28T06:53:12Z</time>
      </trkpt>
      <trkpt lat="45.28353" lon="5.85339">
        <ele>673.43701171875</ele>
        <time>2017-10-28T06:53:17Z</time>
      </trkpt>
      <trkpt lat="45.28357" lon="5.85334">
        <ele>672.43701171875</ele>
        <time>2017-10-28T06:53:25Z</time>
      </trkpt>
      <trkpt lat="45.28362" lon="5.8533">
        <ele>677.43701171875</ele>
        <time>2017-10-28T06:53:32Z</time>
      </trkpt>
      <trkpt lat="45.28363" lon="5.85323">
        <ele>677.43701171875</ele>
        <time>2017-10-28T06:53:35Z</time>
      </trkpt>
      <trkpt lat="45.28367" lon="5.85328">
        <ele>679.43701171875</ele>
        <time>2017-10-28T06:53:41Z</time>
      </trkpt>
      <trkpt lat="45.2837" lon="5.85334">
        <ele>680.43701171875</ele>
        <time>2017-10-28T06:53:47Z</time>
      </trkpt>
      <trkpt lat="45.2837" lon="5.85341">
        <ele>680.43701171875</ele>
        <time>2017-10-28T06:53:54Z</time>
      </trkpt>
      <trkpt lat="45.28372" lon="5.85347">
        <ele>756.43701171875</ele>
        <time>2017-10-28T06:53:59Z</time>
      </trkpt>
      <trkpt lat="45.28373" lon="5.85355">
        <ele>716.43701171875</ele>
        <time>2017-10-28T06:54:03Z</time>
      </trkpt>
      <trkpt lat="45.28371" lon="5.85361">
        <ele>695.43701171875</ele>
        <time>2017-10-28T06:54:09Z</time>
      </trkpt>
      <trkpt lat="45.28369" lon="5.85369">
        <ele>692.43701171875</ele>
        <time>2017-10-28T06:54:17Z</time>
      </trkpt>
      <trkpt lat="45.28368" lon="5.85377">
        <ele>528.43701171875</ele>
        <time>2017-10-28T06:54:22Z</time>
      </trkpt>
      <trkpt lat="45.28367" lon="5.85383">
        <ele>588.43701171875</ele>
        <time>2017-10-28T06:54:26Z</time>
      </trkpt>
      <trkpt lat="45.28367" lon="5.85392">
        <ele>649.43701171875</ele>
        <time>2017-10-28T06:54:32Z</time>
      </trkpt>
      <trkpt lat="45.28368" lon="5.854">
        <ele>662.43701171875</ele>
        <time>2017-10-28T06:54:37Z</time>
      </trkpt>
      <trkpt lat="45.28369" lon="5.85407">
        <ele>672.43701171875</ele>
        <time>2017-10-28T06:54:41Z</time>
      </trkpt>
      <trkpt lat="45.28371" lon="5.85414">
        <ele>685.43701171875</ele>
        <time>2017-10-28T06:54:46Z</time>
      </trkpt>
      <trkpt lat="45.28371" lon="5.85421">
        <ele>688.43701171875</ele>
        <time>2017-10-28T06:54:53Z</time>
      </trkpt>
      <trkpt lat="45.28371" lon="5.85428">
        <ele>692.43701171875</ele>
        <time>2017-10-28T06:54:58Z</time>
      </trkpt>
      <trkpt lat="45.28373" lon="5.85435">
        <ele>694.43701171875</ele>
        <time>2017-10-28T06:55:03Z</time>
      </trkpt>
      <trkpt lat="45.28373" lon="5.85441">
        <ele>699.43701171875</ele>
        <time>2017-10-28T06:55:08Z</time>
      </trkpt>
      <trkpt lat="45.28374" lon="5.85449">
        <ele>702.43701171875</ele>
        <time>2017-10-28T06:55:12Z</time>
      </trkpt>
      <trkpt lat="45.28373" lon="5.85456">
        <ele>703.43701171875</ele>
        <time>2017-10-28T06:55:17Z</time>
      </trkpt>
      <trkpt lat="45.28371" lon="5.85462">
        <ele>709.43701171875</ele>
        <time>2017-10-28T06:55:22Z</time>
      </trkpt>
      <trkpt lat="45.28368" lon="5.8547">
        <ele>714.43701171875</ele>
        <time>2017-10-28T06:55:27Z</time>
      </trkpt>
      <trkpt lat="45.28366" lon="5.85478">
        <ele>715.43701171875</ele>
        <time>2017-10-28T06:55:33Z</time>
      </trkpt>
      <trkpt lat="45.28366" lon="5.85485">
        <ele>717.43701171875</ele>
        <time>2017-10-28T06:55:38Z</time>
      </trkpt>
      <trkpt lat="45.28363" lon="5.85491">
        <ele>719.43701171875</ele>
        <time>2017-10-28T06:55:42Z</time>
      </trkpt>
      <trkpt lat="45.28363" lon="5.85499">
        <ele>720.43701171875</ele>
        <time>2017-10-28T06:55:48Z</time>
      </trkpt>
      <trkpt lat="45.2836" lon="5.85505">
        <ele>721.43701171875</ele>
        <time>2017-10-28T06:55:52Z</time>
      </trkpt>
      <trkpt lat="45.28359" lon="5.85512">
        <ele>723.43701171875</ele>
        <time>2017-10-28T06:55:57Z</time>
      </trkpt>
      <trkpt lat="45.28359" lon="5.85519">
        <ele>726.43701171875</ele>
        <time>2017-10-28T06:56:01Z</time>
      </trkpt>
      <trkpt lat="45.28358" lon="5.85526">
        <ele>729.43701171875</ele>
        <time>2017-10-28T06:56:08Z</time>
      </trkpt>
      <trkpt lat="45.28357" lon="5.85534">
        <ele>728.43701171875</ele>
        <time>2017-10-28T06:56:13Z</time>
      </trkpt>
      <trkpt lat="45.28357" lon="5.85541">
        <ele>727.43701171875</ele>
        <time>2017-10-28T06:56:18Z</time>
      </trkpt>
      <trkpt lat="45.28356" lon="5.85547">
        <ele>727.43701171875</ele>
        <time>2017-10-28T06:56:23Z</time>
      </trkpt>
      <trkpt lat="45.28353" lon="5.85552">
        <ele>731.43701171875</ele>
        <time>2017-10-28T06:56:27Z</time>
      </trkpt>
      <trkpt lat="45.28351" lon="5.85558">
        <ele>732.43701171875</ele>
        <time>2017-10-28T06:56:33Z</time>
      </trkpt>
      <trkpt lat="45.28353" lon="5.85565">
        <ele>733.43701171875</ele>
        <time>2017-10-28T06:56:36Z</time>
      </trkpt>
      <trkpt lat="45.28353" lon="5.85573">
        <ele>734.43701171875</ele>
        <time>2017-10-28T06:56:40Z</time>
      </trkpt>
      <trkpt lat="45.28351" lon="5.85579">
        <ele>735.43701171875</ele>
        <time>2017-10-28T06:56:47Z</time>
      </trkpt>
      <trkpt lat="45.2835" lon="5.85585">
        <ele>739.43701171875</ele>
        <time>2017-10-28T06:56:51Z</time>
      </trkpt>
      <trkpt lat="45.2835" lon="5.85592">
        <ele>744.43701171875</ele>
        <time>2017-10-28T06:56:56Z</time>
      </trkpt>
      <trkpt lat="45.2835" lon="5.856">
        <ele>744.43701171875</ele>
        <time>2017-10-28T06:57:01Z</time>
      </trkpt>
      <trkpt lat="45.2835" lon="5.85607">
        <ele>745.43701171875</ele>
        <time>2017-10-28T06:57:06Z</time>
      </trkpt>
      <trkpt lat="45.2835" lon="5.85615">
        <ele>747.43701171875</ele>
        <time>2017-10-28T06:57:11Z</time>
      </trkpt>
      <trkpt lat="45.28352" lon="5.85624">
        <ele>749.43701171875</ele>
        <time>2017-10-28T06:57:17Z</time>
      </trkpt>
      <trkpt lat="45.28351" lon="5.85631">
        <ele>749.43701171875</ele>
        <time>2017-10-28T06:57:22Z</time>
      </trkpt>
      <trkpt lat="45.28353" lon="5.85637">
        <ele>747.43701171875</ele>
        <time>2017-10-28T06:57:28Z</time>
      </trkpt>
      <trkpt lat="45.28353" lon="5.85645">
        <ele>748.43701171875</ele>
        <time>2017-10-28T06:57:34Z</time>
      </trkpt>
      <trkpt lat="45.28355" lon="5.85651">
        <ele>749.43701171875</ele>
        <time>2017-10-28T06:57:41Z</time>
      </trkpt>
      <trkpt lat="45.28357" lon="5.85658">
        <ele>750.43701171875</ele>
        <time>2017-10-28T06:57:46Z</time>
      </trkpt>
      <trkpt lat="45.28359" lon="5.85665">
        <ele>751.43701171875</ele>
        <time>2017-10-28T06:58:06Z</time>
      </trkpt>
      <trkpt lat="45.2836" lon="5.85672">
        <ele>752.43701171875</ele>
        <time>2017-10-28T06:58:09Z</time>
      </trkpt>
      <trkpt lat="45.2836" lon="5.85679">
        <ele>755.43701171875</ele>
        <time>2017-10-28T06:58:12Z</time>
      </trkpt>
      <trkpt lat="45.2836" lon="5.85686">
        <ele>754.43701171875</ele>
        <time>2017-10-28T06:58:15Z</time>
      </trkpt>
      <trkpt lat="45.2836" lon="5.85693">
        <ele>757.43701171875</ele>
        <time>2017-10-28T06:58:18Z</time>
      </trkpt>
      <trkpt lat="45.28362" lon="5.85699">
        <ele>759.43701171875</ele>
        <time>2017-10-28T06:58:22Z</time>
      </trkpt>
      <trkpt lat="45.28366" lon="5.85705">
        <ele>757.43701171875</ele>
        <time>2017-10-28T06:58:26Z</time>
      </trkpt>
      <trkpt lat="45.28368" lon="5.85712">
        <ele>759.43701171875</ele>
        <time>2017-10-28T06:58:31Z</time>
      </trkpt>
      <trkpt lat="45.28371" lon="5.85718">
        <ele>758.43701171875</ele>
        <time>2017-10-28T06:58:34Z</time>
      </trkpt>
      <trkpt lat="45.28369" lon="5.85725">
        <ele>764.43701171875</ele>
        <time>2017-10-28T06:58:37Z</time>
      </trkpt>
      <trkpt lat="45.28369" lon="5.85732">
        <ele>762.43701171875</ele>
        <time>2017-10-28T06:58:41Z</time>
      </trkpt>
      <trkpt lat="45.28372" lon="5.85739">
        <ele>765.43701171875</ele>
        <time>2017-10-28T06:58:45Z</time>
      </trkpt>
      <trkpt lat="45.28373" lon="5.85747">
        <ele>767.43701171875</ele>
        <time>2017-10-28T06:58:49Z</time>
      </trkpt>
      <trkpt lat="45.28372" lon="5.85753">
        <ele>773.43701171875</ele>
        <time>2017-10-28T06:58:55Z</time>
      </trkpt>
      <trkpt lat="45.28373" lon="5.8576">
        <ele>772.43701171875</ele>
        <time>2017-10-28T06:58:59Z</time>
      </trkpt>
      <trkpt lat="45.28374" lon="5.85767">
        <ele>774.43701171875</ele>
        <time>2017-10-28T06:59:04Z</time>
      </trkpt>
      <trkpt lat="45.28378" lon="5.85772">
        <ele>777.43701171875</ele>
        <time>2017-10-28T06:59:11Z</time>
      </trkpt>
      <trkpt lat="45.28379" lon="5.85765">
        <ele>780.43701171875</ele>
        <time>2017-10-28T06:59:16Z</time>
      </trkpt>
      <trkpt lat="45.28386" lon="5.85765">
        <ele>780.43701171875</ele>
        <time>2017-10-28T06:59:22Z</time>
      </trkpt>
      <trkpt lat="45.28387" lon="5.85757">
        <ele>781.43701171875</ele>
        <time>2017-10-28T06:59:25Z</time>
      </trkpt>
      <trkpt lat="45.2839" lon="5.85751">
        <ele>783.43701171875</ele>
        <time>2017-10-28T06:59:29Z</time>
      </trkpt>
      <trkpt lat="45.2839" lon="5.85745">
        <ele>785.43701171875</ele>
        <time>2017-10-28T06:59:33Z</time>
      </trkpt>
      <trkpt lat="45.28393" lon="5.85739">
        <ele>785.43701171875</ele>
        <time>2017-10-28T06:59:37Z</time>
      </trkpt>
      <trkpt lat="45.28391" lon="5.85733">
        <ele>784.43701171875</ele>
        <time>2017-10-28T06:59:40Z</time>
      </trkpt>
      <trkpt lat="45.28393" lon="5.85726">
        <ele>785.43701171875</ele>
        <time>2017-10-28T06:59:45Z</time>
      </trkpt>
      <trkpt lat="45.28393" lon="5.85718">
        <ele>785.43701171875</ele>
        <time>2017-10-28T06:59:49Z</time>
      </trkpt>
      <trkpt lat="45.28393" lon="5.85711">
        <ele>785.43701171875</ele>
        <time>2017-10-28T06:59:53Z</time>
      </trkpt>
      <trkpt lat="45.28393" lon="5.85704">
        <ele>785.43701171875</ele>
        <time>2017-10-28T06:59:58Z</time>
      </trkpt>
      <trkpt lat="45.28396" lon="5.85699">
        <ele>788.43701171875</ele>
        <time>2017-10-28T07:00:03Z</time>
      </trkpt>
      <trkpt lat="45.28398" lon="5.85693">
        <ele>788.43701171875</ele>
        <time>2017-10-28T07:00:08Z</time>
      </trkpt>
      <trkpt lat="45.284" lon="5.85686">
        <ele>789.43701171875</ele>
        <time>2017-10-28T07:00:12Z</time>
      </trkpt>
      <trkpt lat="45.284" lon="5.85694">
        <ele>796.43701171875</ele>
        <time>2017-10-28T07:00:30Z</time>
      </trkpt>
      <trkpt lat="45.28399" lon="5.85702">
        <ele>796.43701171875</ele>
        <time>2017-10-28T07:00:37Z</time>
      </trkpt>
      <trkpt lat="45.28399" lon="5.8571">
        <ele>799.43701171875</ele>
        <time>2017-10-28T07:00:40Z</time>
      </trkpt>
      <trkpt lat="45.28399" lon="5.85718">
        <ele>803.43701171875</ele>
        <time>2017-10-28T07:00:44Z</time>
      </trkpt>
      <trkpt lat="45.284" lon="5.85726">
        <ele>802.43701171875</ele>
        <time>2017-10-28T07:00:50Z</time>
      </trkpt>
      <trkpt lat="45.28402" lon="5.85733">
        <ele>805.43701171875</ele>
        <time>2017-10-28T07:00:55Z</time>
      </trkpt>
      <trkpt lat="45.28403" lon="5.8574">
        <ele>804.43701171875</ele>
        <time>2017-10-28T07:00:58Z</time>
      </trkpt>
      <trkpt lat="45.28403" lon="5.85747">
        <ele>802.43701171875</ele>
        <time>2017-10-28T07:01:01Z</time>
      </trkpt>
      <trkpt lat="45.28402" lon="5.85756">
        <ele>801.43701171875</ele>
        <time>2017-10-28T07:01:08Z</time>
      </trkpt>
      <trkpt lat="45.28403" lon="5.85763">
        <ele>801.43701171875</ele>
        <time>2017-10-28T07:01:12Z</time>
      </trkpt>
      <trkpt lat="45.28401" lon="5.85771">
        <ele>801.43701171875</ele>
        <time>2017-10-28T07:01:16Z</time>
      </trkpt>
      <trkpt lat="45.28403" lon="5.85778">
        <ele>801.43701171875</ele>
        <time>2017-10-28T07:01:23Z</time>
      </trkpt>
      <trkpt lat="45.28402" lon="5.85786">
        <ele>802.43798828125</ele>
        <time>2017-10-28T07:01:26Z</time>
      </trkpt>
      <trkpt lat="45.28401" lon="5.85793">
        <ele>803.43798828125</ele>
        <time>2017-10-28T07:01:28Z</time>
      </trkpt>
      <trkpt lat="45.284" lon="5.858">
        <ele>804.43798828125</ele>
        <time>2017-10-28T07:01:32Z</time>
      </trkpt>
      <trkpt lat="45.28397" lon="5.85805">
        <ele>806.43798828125</ele>
        <time>2017-10-28T07:01:34Z</time>
      </trkpt>
      <trkpt lat="45.28398" lon="5.85813">
        <ele>811.43798828125</ele>
        <time>2017-10-28T07:01:41Z</time>
      </trkpt>
      <trkpt lat="45.28396" lon="5.8582">
        <ele>812.43798828125</ele>
        <time>2017-10-28T07:01:46Z</time>
      </trkpt>
      <trkpt lat="45.28393" lon="5.85828">
        <ele>814.43798828125</ele>
        <time>2017-10-28T07:01:52Z</time>
      </trkpt>
      <trkpt lat="45.28394" lon="5.85835">
        <ele>812.43798828125</ele>
        <time>2017-10-28T07:01:55Z</time>
      </trkpt>
      <trkpt lat="45.28393" lon="5.85843">
        <ele>813.43798828125</ele>
        <time>2017-10-28T07:01:59Z</time>
      </trkpt>
      <trkpt lat="45.28393" lon="5.85849">
        <ele>808.43798828125</ele>
        <time>2017-10-28T07:02:07Z</time>
      </trkpt>
      <trkpt lat="45.28392" lon="5.85856">
        <ele>810.43798828125</ele>
        <time>2017-10-28T07:02:10Z</time>
      </trkpt>
      <trkpt lat="45.28388" lon="5.85861">
        <ele>815.43798828125</ele>
        <time>2017-10-28T07:02:19Z</time>
      </trkpt>
      <trkpt lat="45.28385" lon="5.85868">
        <ele>809.43798828125</ele>
        <time>2017-10-28T07:02:22Z</time>
      </trkpt>
      <trkpt lat="45.28385" lon="5.85876">
        <ele>809.43798828125</ele>
        <time>2017-10-28T07:02:27Z</time>
      </trkpt>
      <trkpt lat="45.28383" lon="5.85883">
        <ele>811.43798828125</ele>
        <time>2017-10-28T07:02:31Z</time>
      </trkpt>
      <trkpt lat="45.28381" lon="5.8589">
        <ele>814.43798828125</ele>
        <time>2017-10-28T07:02:35Z</time>
      </trkpt>
      <trkpt lat="45.2838" lon="5.85896">
        <ele>816.43798828125</ele>
        <time>2017-10-28T07:02:40Z</time>
      </trkpt>
      <trkpt lat="45.28381" lon="5.85905">
        <ele>818.43798828125</ele>
        <time>2017-10-28T07:02:46Z</time>
      </trkpt>
      <trkpt lat="45.28381" lon="5.85912">
        <ele>822.43798828125</ele>
        <time>2017-10-28T07:02:50Z</time>
      </trkpt>
      <trkpt lat="45.28382" lon="5.85918">
        <ele>824.43798828125</ele>
        <time>2017-10-28T07:02:55Z</time>
      </trkpt>
      <trkpt lat="45.28382" lon="5.85925">
        <ele>823.43798828125</ele>
        <time>2017-10-28T07:03:00Z</time>
      </trkpt>
      <trkpt lat="45.28383" lon="5.85932">
        <ele>827.43798828125</ele>
        <time>2017-10-28T07:03:05Z</time>
      </trkpt>
      <trkpt lat="45.28386" lon="5.85937">
        <ele>827.43798828125</ele>
        <time>2017-10-28T07:03:10Z</time>
      </trkpt>
      <trkpt lat="45.28388" lon="5.85943">
        <ele>726.43798828125</ele>
        <time>2017-10-28T07:03:16Z</time>
      </trkpt>
      <trkpt lat="45.2839" lon="5.8595">
        <ele>783.43798828125</ele>
        <time>2017-10-28T07:03:21Z</time>
      </trkpt>
      <trkpt lat="45.28393" lon="5.85957">
        <ele>807.43798828125</ele>
        <time>2017-10-28T07:03:26Z</time>
      </trkpt>
      <trkpt lat="45.28397" lon="5.85962">
        <ele>816.43798828125</ele>
        <time>2017-10-28T07:03:31Z</time>
      </trkpt>
      <trkpt lat="45.28399" lon="5.85969">
        <ele>823.43798828125</ele>
        <time>2017-10-28T07:03:37Z</time>
      </trkpt>
      <trkpt lat="45.28401" lon="5.85975">
        <ele>720.43798828125</ele>
        <time>2017-10-28T07:03:42Z</time>
      </trkpt>
      <trkpt lat="45.28406" lon="5.85977">
        <ele>782.43798828125</ele>
        <time>2017-10-28T07:03:48Z</time>
      </trkpt>
      <trkpt lat="45.28405" lon="5.85969">
        <ele>827.43798828125</ele>
        <time>2017-10-28T07:03:56Z</time>
      </trkpt>
      <trkpt lat="45.28404" lon="5.85962">
        <ele>831.43798828125</ele>
        <time>2017-10-28T07:04:02Z</time>
      </trkpt>
      <trkpt lat="45.28407" lon="5.85968">
        <ele>842.43798828125</ele>
        <time>2017-10-28T07:04:13Z</time>
      </trkpt>
      <trkpt lat="45.28411" lon="5.85973">
        <ele>845.43798828125</ele>
        <time>2017-10-28T07:04:19Z</time>
      </trkpt>
      <trkpt lat="45.28415" lon="5.85977">
        <ele>848.43798828125</ele>
        <time>2017-10-28T07:04:25Z</time>
      </trkpt>
      <trkpt lat="45.28419" lon="5.85979">
        <ele>848.43798828125</ele>
        <time>2017-10-28T07:04:31Z</time>
      </trkpt>
      <trkpt lat="45.28423" lon="5.8598">
        <ele>847.43798828125</ele>
        <time>2017-10-28T07:04:39Z</time>
      </trkpt>
      <trkpt lat="45.28424" lon="5.85989">
        <ele>847.43798828125</ele>
        <time>2017-10-28T07:04:44Z</time>
      </trkpt>
      <trkpt lat="45.28423" lon="5.85996">
        <ele>848.43798828125</ele>
        <time>2017-10-28T07:04:47Z</time>
      </trkpt>
      <trkpt lat="45.28426" lon="5.86001">
        <ele>853.43798828125</ele>
        <time>2017-10-28T07:04:52Z</time>
      </trkpt>
      <trkpt lat="45.28427" lon="5.86009">
        <ele>856.43798828125</ele>
        <time>2017-10-28T07:04:55Z</time>
      </trkpt>
      <trkpt lat="45.28429" lon="5.86016">
        <ele>860.43798828125</ele>
        <time>2017-10-28T07:05:00Z</time>
      </trkpt>
      <trkpt lat="45.28428" lon="5.86022">
        <ele>860.43798828125</ele>
        <time>2017-10-28T07:05:03Z</time>
      </trkpt>
      <trkpt lat="45.28429" lon="5.86029">
        <ele>864.43798828125</ele>
        <time>2017-10-28T07:05:08Z</time>
      </trkpt>
      <trkpt lat="45.28429" lon="5.86037">
        <ele>866.43798828125</ele>
        <time>2017-10-28T07:05:11Z</time>
      </trkpt>
      <trkpt lat="45.28429" lon="5.86043">
        <ele>865.43798828125</ele>
        <time>2017-10-28T07:05:16Z</time>
      </trkpt>
      <trkpt lat="45.2843" lon="5.8605">
        <ele>865.43798828125</ele>
        <time>2017-10-28T07:05:21Z</time>
      </trkpt>
      <trkpt lat="45.28431" lon="5.86058">
        <ele>866.43798828125</ele>
        <time>2017-10-28T07:05:26Z</time>
      </trkpt>
      <trkpt lat="45.28434" lon="5.86053">
        <ele>847.43798828125</ele>
        <time>2017-10-28T07:05:33Z</time>
      </trkpt>
      <trkpt lat="45.28433" lon="5.86046">
        <ele>863.43798828125</ele>
        <time>2017-10-28T07:05:38Z</time>
      </trkpt>
      <trkpt lat="45.28434" lon="5.86039">
        <ele>867.43798828125</ele>
        <time>2017-10-28T07:05:43Z</time>
      </trkpt>
      <trkpt lat="45.28439" lon="5.86034">
        <ele>867.43798828125</ele>
        <time>2017-10-28T07:05:49Z</time>
      </trkpt>
      <trkpt lat="45.28438" lon="5.86027">
        <ele>868.43798828125</ele>
        <time>2017-10-28T07:05:54Z</time>
      </trkpt>
      <trkpt lat="45.28439" lon="5.86019">
        <ele>867.43798828125</ele>
        <time>2017-10-28T07:05:59Z</time>
      </trkpt>
      <trkpt lat="45.28438" lon="5.86013">
        <ele>870.43798828125</ele>
        <time>2017-10-28T07:06:03Z</time>
      </trkpt>
      <trkpt lat="45.28437" lon="5.86006">
        <ele>871.43798828125</ele>
        <time>2017-10-28T07:06:09Z</time>
      </trkpt>
      <trkpt lat="45.28436" lon="5.86">
        <ele>873.43798828125</ele>
        <time>2017-10-28T07:06:15Z</time>
      </trkpt>
      <trkpt lat="45.28434" lon="5.85993">
        <ele>874.43798828125</ele>
        <time>2017-10-28T07:06:21Z</time>
      </trkpt>
      <trkpt lat="45.28432" lon="5.85986">
        <ele>876.43798828125</ele>
        <time>2017-10-28T07:06:25Z</time>
      </trkpt>
      <trkpt lat="45.28432" lon="5.85979">
        <ele>876.43798828125</ele>
        <time>2017-10-28T07:06:29Z</time>
      </trkpt>
      <trkpt lat="45.28432" lon="5.85971">
        <ele>877.43798828125</ele>
        <time>2017-10-28T07:06:32Z</time>
      </trkpt>
      <trkpt lat="45.28432" lon="5.85964">
        <ele>880.43798828125</ele>
        <time>2017-10-28T07:06:37Z</time>
      </trkpt>
      <trkpt lat="45.28432" lon="5.85956">
        <ele>880.43798828125</ele>
        <time>2017-10-28T07:06:41Z</time>
      </trkpt>
      <trkpt lat="45.28431" lon="5.85949">
        <ele>876.43798828125</ele>
        <time>2017-10-28T07:06:44Z</time>
      </trkpt>
      <trkpt lat="45.2843" lon="5.85942">
        <ele>875.43798828125</ele>
        <time>2017-10-28T07:06:46Z</time>
      </trkpt>
      <trkpt lat="45.28427" lon="5.85934">
        <ele>875.43798828125</ele>
        <time>2017-10-28T07:06:49Z</time>
      </trkpt>
      <trkpt lat="45.28423" lon="5.85925">
        <ele>875.43798828125</ele>
        <time>2017-10-28T07:06:52Z</time>
      </trkpt>
      <trkpt lat="45.28422" lon="5.85916">
        <ele>876.43798828125</ele>
        <time>2017-10-28T07:06:55Z</time>
      </trkpt>
      <trkpt lat="45.28422" lon="5.85909">
        <ele>877.43798828125</ele>
        <time>2017-10-28T07:06:58Z</time>
      </trkpt>
      <trkpt lat="45.28424" lon="5.85902">
        <ele>877.43798828125</ele>
        <time>2017-10-28T07:07:00Z</time>
      </trkpt>
      <trkpt lat="45.28425" lon="5.85896">
        <ele>879.43798828125</ele>
        <time>2017-10-28T07:07:03Z</time>
      </trkpt>
      <trkpt lat="45.28424" lon="5.85886">
        <ele>880.43798828125</ele>
        <time>2017-10-28T07:07:05Z</time>
      </trkpt>
      <trkpt lat="45.28422" lon="5.85878">
        <ele>880.43798828125</ele>
        <time>2017-10-28T07:07:07Z</time>
      </trkpt>
      <trkpt lat="45.28423" lon="5.85871">
        <ele>880.43798828125</ele>
        <time>2017-10-28T07:07:09Z</time>
      </trkpt>
      <trkpt lat="45.28424" lon="5.85857">
        <ele>881.43798828125</ele>
        <time>2017-10-28T07:07:13Z</time>
      </trkpt>
      <trkpt lat="45.28423" lon="5.85849">
        <ele>880.43798828125</ele>
        <time>2017-10-28T07:07:15Z</time>
      </trkpt>
      <trkpt lat="45.28427" lon="5.8584">
        <ele>879.43798828125</ele>
        <time>2017-10-28T07:07:17Z</time>
      </trkpt>
      <trkpt lat="45.28428" lon="5.85833">
        <ele>879.43798828125</ele>
        <time>2017-10-28T07:07:19Z</time>
      </trkpt>
      <trkpt lat="45.28429" lon="5.85826">
        <ele>879.43798828125</ele>
        <time>2017-10-28T07:07:23Z</time>
      </trkpt>
      <trkpt lat="45.28431" lon="5.85819">
        <ele>876.43798828125</ele>
        <time>2017-10-28T07:07:26Z</time>
      </trkpt>
      <trkpt lat="45.28432" lon="5.85812">
        <ele>876.43798828125</ele>
        <time>2017-10-28T07:07:28Z</time>
      </trkpt>
      <trkpt lat="45.28432" lon="5.85803">
        <ele>876.43798828125</ele>
        <time>2017-10-28T07:07:30Z</time>
      </trkpt>
      <trkpt lat="45.28432" lon="5.85797">
        <ele>876.43798828125</ele>
        <time>2017-10-28T07:07:32Z</time>
      </trkpt>
      <trkpt lat="45.28432" lon="5.85786">
        <ele>875.43798828125</ele>
        <time>2017-10-28T07:07:35Z</time>
      </trkpt>
      <trkpt lat="45.28433" lon="5.85777">
        <ele>876.43798828125</ele>
        <time>2017-10-28T07:07:38Z</time>
      </trkpt>
      <trkpt lat="45.28431" lon="5.85769">
        <ele>878.43798828125</ele>
        <time>2017-10-28T07:07:41Z</time>
      </trkpt>
      <trkpt lat="45.28432" lon="5.85762">
        <ele>880.43798828125</ele>
        <time>2017-10-28T07:07:45Z</time>
      </trkpt>
      <trkpt lat="45.28434" lon="5.85755">
        <ele>880.43798828125</ele>
        <time>2017-10-28T07:07:52Z</time>
      </trkpt>
      <trkpt lat="45.28439" lon="5.85752">
        <ele>881.43798828125</ele>
        <time>2017-10-28T07:07:59Z</time>
      </trkpt>
      <trkpt lat="45.28437" lon="5.85745">
        <ele>884.43798828125</ele>
        <time>2017-10-28T07:08:05Z</time>
      </trkpt>
      <trkpt lat="45.28437" lon="5.85737">
        <ele>892.43798828125</ele>
        <time>2017-10-28T07:08:14Z</time>
      </trkpt>
      <trkpt lat="45.28437" lon="5.8573">
        <ele>893.43701171875</ele>
        <time>2017-10-28T07:08:22Z</time>
      </trkpt>
      <trkpt lat="45.28442" lon="5.85728">
        <ele>894.43798828125</ele>
        <time>2017-10-28T07:08:27Z</time>
      </trkpt>
      <trkpt lat="45.28445" lon="5.85723">
        <ele>893.43798828125</ele>
        <time>2017-10-28T07:08:33Z</time>
      </trkpt>
      <trkpt lat="45.28447" lon="5.85716">
        <ele>893.43798828125</ele>
        <time>2017-10-28T07:08:37Z</time>
      </trkpt>
      <trkpt lat="45.28451" lon="5.85719">
        <ele>893.43798828125</ele>
        <time>2017-10-28T07:08:40Z</time>
      </trkpt>
      <trkpt lat="45.28456" lon="5.85714">
        <ele>898.43798828125</ele>
        <time>2017-10-28T07:08:45Z</time>
      </trkpt>
      <trkpt lat="45.28459" lon="5.85709">
        <ele>899.43798828125</ele>
        <time>2017-10-28T07:08:50Z</time>
      </trkpt>
      <trkpt lat="45.28463" lon="5.85702">
        <ele>897.43798828125</ele>
        <time>2017-10-28T07:08:54Z</time>
      </trkpt>
      <trkpt lat="45.28465" lon="5.85695">
        <ele>896.43798828125</ele>
        <time>2017-10-28T07:08:56Z</time>
      </trkpt>
      <trkpt lat="45.28466" lon="5.85687">
        <ele>896.43798828125</ele>
        <time>2017-10-28T07:08:58Z</time>
      </trkpt>
      <trkpt lat="45.28465" lon="5.8568">
        <ele>897.43701171875</ele>
        <time>2017-10-28T07:08:59Z</time>
      </trkpt>
      <trkpt lat="45.28465" lon="5.85672">
        <ele>899.43701171875</ele>
        <time>2017-10-28T07:09:02Z</time>
      </trkpt>
      <trkpt lat="45.28464" lon="5.85665">
        <ele>900.43701171875</ele>
        <time>2017-10-28T07:09:04Z</time>
      </trkpt>
      <trkpt lat="45.28464" lon="5.85656">
        <ele>899.43701171875</ele>
        <time>2017-10-28T07:09:06Z</time>
      </trkpt>
      <trkpt lat="45.28464" lon="5.85649">
        <ele>899.43701171875</ele>
        <time>2017-10-28T07:09:09Z</time>
      </trkpt>
      <trkpt lat="45.28468" lon="5.85642">
        <ele>900.43701171875</ele>
        <time>2017-10-28T07:09:12Z</time>
      </trkpt>
      <trkpt lat="45.28473" lon="5.85637">
        <ele>899.43701171875</ele>
        <time>2017-10-28T07:09:14Z</time>
      </trkpt>
      <trkpt lat="45.28476" lon="5.8563">
        <ele>899.43701171875</ele>
        <time>2017-10-28T07:09:16Z</time>
      </trkpt>
      <trkpt lat="45.28478" lon="5.85623">
        <ele>899.43701171875</ele>
        <time>2017-10-28T07:09:18Z</time>
      </trkpt>
      <trkpt lat="45.28483" lon="5.85618">
        <ele>899.43701171875</ele>
        <time>2017-10-28T07:09:20Z</time>
      </trkpt>
      <trkpt lat="45.28487" lon="5.85614">
        <ele>898.43701171875</ele>
        <time>2017-10-28T07:09:22Z</time>
      </trkpt>
      <trkpt lat="45.28492" lon="5.85609">
        <ele>895.43701171875</ele>
        <time>2017-10-28T07:09:25Z</time>
      </trkpt>
      <trkpt lat="45.28496" lon="5.85603">
        <ele>896.43701171875</ele>
        <time>2017-10-28T07:09:27Z</time>
      </trkpt>
      <trkpt lat="45.28496" lon="5.85595">
        <ele>897.43701171875</ele>
        <time>2017-10-28T07:09:29Z</time>
      </trkpt>
      <trkpt lat="45.28498" lon="5.85589">
        <ele>899.43701171875</ele>
        <time>2017-10-28T07:09:32Z</time>
      </trkpt>
      <trkpt lat="45.28503" lon="5.85586">
        <ele>901.43701171875</ele>
        <time>2017-10-28T07:09:35Z</time>
      </trkpt>
      <trkpt lat="45.28506" lon="5.85583">
        <ele>901.43701171875</ele>
        <time>2017-10-28T07:09:39Z</time>
      </trkpt>
      <trkpt lat="45.28512" lon="5.85576">
        <ele>902.43701171875</ele>
        <time>2017-10-28T07:09:42Z</time>
      </trkpt>
      <trkpt lat="45.28514" lon="5.85568">
        <ele>902.43701171875</ele>
        <time>2017-10-28T07:09:44Z</time>
      </trkpt>
      <trkpt lat="45.28517" lon="5.85559">
        <ele>901.43701171875</ele>
        <time>2017-10-28T07:09:47Z</time>
      </trkpt>
      <trkpt lat="45.28523" lon="5.85558">
        <ele>899.43701171875</ele>
        <time>2017-10-28T07:09:49Z</time>
      </trkpt>
      <trkpt lat="45.28525" lon="5.85549">
        <ele>903.43701171875</ele>
        <time>2017-10-28T07:09:51Z</time>
      </trkpt>
      <trkpt lat="45.28528" lon="5.85542">
        <ele>902.43701171875</ele>
        <time>2017-10-28T07:09:53Z</time>
      </trkpt>
      <trkpt lat="45.2853" lon="5.85535">
        <ele>898.43701171875</ele>
        <time>2017-10-28T07:09:55Z</time>
      </trkpt>
      <trkpt lat="45.28533" lon="5.85528">
        <ele>898.43701171875</ele>
        <time>2017-10-28T07:09:57Z</time>
      </trkpt>
      <trkpt lat="45.28534" lon="5.8552">
        <ele>899.43701171875</ele>
        <time>2017-10-28T07:10:00Z</time>
      </trkpt>
      <trkpt lat="45.28534" lon="5.85512">
        <ele>900.43701171875</ele>
        <time>2017-10-28T07:10:03Z</time>
      </trkpt>
      <trkpt lat="45.28534" lon="5.85505">
        <ele>901.43701171875</ele>
        <time>2017-10-28T07:10:06Z</time>
      </trkpt>
      <trkpt lat="45.28537" lon="5.85497">
        <ele>901.43701171875</ele>
        <time>2017-10-28T07:10:10Z</time>
      </trkpt>
      <trkpt lat="45.2854" lon="5.85491">
        <ele>898.43701171875</ele>
        <time>2017-10-28T07:10:14Z</time>
      </trkpt>
      <trkpt lat="45.28542" lon="5.85485">
        <ele>901.43701171875</ele>
        <time>2017-10-28T07:10:18Z</time>
      </trkpt>
      <trkpt lat="45.28546" lon="5.8548">
        <ele>902.43701171875</ele>
        <time>2017-10-28T07:10:23Z</time>
      </trkpt>
      <trkpt lat="45.28549" lon="5.85473">
        <ele>904.43701171875</ele>
        <time>2017-10-28T07:10:28Z</time>
      </trkpt>
      <trkpt lat="45.28551" lon="5.85466">
        <ele>904.43701171875</ele>
        <time>2017-10-28T07:10:31Z</time>
      </trkpt>
      <trkpt lat="45.28553" lon="5.85458">
        <ele>904.43701171875</ele>
        <time>2017-10-28T07:10:35Z</time>
      </trkpt>
      <trkpt lat="45.28556" lon="5.85452">
        <ele>905.43701171875</ele>
        <time>2017-10-28T07:10:39Z</time>
      </trkpt>
      <trkpt lat="45.28559" lon="5.85447">
        <ele>906.43701171875</ele>
        <time>2017-10-28T07:10:43Z</time>
      </trkpt>
      <trkpt lat="45.28561" lon="5.85441">
        <ele>907.43701171875</ele>
        <time>2017-10-28T07:10:46Z</time>
      </trkpt>
      <trkpt lat="45.28564" lon="5.85436">
        <ele>909.43701171875</ele>
        <time>2017-10-28T07:10:50Z</time>
      </trkpt>
      <trkpt lat="45.28567" lon="5.8543">
        <ele>907.43701171875</ele>
        <time>2017-10-28T07:10:54Z</time>
      </trkpt>
      <trkpt lat="45.2857" lon="5.85425">
        <ele>906.43701171875</ele>
        <time>2017-10-28T07:10:57Z</time>
      </trkpt>
      <trkpt lat="45.28571" lon="5.85418">
        <ele>905.43701171875</ele>
        <time>2017-10-28T07:11:00Z</time>
      </trkpt>
      <trkpt lat="45.28575" lon="5.85411">
        <ele>906.43701171875</ele>
        <time>2017-10-28T07:11:03Z</time>
      </trkpt>
      <trkpt lat="45.28578" lon="5.85405">
        <ele>906.43701171875</ele>
        <time>2017-10-28T07:11:06Z</time>
      </trkpt>
      <trkpt lat="45.28584" lon="5.85401">
        <ele>907.43701171875</ele>
        <time>2017-10-28T07:11:09Z</time>
      </trkpt>
      <trkpt lat="45.28588" lon="5.85394">
        <ele>909.43701171875</ele>
        <time>2017-10-28T07:11:11Z</time>
      </trkpt>
      <trkpt lat="45.28594" lon="5.85393">
        <ele>909.43701171875</ele>
        <time>2017-10-28T07:11:14Z</time>
      </trkpt>
      <trkpt lat="45.286" lon="5.85395">
        <ele>907.43701171875</ele>
        <time>2017-10-28T07:11:17Z</time>
      </trkpt>
      <trkpt lat="45.28606" lon="5.85388">
        <ele>908.43701171875</ele>
        <time>2017-10-28T07:11:19Z</time>
      </trkpt>
      <trkpt lat="45.2861" lon="5.85381">
        <ele>908.43701171875</ele>
        <time>2017-10-28T07:11:21Z</time>
      </trkpt>
      <trkpt lat="45.28616" lon="5.85379">
        <ele>910.43701171875</ele>
        <time>2017-10-28T07:11:24Z</time>
      </trkpt>
      <trkpt lat="45.28619" lon="5.85384">
        <ele>907.43701171875</ele>
        <time>2017-10-28T07:11:26Z</time>
      </trkpt>
      <trkpt lat="45.28622" lon="5.85378">
        <ele>909.43701171875</ele>
        <time>2017-10-28T07:11:28Z</time>
      </trkpt>
      <trkpt lat="45.28626" lon="5.85377">
        <ele>908.43701171875</ele>
        <time>2017-10-28T07:11:32Z</time>
      </trkpt>
      <trkpt lat="45.28632" lon="5.85378">
        <ele>908.43701171875</ele>
        <time>2017-10-28T07:11:35Z</time>
      </trkpt>
      <trkpt lat="45.28636" lon="5.85373">
        <ele>911.43701171875</ele>
        <time>2017-10-28T07:11:38Z</time>
      </trkpt>
      <trkpt lat="45.2864" lon="5.85374">
        <ele>913.43701171875</ele>
        <time>2017-10-28T07:11:41Z</time>
      </trkpt>
      <trkpt lat="45.28646" lon="5.85376">
        <ele>912.43701171875</ele>
        <time>2017-10-28T07:11:45Z</time>
      </trkpt>
      <trkpt lat="45.2865" lon="5.85375">
        <ele>913.43701171875</ele>
        <time>2017-10-28T07:11:56Z</time>
      </trkpt>
      <trkpt lat="45.28656" lon="5.85377">
        <ele>913.43701171875</ele>
        <time>2017-10-28T07:12:01Z</time>
      </trkpt>
      <trkpt lat="45.2866" lon="5.85381">
        <ele>909.43701171875</ele>
        <time>2017-10-28T07:12:03Z</time>
      </trkpt>
      <trkpt lat="45.28666" lon="5.85384">
        <ele>908.43798828125</ele>
        <time>2017-10-28T07:12:08Z</time>
      </trkpt>
      <trkpt lat="45.28671" lon="5.85384">
        <ele>908.43798828125</ele>
        <time>2017-10-28T07:12:10Z</time>
      </trkpt>
      <trkpt lat="45.28678" lon="5.85386">
        <ele>908.43798828125</ele>
        <time>2017-10-28T07:12:12Z</time>
      </trkpt>
      <trkpt lat="45.28686" lon="5.85387">
        <ele>908.43798828125</ele>
        <time>2017-10-28T07:12:14Z</time>
      </trkpt>
      <trkpt lat="45.28693" lon="5.85387">
        <ele>908.43798828125</ele>
        <time>2017-10-28T07:12:16Z</time>
      </trkpt>
      <trkpt lat="45.28703" lon="5.85386">
        <ele>909.43798828125</ele>
        <time>2017-10-28T07:12:19Z</time>
      </trkpt>
      <trkpt lat="45.28707" lon="5.85382">
        <ele>911.43798828125</ele>
        <time>2017-10-28T07:12:25Z</time>
      </trkpt>
      <trkpt lat="45.28712" lon="5.85384">
        <ele>911.43798828125</ele>
        <time>2017-10-28T07:12:28Z</time>
      </trkpt>
      <trkpt lat="45.28719" lon="5.85387">
        <ele>912.43798828125</ele>
        <time>2017-10-28T07:12:31Z</time>
      </trkpt>
      <trkpt lat="45.28724" lon="5.85387">
        <ele>912.43798828125</ele>
        <time>2017-10-28T07:12:33Z</time>
      </trkpt>
      <trkpt lat="45.2873" lon="5.85385">
        <ele>914.43798828125</ele>
        <time>2017-10-28T07:12:35Z</time>
      </trkpt>
      <trkpt lat="45.28737" lon="5.8539">
        <ele>913.43798828125</ele>
        <time>2017-10-28T07:12:37Z</time>
      </trkpt>
      <trkpt lat="45.28742" lon="5.85388">
        <ele>913.43798828125</ele>
        <time>2017-10-28T07:12:39Z</time>
      </trkpt>
      <trkpt lat="45.28748" lon="5.85391">
        <ele>911.43798828125</ele>
        <time>2017-10-28T07:12:41Z</time>
      </trkpt>
      <trkpt lat="45.28756" lon="5.85393">
        <ele>909.43798828125</ele>
        <time>2017-10-28T07:12:43Z</time>
      </trkpt>
      <trkpt lat="45.28763" lon="5.85392">
        <ele>912.43798828125</ele>
        <time>2017-10-28T07:12:45Z</time>
      </trkpt>
      <trkpt lat="45.28769" lon="5.85393">
        <ele>910.43798828125</ele>
        <time>2017-10-28T07:12:48Z</time>
      </trkpt>
      <trkpt lat="45.28774" lon="5.85394">
        <ele>908.43798828125</ele>
        <time>2017-10-28T07:12:51Z</time>
      </trkpt>
      <trkpt lat="45.2878" lon="5.85396">
        <ele>907.43798828125</ele>
        <time>2017-10-28T07:12:53Z</time>
      </trkpt>
      <trkpt lat="45.28787" lon="5.85392">
        <ele>907.43798828125</ele>
        <time>2017-10-28T07:12:56Z</time>
      </trkpt>
      <trkpt lat="45.28791" lon="5.85398">
        <ele>905.43798828125</ele>
        <time>2017-10-28T07:12:58Z</time>
      </trkpt>
      <trkpt lat="45.28796" lon="5.85399">
        <ele>906.43798828125</ele>
        <time>2017-10-28T07:13:00Z</time>
      </trkpt>
      <trkpt lat="45.28801" lon="5.85398">
        <ele>909.43798828125</ele>
        <time>2017-10-28T07:13:03Z</time>
      </trkpt>
      <trkpt lat="45.28806" lon="5.85397">
        <ele>907.43798828125</ele>
        <time>2017-10-28T07:13:06Z</time>
      </trkpt>
      <trkpt lat="45.28811" lon="5.854">
        <ele>907.43798828125</ele>
        <time>2017-10-28T07:13:08Z</time>
      </trkpt>
      <trkpt lat="45.28816" lon="5.85402">
        <ele>878.43798828125</ele>
        <time>2017-10-28T07:13:13Z</time>
      </trkpt>
      <trkpt lat="45.28821" lon="5.85403">
        <ele>888.43798828125</ele>
        <time>2017-10-28T07:13:17Z</time>
      </trkpt>
      <trkpt lat="45.28826" lon="5.85404">
        <ele>902.43798828125</ele>
        <time>2017-10-28T07:13:23Z</time>
      </trkpt>
      <trkpt lat="45.28831" lon="5.85402">
        <ele>904.43798828125</ele>
        <time>2017-10-28T07:13:26Z</time>
      </trkpt>
      <trkpt lat="45.28836" lon="5.854">
        <ele>906.43798828125</ele>
        <time>2017-10-28T07:13:29Z</time>
      </trkpt>
      <trkpt lat="45.28839" lon="5.85395">
        <ele>909.43798828125</ele>
        <time>2017-10-28T07:13:32Z</time>
      </trkpt>
      <trkpt lat="45.28843" lon="5.85392">
        <ele>913.43798828125</ele>
        <time>2017-10-28T07:13:35Z</time>
      </trkpt>
      <trkpt lat="45.28847" lon="5.85386">
        <ele>916.43798828125</ele>
        <time>2017-10-28T07:13:38Z</time>
      </trkpt>
      <trkpt lat="45.28849" lon="5.8538">
        <ele>920.43798828125</ele>
        <time>2017-10-28T07:13:44Z</time>
      </trkpt>
      <trkpt lat="45.28849" lon="5.85372">
        <ele>922.43798828125</ele>
        <time>2017-10-28T07:13:50Z</time>
      </trkpt>
      <trkpt lat="45.28848" lon="5.85365">
        <ele>924.43798828125</ele>
        <time>2017-10-28T07:13:54Z</time>
      </trkpt>
      <trkpt lat="45.28847" lon="5.85358">
        <ele>925.43798828125</ele>
        <time>2017-10-28T07:13:58Z</time>
      </trkpt>
      <trkpt lat="45.28848" lon="5.85351">
        <ele>927.43798828125</ele>
        <time>2017-10-28T07:14:04Z</time>
      </trkpt>
      <trkpt lat="45.28853" lon="5.85349">
        <ele>926.43798828125</ele>
        <time>2017-10-28T07:14:08Z</time>
      </trkpt>
      <trkpt lat="45.28858" lon="5.85347">
        <ele>926.43798828125</ele>
        <time>2017-10-28T07:14:14Z</time>
      </trkpt>
      <trkpt lat="45.28863" lon="5.85349">
        <ele>927.43798828125</ele>
        <time>2017-10-28T07:14:21Z</time>
      </trkpt>
      <trkpt lat="45.28867" lon="5.85349">
        <ele>930.43798828125</ele>
        <time>2017-10-28T07:14:33Z</time>
      </trkpt>
      <trkpt lat="45.28871" lon="5.85353">
        <ele>930.43798828125</ele>
        <time>2017-10-28T07:14:36Z</time>
      </trkpt>
      <trkpt lat="45.28876" lon="5.85356">
        <ele>930.43798828125</ele>
        <time>2017-10-28T07:14:43Z</time>
      </trkpt>
      <trkpt lat="45.28882" lon="5.85358">
        <ele>932.43798828125</ele>
        <time>2017-10-28T07:14:47Z</time>
      </trkpt>
      <trkpt lat="45.28887" lon="5.85357">
        <ele>932.43798828125</ele>
        <time>2017-10-28T07:14:49Z</time>
      </trkpt>
      <trkpt lat="45.28895" lon="5.85361">
        <ele>935.43798828125</ele>
        <time>2017-10-28T07:14:53Z</time>
      </trkpt>
      <trkpt lat="45.289" lon="5.85362">
        <ele>935.43798828125</ele>
        <time>2017-10-28T07:14:55Z</time>
      </trkpt>
      <trkpt lat="45.28905" lon="5.8536">
        <ele>938.43798828125</ele>
        <time>2017-10-28T07:15:02Z</time>
      </trkpt>
      <trkpt lat="45.28911" lon="5.8536">
        <ele>938.43798828125</ele>
        <time>2017-10-28T07:15:07Z</time>
      </trkpt>
      <trkpt lat="45.28915" lon="5.85359">
        <ele>941.43798828125</ele>
        <time>2017-10-28T07:15:11Z</time>
      </trkpt>
      <trkpt lat="45.2892" lon="5.85357">
        <ele>940.43798828125</ele>
        <time>2017-10-28T07:15:14Z</time>
      </trkpt>
      <trkpt lat="45.28923" lon="5.8535">
        <ele>939.43798828125</ele>
        <time>2017-10-28T07:15:18Z</time>
      </trkpt>
      <trkpt lat="45.28927" lon="5.85345">
        <ele>939.43798828125</ele>
        <time>2017-10-28T07:15:22Z</time>
      </trkpt>
      <trkpt lat="45.28931" lon="5.85341">
        <ele>940.43798828125</ele>
        <time>2017-10-28T07:15:24Z</time>
      </trkpt>
      <trkpt lat="45.28935" lon="5.85336">
        <ele>940.43798828125</ele>
        <time>2017-10-28T07:15:27Z</time>
      </trkpt>
      <trkpt lat="45.28941" lon="5.85325">
        <ele>942.43798828125</ele>
        <time>2017-10-28T07:15:32Z</time>
      </trkpt>
      <trkpt lat="45.28945" lon="5.8532">
        <ele>943.43798828125</ele>
        <time>2017-10-28T07:15:35Z</time>
      </trkpt>
      <trkpt lat="45.28947" lon="5.85312">
        <ele>946.43798828125</ele>
        <time>2017-10-28T07:15:40Z</time>
      </trkpt>
      <trkpt lat="45.28953" lon="5.85309">
        <ele>949.43798828125</ele>
        <time>2017-10-28T07:15:44Z</time>
      </trkpt>
      <trkpt lat="45.28956" lon="5.85305">
        <ele>950.43798828125</ele>
        <time>2017-10-28T07:15:48Z</time>
      </trkpt>
      <trkpt lat="45.28961" lon="5.85301">
        <ele>951.43798828125</ele>
        <time>2017-10-28T07:15:51Z</time>
      </trkpt>
      <trkpt lat="45.28965" lon="5.85296">
        <ele>950.43798828125</ele>
        <time>2017-10-28T07:15:55Z</time>
      </trkpt>
      <trkpt lat="45.28968" lon="5.8529">
        <ele>948.43798828125</ele>
        <time>2017-10-28T07:16:00Z</time>
      </trkpt>
      <trkpt lat="45.28971" lon="5.85285">
        <ele>951.43798828125</ele>
        <time>2017-10-28T07:16:44Z</time>
      </trkpt>
      <trkpt lat="45.28977" lon="5.85286">
        <ele>954.43798828125</ele>
        <time>2017-10-28T07:16:49Z</time>
      </trkpt>
      <trkpt lat="45.28981" lon="5.85284">
        <ele>953.43798828125</ele>
        <time>2017-10-28T07:16:53Z</time>
      </trkpt>
      <trkpt lat="45.28985" lon="5.85282">
        <ele>953.43798828125</ele>
        <time>2017-10-28T07:16:57Z</time>
      </trkpt>
      <trkpt lat="45.28991" lon="5.85283">
        <ele>951.43798828125</ele>
        <time>2017-10-28T07:17:02Z</time>
      </trkpt>
      <trkpt lat="45.28995" lon="5.85286">
        <ele>950.43798828125</ele>
        <time>2017-10-28T07:17:06Z</time>
      </trkpt>
      <trkpt lat="45.29" lon="5.85287">
        <ele>948.43798828125</ele>
        <time>2017-10-28T07:17:37Z</time>
      </trkpt>
      <trkpt lat="45.29004" lon="5.85285">
        <ele>951.43798828125</ele>
        <time>2017-10-28T07:17:41Z</time>
      </trkpt>
      <trkpt lat="45.29009" lon="5.85285">
        <ele>952.43798828125</ele>
        <time>2017-10-28T07:17:45Z</time>
      </trkpt>
      <trkpt lat="45.29015" lon="5.85287">
        <ele>948.43798828125</ele>
        <time>2017-10-28T07:17:49Z</time>
      </trkpt>
      <trkpt lat="45.2902" lon="5.85286">
        <ele>946.43798828125</ele>
        <time>2017-10-28T07:17:52Z</time>
      </trkpt>
      <trkpt lat="45.29025" lon="5.85286">
        <ele>945.43798828125</ele>
        <time>2017-10-28T07:17:54Z</time>
      </trkpt>
      <trkpt lat="45.29032" lon="5.85283">
        <ele>942.43798828125</ele>
        <time>2017-10-28T07:17:58Z</time>
      </trkpt>
      <trkpt lat="45.29036" lon="5.85275">
        <ele>941.43798828125</ele>
        <time>2017-10-28T07:18:01Z</time>
      </trkpt>
      <trkpt lat="45.29042" lon="5.85274">
        <ele>936.43798828125</ele>
        <time>2017-10-28T07:18:04Z</time>
      </trkpt>
      <trkpt lat="45.29049" lon="5.85268">
        <ele>935.43798828125</ele>
        <time>2017-10-28T07:18:08Z</time>
      </trkpt>
      <trkpt lat="45.29053" lon="5.85265">
        <ele>936.43798828125</ele>
        <time>2017-10-28T07:18:10Z</time>
      </trkpt>
      <trkpt lat="45.29059" lon="5.85261">
        <ele>938.43798828125</ele>
        <time>2017-10-28T07:18:15Z</time>
      </trkpt>
      <trkpt lat="45.29062" lon="5.85253">
        <ele>941.43798828125</ele>
        <time>2017-10-28T07:18:17Z</time>
      </trkpt>
      <trkpt lat="45.29066" lon="5.85252">
        <ele>941.43798828125</ele>
        <time>2017-10-28T07:18:19Z</time>
      </trkpt>
      <trkpt lat="45.29072" lon="5.85251">
        <ele>938.43798828125</ele>
        <time>2017-10-28T07:18:23Z</time>
      </trkpt>
      <trkpt lat="45.29075" lon="5.85247">
        <ele>939.43798828125</ele>
        <time>2017-10-28T07:18:26Z</time>
      </trkpt>
      <trkpt lat="45.29077" lon="5.8524">
        <ele>946.43798828125</ele>
        <time>2017-10-28T07:18:30Z</time>
      </trkpt>
      <trkpt lat="45.29074" lon="5.85235">
        <ele>947.43798828125</ele>
        <time>2017-10-28T07:18:34Z</time>
      </trkpt>
      <trkpt lat="45.29072" lon="5.85229">
        <ele>947.43798828125</ele>
        <time>2017-10-28T07:18:38Z</time>
      </trkpt>
      <trkpt lat="45.29076" lon="5.85224">
        <ele>948.43798828125</ele>
        <time>2017-10-28T07:18:46Z</time>
      </trkpt>
      <trkpt lat="45.29072" lon="5.8522">
        <ele>946.43798828125</ele>
        <time>2017-10-28T07:18:55Z</time>
      </trkpt>
      <trkpt lat="45.29069" lon="5.85215">
        <ele>945.43798828125</ele>
        <time>2017-10-28T07:19:02Z</time>
      </trkpt>
      <trkpt lat="45.29065" lon="5.85211">
        <ele>948.43798828125</ele>
        <time>2017-10-28T07:19:08Z</time>
      </trkpt>
      <trkpt lat="45.29061" lon="5.85207">
        <ele>947.43798828125</ele>
        <time>2017-10-28T07:19:15Z</time>
      </trkpt>
      <trkpt lat="45.29058" lon="5.85202">
        <ele>948.43798828125</ele>
        <time>2017-10-28T07:19:20Z</time>
      </trkpt>
      <trkpt lat="45.29054" lon="5.85198">
        <ele>950.43798828125</ele>
        <time>2017-10-28T07:19:24Z</time>
      </trkpt>
      <trkpt lat="45.29051" lon="5.85191">
        <ele>945.43798828125</ele>
        <time>2017-10-28T07:19:29Z</time>
      </trkpt>
      <trkpt lat="45.29047" lon="5.85188">
        <ele>947.43798828125</ele>
        <time>2017-10-28T07:19:35Z</time>
      </trkpt>
      <trkpt lat="45.29043" lon="5.85185">
        <ele>948.43798828125</ele>
        <time>2017-10-28T07:19:40Z</time>
      </trkpt>
      <trkpt lat="45.29038" lon="5.85181">
        <ele>946.43798828125</ele>
        <time>2017-10-28T07:19:44Z</time>
      </trkpt>
      <trkpt lat="45.29036" lon="5.85175">
        <ele>950.43798828125</ele>
        <time>2017-10-28T07:19:47Z</time>
      </trkpt>
      <trkpt lat="45.2904" lon="5.85169">
        <ele>951.43798828125</ele>
        <time>2017-10-28T07:19:53Z</time>
      </trkpt>
      <trkpt lat="45.29037" lon="5.85163">
        <ele>951.43798828125</ele>
        <time>2017-10-28T07:19:58Z</time>
      </trkpt>
      <trkpt lat="45.29031" lon="5.85162">
        <ele>954.43798828125</ele>
        <time>2017-10-28T07:20:02Z</time>
      </trkpt>
      <trkpt lat="45.29026" lon="5.85161">
        <ele>953.43798828125</ele>
        <time>2017-10-28T07:20:07Z</time>
      </trkpt>
      <trkpt lat="45.29022" lon="5.85158">
        <ele>951.43798828125</ele>
        <time>2017-10-28T07:20:12Z</time>
      </trkpt>
      <trkpt lat="45.29019" lon="5.85151">
        <ele>950.43798828125</ele>
        <time>2017-10-28T07:20:16Z</time>
      </trkpt>
      <trkpt lat="45.29016" lon="5.85145">
        <ele>949.43798828125</ele>
        <time>2017-10-28T07:20:23Z</time>
      </trkpt>
      <trkpt lat="45.29013" lon="5.85139">
        <ele>949.43798828125</ele>
        <time>2017-10-28T07:20:27Z</time>
      </trkpt>
      <trkpt lat="45.29012" lon="5.85131">
        <ele>951.43798828125</ele>
        <time>2017-10-28T07:20:38Z</time>
      </trkpt>
      <trkpt lat="45.2901" lon="5.85125">
        <ele>953.43798828125</ele>
        <time>2017-10-28T07:20:40Z</time>
      </trkpt>
      <trkpt lat="45.2901" lon="5.85118">
        <ele>955.43798828125</ele>
        <time>2017-10-28T07:20:43Z</time>
      </trkpt>
      <trkpt lat="45.29009" lon="5.85111">
        <ele>956.43798828125</ele>
        <time>2017-10-28T07:20:45Z</time>
      </trkpt>
      <trkpt lat="45.2901" lon="5.85104">
        <ele>953.43798828125</ele>
        <time>2017-10-28T07:20:49Z</time>
      </trkpt>
      <trkpt lat="45.29009" lon="5.85096">
        <ele>957.43798828125</ele>
        <time>2017-10-28T07:20:54Z</time>
      </trkpt>
      <trkpt lat="45.29009" lon="5.85088">
        <ele>959.43798828125</ele>
        <time>2017-10-28T07:20:58Z</time>
      </trkpt>
      <trkpt lat="45.29009" lon="5.85081">
        <ele>961.43798828125</ele>
        <time>2017-10-28T07:21:02Z</time>
      </trkpt>
      <trkpt lat="45.29012" lon="5.85074">
        <ele>963.43798828125</ele>
        <time>2017-10-28T07:21:07Z</time>
      </trkpt>
      <trkpt lat="45.29012" lon="5.85067">
        <ele>963.43798828125</ele>
        <time>2017-10-28T07:21:11Z</time>
      </trkpt>
      <trkpt lat="45.29012" lon="5.85059">
        <ele>966.43798828125</ele>
        <time>2017-10-28T07:21:15Z</time>
      </trkpt>
      <trkpt lat="45.29012" lon="5.85053">
        <ele>966.43798828125</ele>
        <time>2017-10-28T07:21:19Z</time>
      </trkpt>
      <trkpt lat="45.29011" lon="5.85044">
        <ele>969.43798828125</ele>
        <time>2017-10-28T07:21:24Z</time>
      </trkpt>
      <trkpt lat="45.29011" lon="5.85036">
        <ele>968.43798828125</ele>
        <time>2017-10-28T07:21:28Z</time>
      </trkpt>
      <trkpt lat="45.29012" lon="5.8503">
        <ele>968.43798828125</ele>
        <time>2017-10-28T07:21:32Z</time>
      </trkpt>
      <trkpt lat="45.29014" lon="5.85024">
        <ele>964.43798828125</ele>
        <time>2017-10-28T07:21:37Z</time>
      </trkpt>
      <trkpt lat="45.29015" lon="5.85017">
        <ele>964.43798828125</ele>
        <time>2017-10-28T07:21:40Z</time>
      </trkpt>
      <trkpt lat="45.29016" lon="5.85011">
        <ele>964.43798828125</ele>
        <time>2017-10-28T07:21:43Z</time>
      </trkpt>
      <trkpt lat="45.29017" lon="5.85004">
        <ele>966.43798828125</ele>
        <time>2017-10-28T07:21:46Z</time>
      </trkpt>
      <trkpt lat="45.29019" lon="5.84998">
        <ele>968.43798828125</ele>
        <time>2017-10-28T07:21:50Z</time>
      </trkpt>
      <trkpt lat="45.29019" lon="5.84989">
        <ele>966.43798828125</ele>
        <time>2017-10-28T07:21:54Z</time>
      </trkpt>
      <trkpt lat="45.2902" lon="5.84982">
        <ele>965.43798828125</ele>
        <time>2017-10-28T07:21:58Z</time>
      </trkpt>
      <trkpt lat="45.29021" lon="5.84974">
        <ele>966.43798828125</ele>
        <time>2017-10-28T07:22:02Z</time>
      </trkpt>
      <trkpt lat="45.29021" lon="5.84967">
        <ele>967.43798828125</ele>
        <time>2017-10-28T07:22:06Z</time>
      </trkpt>
      <trkpt lat="45.29022" lon="5.8496">
        <ele>969.43798828125</ele>
        <time>2017-10-28T07:22:10Z</time>
      </trkpt>
      <trkpt lat="45.29022" lon="5.84952">
        <ele>969.43798828125</ele>
        <time>2017-10-28T07:22:15Z</time>
      </trkpt>
      <trkpt lat="45.29024" lon="5.84945">
        <ele>972.43798828125</ele>
        <time>2017-10-28T07:22:19Z</time>
      </trkpt>
      <trkpt lat="45.29025" lon="5.84937">
        <ele>971.43798828125</ele>
        <time>2017-10-28T07:22:22Z</time>
      </trkpt>
      <trkpt lat="45.29026" lon="5.84929">
        <ele>975.43798828125</ele>
        <time>2017-10-28T07:22:25Z</time>
      </trkpt>
      <trkpt lat="45.29024" lon="5.84922">
        <ele>972.43798828125</ele>
        <time>2017-10-28T07:22:30Z</time>
      </trkpt>
      <trkpt lat="45.29026" lon="5.84916">
        <ele>974.43798828125</ele>
        <time>2017-10-28T07:22:34Z</time>
      </trkpt>
      <trkpt lat="45.29025" lon="5.84909">
        <ele>975.43798828125</ele>
        <time>2017-10-28T07:22:37Z</time>
      </trkpt>
      <trkpt lat="45.29026" lon="5.84901">
        <ele>977.43798828125</ele>
        <time>2017-10-28T07:22:40Z</time>
      </trkpt>
      <trkpt lat="45.29026" lon="5.84895">
        <ele>977.43798828125</ele>
        <time>2017-10-28T07:22:43Z</time>
      </trkpt>
      <trkpt lat="45.29028" lon="5.84888">
        <ele>977.43798828125</ele>
        <time>2017-10-28T07:22:47Z</time>
      </trkpt>
      <trkpt lat="45.29029" lon="5.84881">
        <ele>977.43798828125</ele>
        <time>2017-10-28T07:22:52Z</time>
      </trkpt>
      <trkpt lat="45.29031" lon="5.84874">
        <ele>976.43798828125</ele>
        <time>2017-10-28T07:22:55Z</time>
      </trkpt>
      <trkpt lat="45.29031" lon="5.84866">
        <ele>974.43798828125</ele>
        <time>2017-10-28T07:22:58Z</time>
      </trkpt>
      <trkpt lat="45.29032" lon="5.84859">
        <ele>979.43798828125</ele>
        <time>2017-10-28T07:23:01Z</time>
      </trkpt>
      <trkpt lat="45.29037" lon="5.84853">
        <ele>977.43798828125</ele>
        <time>2017-10-28T07:23:04Z</time>
      </trkpt>
      <trkpt lat="45.29041" lon="5.84849">
        <ele>977.43798828125</ele>
        <time>2017-10-28T07:23:09Z</time>
      </trkpt>
      <trkpt lat="45.29049" lon="5.84852">
        <ele>973.43798828125</ele>
        <time>2017-10-28T07:23:14Z</time>
      </trkpt>
      <trkpt lat="45.29048" lon="5.8486">
        <ele>981.43798828125</ele>
        <time>2017-10-28T07:23:27Z</time>
      </trkpt>
      <trkpt lat="45.29051" lon="5.84866">
        <ele>984.43798828125</ele>
        <time>2017-10-28T07:23:32Z</time>
      </trkpt>
      <trkpt lat="45.29056" lon="5.84866">
        <ele>985.43798828125</ele>
        <time>2017-10-28T07:23:38Z</time>
      </trkpt>
      <trkpt lat="45.2906" lon="5.84861">
        <ele>982.43798828125</ele>
        <time>2017-10-28T07:23:42Z</time>
      </trkpt>
      <trkpt lat="45.29064" lon="5.84859">
        <ele>985.43798828125</ele>
        <time>2017-10-28T07:23:46Z</time>
      </trkpt>
      <trkpt lat="45.2907" lon="5.84858">
        <ele>988.43798828125</ele>
        <time>2017-10-28T07:23:51Z</time>
      </trkpt>
      <trkpt lat="45.29074" lon="5.84859">
        <ele>989.43798828125</ele>
        <time>2017-10-28T07:23:55Z</time>
      </trkpt>
      <trkpt lat="45.29081" lon="5.84864">
        <ele>987.43798828125</ele>
        <time>2017-10-28T07:23:59Z</time>
      </trkpt>
      <trkpt lat="45.29085" lon="5.8486">
        <ele>991.43798828125</ele>
        <time>2017-10-28T07:24:03Z</time>
      </trkpt>
      <trkpt lat="45.29089" lon="5.84856">
        <ele>992.43798828125</ele>
        <time>2017-10-28T07:24:06Z</time>
      </trkpt>
      <trkpt lat="45.29095" lon="5.84855">
        <ele>991.43798828125</ele>
        <time>2017-10-28T07:24:10Z</time>
      </trkpt>
      <trkpt lat="45.291" lon="5.84852">
        <ele>992.43798828125</ele>
        <time>2017-10-28T07:24:14Z</time>
      </trkpt>
      <trkpt lat="45.29104" lon="5.84853">
        <ele>993.43798828125</ele>
        <time>2017-10-28T07:24:17Z</time>
      </trkpt>
      <trkpt lat="45.29108" lon="5.8485">
        <ele>997.43798828125</ele>
        <time>2017-10-28T07:24:22Z</time>
      </trkpt>
      <trkpt lat="45.29113" lon="5.84847">
        <ele>1000.4379882812</ele>
        <time>2017-10-28T07:24:27Z</time>
      </trkpt>
      <trkpt lat="45.29117" lon="5.84841">
        <ele>1000.4379882812</ele>
        <time>2017-10-28T07:24:32Z</time>
      </trkpt>
      <trkpt lat="45.29121" lon="5.84837">
        <ele>1001.4379882812</ele>
        <time>2017-10-28T07:24:36Z</time>
      </trkpt>
      <trkpt lat="45.29124" lon="5.84831">
        <ele>1002.4379882812</ele>
        <time>2017-10-28T07:24:39Z</time>
      </trkpt>
      <trkpt lat="45.29129" lon="5.84829">
        <ele>1003.4379882812</ele>
        <time>2017-10-28T07:24:43Z</time>
      </trkpt>
      <trkpt lat="45.29132" lon="5.84823">
        <ele>1005.4379882812</ele>
        <time>2017-10-28T07:24:47Z</time>
      </trkpt>
      <trkpt lat="45.29136" lon="5.84817">
        <ele>1003.4379882812</ele>
        <time>2017-10-28T07:24:51Z</time>
      </trkpt>
      <trkpt lat="45.29141" lon="5.84814">
        <ele>1004.4379882812</ele>
        <time>2017-10-28T07:24:55Z</time>
      </trkpt>
      <trkpt lat="45.29146" lon="5.8481">
        <ele>1002.4379882812</ele>
        <time>2017-10-28T07:25:03Z</time>
      </trkpt>
      <trkpt lat="45.2915" lon="5.84806">
        <ele>1002.4379882812</ele>
        <time>2017-10-28T07:25:06Z</time>
      </trkpt>
      <trkpt lat="45.29154" lon="5.84802">
        <ele>1003.4379882812</ele>
        <time>2017-10-28T07:25:10Z</time>
      </trkpt>
      <trkpt lat="45.29159" lon="5.84798">
        <ele>1003.4379882812</ele>
        <time>2017-10-28T07:25:13Z</time>
      </trkpt>
      <trkpt lat="45.29163" lon="5.84797">
        <ele>1006.4379882812</ele>
        <time>2017-10-28T07:25:19Z</time>
      </trkpt>
      <trkpt lat="45.29168" lon="5.84794">
        <ele>1007.4379882812</ele>
        <time>2017-10-28T07:25:24Z</time>
      </trkpt>
      <trkpt lat="45.29169" lon="5.84786">
        <ele>1008.4379882812</ele>
        <time>2017-10-28T07:25:27Z</time>
      </trkpt>
      <trkpt lat="45.29171" lon="5.8478">
        <ele>1009.4379882812</ele>
        <time>2017-10-28T07:25:31Z</time>
      </trkpt>
      <trkpt lat="45.29176" lon="5.8478">
        <ele>1008.4379882812</ele>
        <time>2017-10-28T07:25:37Z</time>
      </trkpt>
      <trkpt lat="45.29181" lon="5.84775">
        <ele>1010.4379882812</ele>
        <time>2017-10-28T07:25:43Z</time>
      </trkpt>
      <trkpt lat="45.29186" lon="5.8477">
        <ele>1011.4379882812</ele>
        <time>2017-10-28T07:25:47Z</time>
      </trkpt>
      <trkpt lat="45.29188" lon="5.84763">
        <ele>1016.4379882812</ele>
        <time>2017-10-28T07:25:53Z</time>
      </trkpt>
      <trkpt lat="45.29191" lon="5.84758">
        <ele>1017.4379882812</ele>
        <time>2017-10-28T07:25:56Z</time>
      </trkpt>
      <trkpt lat="45.29194" lon="5.84753">
        <ele>1016.4379882812</ele>
        <time>2017-10-28T07:26:01Z</time>
      </trkpt>
      <trkpt lat="45.29198" lon="5.84749">
        <ele>1020.4379882812</ele>
        <time>2017-10-28T07:26:06Z</time>
      </trkpt>
      <trkpt lat="45.29202" lon="5.84746">
        <ele>1021.4379882812</ele>
        <time>2017-10-28T07:26:12Z</time>
      </trkpt>
      <trkpt lat="45.29207" lon="5.84743">
        <ele>1024.4379882812</ele>
        <time>2017-10-28T07:26:17Z</time>
      </trkpt>
      <trkpt lat="45.29212" lon="5.84739">
        <ele>1026.4379882812</ele>
        <time>2017-10-28T07:26:22Z</time>
      </trkpt>
      <trkpt lat="45.29216" lon="5.84735">
        <ele>1027.4379882812</ele>
        <time>2017-10-28T07:26:27Z</time>
      </trkpt>
      <trkpt lat="45.2922" lon="5.84733">
        <ele>1027.4379882812</ele>
        <time>2017-10-28T07:26:32Z</time>
      </trkpt>
      <trkpt lat="45.29224" lon="5.84731">
        <ele>1026.4379882812</ele>
        <time>2017-10-28T07:26:35Z</time>
      </trkpt>
      <trkpt lat="45.29226" lon="5.84724">
        <ele>1027.4379882812</ele>
        <time>2017-10-28T07:26:38Z</time>
      </trkpt>
      <trkpt lat="45.2923" lon="5.8472">
        <ele>1030.4379882812</ele>
        <time>2017-10-28T07:26:44Z</time>
      </trkpt>
      <trkpt lat="45.29233" lon="5.84712">
        <ele>1030.4379882812</ele>
        <time>2017-10-28T07:26:51Z</time>
      </trkpt>
      <trkpt lat="45.29236" lon="5.84707">
        <ele>1033.4379882812</ele>
        <time>2017-10-28T07:26:57Z</time>
      </trkpt>
      <trkpt lat="45.29238" lon="5.847">
        <ele>1035.4379882812</ele>
        <time>2017-10-28T07:27:02Z</time>
      </trkpt>
      <trkpt lat="45.29241" lon="5.84695">
        <ele>1037.4379882812</ele>
        <time>2017-10-28T07:27:08Z</time>
      </trkpt>
      <trkpt lat="45.29245" lon="5.8469">
        <ele>1040.4379882812</ele>
        <time>2017-10-28T07:27:14Z</time>
      </trkpt>
      <trkpt lat="45.29246" lon="5.84683">
        <ele>1042.4379882812</ele>
        <time>2017-10-28T07:27:25Z</time>
      </trkpt>
      <trkpt lat="45.29248" lon="5.84678">
        <ele>1045.4379882812</ele>
        <time>2017-10-28T07:27:36Z</time>
      </trkpt>
      <trkpt lat="45.29253" lon="5.84675">
        <ele>1050.4379882812</ele>
        <time>2017-10-28T07:27:49Z</time>
      </trkpt>
      <trkpt lat="45.29257" lon="5.84673">
        <ele>1052.4379882812</ele>
        <time>2017-10-28T07:27:56Z</time>
      </trkpt>
      <trkpt lat="45.29261" lon="5.8467">
        <ele>1052.4379882812</ele>
        <time>2017-10-28T07:28:04Z</time>
      </trkpt>
      <trkpt lat="45.29266" lon="5.84669">
        <ele>1052.4379882812</ele>
        <time>2017-10-28T07:28:08Z</time>
      </trkpt>
      <trkpt lat="45.29272" lon="5.84667">
        <ele>1055.4379882812</ele>
        <time>2017-10-28T07:28:12Z</time>
      </trkpt>
      <trkpt lat="45.29276" lon="5.84666">
        <ele>1055.4379882812</ele>
        <time>2017-10-28T07:28:20Z</time>
      </trkpt>
      <trkpt lat="45.29281" lon="5.84663">
        <ele>1055.4379882812</ele>
        <time>2017-10-28T07:28:24Z</time>
      </trkpt>
      <trkpt lat="45.29285" lon="5.84661">
        <ele>1056.4379882812</ele>
        <time>2017-10-28T07:28:28Z</time>
      </trkpt>
      <trkpt lat="45.2929" lon="5.84657">
        <ele>1059.4379882812</ele>
        <time>2017-10-28T07:28:42Z</time>
      </trkpt>
      <trkpt lat="45.29295" lon="5.84654">
        <ele>1062.4379882812</ele>
        <time>2017-10-28T07:28:56Z</time>
      </trkpt>
      <trkpt lat="45.29299" lon="5.84649">
        <ele>1061.4379882812</ele>
        <time>2017-10-28T07:29:00Z</time>
      </trkpt>
      <trkpt lat="45.29304" lon="5.84648">
        <ele>1063.4379882812</ele>
        <time>2017-10-28T07:29:05Z</time>
      </trkpt>
      <trkpt lat="45.29309" lon="5.84646">
        <ele>1065.4379882812</ele>
        <time>2017-10-28T07:29:22Z</time>
      </trkpt>
      <trkpt lat="45.29314" lon="5.84645">
        <ele>1066.4379882812</ele>
        <time>2017-10-28T07:29:27Z</time>
      </trkpt>
      <trkpt lat="45.29319" lon="5.84646">
        <ele>1069.4379882812</ele>
        <time>2017-10-28T07:29:31Z</time>
      </trkpt>
      <trkpt lat="45.29325" lon="5.84645">
        <ele>1071.4379882812</ele>
        <time>2017-10-28T07:29:35Z</time>
      </trkpt>
      <trkpt lat="45.2933" lon="5.84645">
        <ele>1076.4379882812</ele>
        <time>2017-10-28T07:29:50Z</time>
      </trkpt>
      <trkpt lat="45.29335" lon="5.84644">
        <ele>1076.4379882812</ele>
        <time>2017-10-28T07:29:54Z</time>
      </trkpt>
      <trkpt lat="45.29342" lon="5.84648">
        <ele>1079.4379882812</ele>
        <time>2017-10-28T07:29:58Z</time>
      </trkpt>
      <trkpt lat="45.29347" lon="5.84645">
        <ele>1080.4379882812</ele>
        <time>2017-10-28T07:30:03Z</time>
      </trkpt>
      <trkpt lat="45.2935" lon="5.8464">
        <ele>1080.4379882812</ele>
        <time>2017-10-28T07:30:09Z</time>
      </trkpt>
      <trkpt lat="45.29355" lon="5.84643">
        <ele>1083.4379882812</ele>
        <time>2017-10-28T07:30:15Z</time>
      </trkpt>
      <trkpt lat="45.2936" lon="5.84642">
        <ele>1088.4379882812</ele>
        <time>2017-10-28T07:30:26Z</time>
      </trkpt>
      <trkpt lat="45.29364" lon="5.84644">
        <ele>1093.4379882812</ele>
        <time>2017-10-28T07:30:49Z</time>
      </trkpt>
      <trkpt lat="45.29369" lon="5.8465">
        <ele>1091.4379882812</ele>
        <time>2017-10-28T07:30:53Z</time>
      </trkpt>
      <trkpt lat="45.29376" lon="5.84663">
        <ele>1090.4379882812</ele>
        <time>2017-10-28T07:30:56Z</time>
      </trkpt>
      <trkpt lat="45.29377" lon="5.84669">
        <ele>1090.4379882812</ele>
        <time>2017-10-28T07:31:00Z</time>
      </trkpt>
      <trkpt lat="45.2938" lon="5.84675">
        <ele>1089.4379882812</ele>
        <time>2017-10-28T07:31:06Z</time>
      </trkpt>
      <trkpt lat="45.29381" lon="5.84683">
        <ele>1091.4379882812</ele>
        <time>2017-10-28T07:31:10Z</time>
      </trkpt>
      <trkpt lat="45.29383" lon="5.8469">
        <ele>1092.4379882812</ele>
        <time>2017-10-28T07:31:13Z</time>
      </trkpt>
      <trkpt lat="45.29387" lon="5.84699">
        <ele>1092.4379882812</ele>
        <time>2017-10-28T07:31:16Z</time>
      </trkpt>
      <trkpt lat="45.29391" lon="5.84706">
        <ele>1092.4379882812</ele>
        <time>2017-10-28T07:31:18Z</time>
      </trkpt>
      <trkpt lat="45.29395" lon="5.84712">
        <ele>1091.4379882812</ele>
        <time>2017-10-28T07:31:21Z</time>
      </trkpt>
      <trkpt lat="45.29399" lon="5.84723">
        <ele>1092.4379882812</ele>
        <time>2017-10-28T07:31:23Z</time>
      </trkpt>
      <trkpt lat="45.29407" lon="5.84741">
        <ele>1094.4379882812</ele>
        <time>2017-10-28T07:31:26Z</time>
      </trkpt>
      <trkpt lat="45.29408" lon="5.8475">
        <ele>1095.4379882812</ele>
        <time>2017-10-28T07:31:28Z</time>
      </trkpt>
      <trkpt lat="45.2941" lon="5.84759">
        <ele>1094.4379882812</ele>
        <time>2017-10-28T07:31:31Z</time>
      </trkpt>
      <trkpt lat="45.29412" lon="5.84765">
        <ele>1096.4379882812</ele>
        <time>2017-10-28T07:31:34Z</time>
      </trkpt>
      <trkpt lat="45.29416" lon="5.84769">
        <ele>1093.4379882812</ele>
        <time>2017-10-28T07:31:36Z</time>
      </trkpt>
      <trkpt lat="45.29419" lon="5.84775">
        <ele>1091.4379882812</ele>
        <time>2017-10-28T07:31:38Z</time>
      </trkpt>
      <trkpt lat="45.2942" lon="5.84781">
        <ele>1091.4379882812</ele>
        <time>2017-10-28T07:31:40Z</time>
      </trkpt>
      <trkpt lat="45.29424" lon="5.84787">
        <ele>1090.4379882812</ele>
        <time>2017-10-28T07:31:42Z</time>
      </trkpt>
      <trkpt lat="45.2943" lon="5.8479">
        <ele>1091.4379882812</ele>
        <time>2017-10-28T07:31:44Z</time>
      </trkpt>
      <trkpt lat="45.29435" lon="5.84794">
        <ele>1092.4379882812</ele>
        <time>2017-10-28T07:31:46Z</time>
      </trkpt>
      <trkpt lat="45.2944" lon="5.84796">
        <ele>1092.4379882812</ele>
        <time>2017-10-28T07:31:49Z</time>
      </trkpt>
      <trkpt lat="45.29444" lon="5.84801">
        <ele>1095.4379882812</ele>
        <time>2017-10-28T07:31:53Z</time>
      </trkpt>
      <trkpt lat="45.29446" lon="5.84807">
        <ele>1092.4379882812</ele>
        <time>2017-10-28T07:31:57Z</time>
      </trkpt>
      <trkpt lat="45.29449" lon="5.84811">
        <ele>1095.4379882812</ele>
        <time>2017-10-28T07:32:00Z</time>
      </trkpt>
      <trkpt lat="45.29451" lon="5.84817">
        <ele>1095.4379882812</ele>
        <time>2017-10-28T07:32:07Z</time>
      </trkpt>
      <trkpt lat="45.29454" lon="5.84822">
        <ele>1097.4379882812</ele>
        <time>2017-10-28T07:32:12Z</time>
      </trkpt>
      <trkpt lat="45.29457" lon="5.84828">
        <ele>1098.4379882812</ele>
        <time>2017-10-28T07:32:17Z</time>
      </trkpt>
      <trkpt lat="45.29461" lon="5.84833">
        <ele>1099.4379882812</ele>
        <time>2017-10-28T07:32:20Z</time>
      </trkpt>
      <trkpt lat="45.29465" lon="5.84837">
        <ele>1099.4379882812</ele>
        <time>2017-10-28T07:32:24Z</time>
      </trkpt>
      <trkpt lat="45.29468" lon="5.84842">
        <ele>1100.4379882812</ele>
        <time>2017-10-28T07:32:31Z</time>
      </trkpt>
      <trkpt lat="45.29473" lon="5.84848">
        <ele>1100.4379882812</ele>
        <time>2017-10-28T07:32:36Z</time>
      </trkpt>
      <trkpt lat="45.29477" lon="5.84852">
        <ele>1101.4379882812</ele>
        <time>2017-10-28T07:32:40Z</time>
      </trkpt>
      <trkpt lat="45.29482" lon="5.84854">
        <ele>1105.4379882812</ele>
        <time>2017-10-28T07:32:45Z</time>
      </trkpt>
      <trkpt lat="45.29487" lon="5.84856">
        <ele>1109.4379882812</ele>
        <time>2017-10-28T07:32:49Z</time>
      </trkpt>
      <trkpt lat="45.29492" lon="5.84855">
        <ele>1111.4389648438</ele>
        <time>2017-10-28T07:32:53Z</time>
      </trkpt>
      <trkpt lat="45.29497" lon="5.84856">
        <ele>1111.4389648438</ele>
        <time>2017-10-28T07:32:57Z</time>
      </trkpt>
      <trkpt lat="45.29503" lon="5.84858">
        <ele>1112.4389648438</ele>
        <time>2017-10-28T07:33:05Z</time>
      </trkpt>
      <trkpt lat="45.29508" lon="5.84858">
        <ele>1114.4389648438</ele>
        <time>2017-10-28T07:33:09Z</time>
      </trkpt>
      <trkpt lat="45.29513" lon="5.84856">
        <ele>1113.4389648438</ele>
        <time>2017-10-28T07:33:14Z</time>
      </trkpt>
      <trkpt lat="45.29518" lon="5.84854">
        <ele>1115.4389648438</ele>
        <time>2017-10-28T07:33:23Z</time>
      </trkpt>
      <trkpt lat="45.29523" lon="5.84856">
        <ele>1117.4389648438</ele>
        <time>2017-10-28T07:33:40Z</time>
      </trkpt>
      <trkpt lat="45.29524" lon="5.84862">
        <ele>1117.4389648438</ele>
        <time>2017-10-28T07:33:54Z</time>
      </trkpt>
      <trkpt lat="45.29524" lon="5.84869">
        <ele>1114.4389648438</ele>
        <time>2017-10-28T07:33:58Z</time>
      </trkpt>
      <trkpt lat="45.29526" lon="5.84877">
        <ele>1113.4389648438</ele>
        <time>2017-10-28T07:34:02Z</time>
      </trkpt>
      <trkpt lat="45.29525" lon="5.84884">
        <ele>1112.4389648438</ele>
        <time>2017-10-28T07:34:06Z</time>
      </trkpt>
      <trkpt lat="45.29526" lon="5.84892">
        <ele>1112.4389648438</ele>
        <time>2017-10-28T07:34:12Z</time>
      </trkpt>
      <trkpt lat="45.29528" lon="5.84898">
        <ele>1113.4389648438</ele>
        <time>2017-10-28T07:34:18Z</time>
      </trkpt>
      <trkpt lat="45.29529" lon="5.84906">
        <ele>1112.4389648438</ele>
        <time>2017-10-28T07:34:23Z</time>
      </trkpt>
      <trkpt lat="45.29528" lon="5.84913">
        <ele>1111.4389648438</ele>
        <time>2017-10-28T07:34:27Z</time>
      </trkpt>
      <trkpt lat="45.29527" lon="5.8492">
        <ele>1112.4389648438</ele>
        <time>2017-10-28T07:34:30Z</time>
      </trkpt>
      <trkpt lat="45.29529" lon="5.84927">
        <ele>1113.4389648438</ele>
        <time>2017-10-28T07:34:34Z</time>
      </trkpt>
      <trkpt lat="45.29532" lon="5.84935">
        <ele>1107.4389648438</ele>
        <time>2017-10-28T07:34:39Z</time>
      </trkpt>
      <trkpt lat="45.29536" lon="5.84939">
        <ele>1106.4389648438</ele>
        <time>2017-10-28T07:34:41Z</time>
      </trkpt>
      <trkpt lat="45.2954" lon="5.84945">
        <ele>1106.4389648438</ele>
        <time>2017-10-28T07:34:43Z</time>
      </trkpt>
      <trkpt lat="45.29546" lon="5.84948">
        <ele>1105.4389648438</ele>
        <time>2017-10-28T07:34:45Z</time>
      </trkpt>
      <trkpt lat="45.2955" lon="5.84951">
        <ele>1102.4389648438</ele>
        <time>2017-10-28T07:34:50Z</time>
      </trkpt>
      <trkpt lat="45.29555" lon="5.84954">
        <ele>1100.4389648438</ele>
        <time>2017-10-28T07:35:01Z</time>
      </trkpt>
      <trkpt lat="45.29559" lon="5.84961">
        <ele>1101.4389648438</ele>
        <time>2017-10-28T07:35:05Z</time>
      </trkpt>
      <trkpt lat="45.29565" lon="5.84964">
        <ele>1102.4389648438</ele>
        <time>2017-10-28T07:35:08Z</time>
      </trkpt>
      <trkpt lat="45.29569" lon="5.84968">
        <ele>1101.4389648438</ele>
        <time>2017-10-28T07:35:11Z</time>
      </trkpt>
      <trkpt lat="45.29574" lon="5.84973">
        <ele>1102.4389648438</ele>
        <time>2017-10-28T07:35:14Z</time>
      </trkpt>
      <trkpt lat="45.2958" lon="5.84974">
        <ele>1098.4389648438</ele>
        <time>2017-10-28T07:35:21Z</time>
      </trkpt>
      <trkpt lat="45.29585" lon="5.84975">
        <ele>1097.4389648438</ele>
        <time>2017-10-28T07:35:23Z</time>
      </trkpt>
      <trkpt lat="45.29589" lon="5.84976">
        <ele>1095.4389648438</ele>
        <time>2017-10-28T07:35:25Z</time>
      </trkpt>
      <trkpt lat="45.29594" lon="5.84977">
        <ele>1094.4389648438</ele>
        <time>2017-10-28T07:35:29Z</time>
      </trkpt>
      <trkpt lat="45.296" lon="5.84978">
        <ele>1093.4389648438</ele>
        <time>2017-10-28T07:35:35Z</time>
      </trkpt>
      <trkpt lat="45.29606" lon="5.8498">
        <ele>1094.4389648438</ele>
        <time>2017-10-28T07:35:39Z</time>
      </trkpt>
      <trkpt lat="45.29611" lon="5.84979">
        <ele>1093.4389648438</ele>
        <time>2017-10-28T07:35:42Z</time>
      </trkpt>
      <trkpt lat="45.29615" lon="5.8498">
        <ele>1089.4389648438</ele>
        <time>2017-10-28T07:35:45Z</time>
      </trkpt>
      <trkpt lat="45.29619" lon="5.84978">
        <ele>1088.4389648438</ele>
        <time>2017-10-28T07:35:48Z</time>
      </trkpt>
      <trkpt lat="45.29621" lon="5.84984">
        <ele>1085.4389648438</ele>
        <time>2017-10-28T07:35:50Z</time>
      </trkpt>
      <trkpt lat="45.29626" lon="5.84983">
        <ele>1082.4389648438</ele>
        <time>2017-10-28T07:35:54Z</time>
      </trkpt>
      <trkpt lat="45.29632" lon="5.84986">
        <ele>1083.4389648438</ele>
        <time>2017-10-28T07:35:57Z</time>
      </trkpt>
      <trkpt lat="45.29637" lon="5.84991">
        <ele>1084.4389648438</ele>
        <time>2017-10-28T07:36:00Z</time>
      </trkpt>
      <trkpt lat="45.29641" lon="5.84997">
        <ele>1083.4389648438</ele>
        <time>2017-10-28T07:36:03Z</time>
      </trkpt>
      <trkpt lat="45.29645" lon="5.85002">
        <ele>1081.4389648438</ele>
        <time>2017-10-28T07:36:07Z</time>
      </trkpt>
      <trkpt lat="45.29648" lon="5.85008">
        <ele>1082.4389648438</ele>
        <time>2017-10-28T07:36:12Z</time>
      </trkpt>
      <trkpt lat="45.29648" lon="5.85015">
        <ele>1081.4389648438</ele>
        <time>2017-10-28T07:36:17Z</time>
      </trkpt>
      <trkpt lat="45.29647" lon="5.85022">
        <ele>1080.4389648438</ele>
        <time>2017-10-28T07:36:25Z</time>
      </trkpt>
      <trkpt lat="45.29644" lon="5.85017">
        <ele>1079.4389648438</ele>
        <time>2017-10-28T07:36:39Z</time>
      </trkpt>
      <trkpt lat="45.2964" lon="5.85013">
        <ele>1077.4389648438</ele>
        <time>2017-10-28T07:36:42Z</time>
      </trkpt>
      <trkpt lat="45.29635" lon="5.85012">
        <ele>1074.4389648438</ele>
        <time>2017-10-28T07:36:46Z</time>
      </trkpt>
      <trkpt lat="45.2963" lon="5.85012">
        <ele>1070.4389648438</ele>
        <time>2017-10-28T07:36:51Z</time>
      </trkpt>
      <trkpt lat="45.29626" lon="5.85012">
        <ele>1067.4389648438</ele>
        <time>2017-10-28T07:37:01Z</time>
      </trkpt>
      <trkpt lat="45.29621" lon="5.85016">
        <ele>1065.4389648438</ele>
        <time>2017-10-28T07:38:22Z</time>
      </trkpt>
      <trkpt lat="45.29618" lon="5.85022">
        <ele>1061.4389648438</ele>
        <time>2017-10-28T07:38:28Z</time>
      </trkpt>
      <trkpt lat="45.29613" lon="5.85023">
        <ele>1060.4389648438</ele>
        <time>2017-10-28T07:38:32Z</time>
      </trkpt>
      <trkpt lat="45.29608" lon="5.85022">
        <ele>1059.4389648438</ele>
        <time>2017-10-28T07:38:37Z</time>
      </trkpt>
      <trkpt lat="45.29603" lon="5.85022">
        <ele>1060.4389648438</ele>
        <time>2017-10-28T07:38:42Z</time>
      </trkpt>
      <trkpt lat="45.29598" lon="5.85023">
        <ele>1058.4389648438</ele>
        <time>2017-10-28T07:38:47Z</time>
      </trkpt>
      <trkpt lat="45.29593" lon="5.85025">
        <ele>1058.4389648438</ele>
        <time>2017-10-28T07:38:51Z</time>
      </trkpt>
      <trkpt lat="45.29591" lon="5.85031">
        <ele>1057.4389648438</ele>
        <time>2017-10-28T07:38:55Z</time>
      </trkpt>
      <trkpt lat="45.29595" lon="5.85035">
        <ele>1055.4389648438</ele>
        <time>2017-10-28T07:39:01Z</time>
      </trkpt>
      <trkpt lat="45.29599" lon="5.85035">
        <ele>1054.4389648438</ele>
        <time>2017-10-28T07:39:05Z</time>
      </trkpt>
      <trkpt lat="45.29604" lon="5.85039">
        <ele>1053.4389648438</ele>
        <time>2017-10-28T07:39:09Z</time>
      </trkpt>
      <trkpt lat="45.29608" lon="5.85043">
        <ele>1050.4389648438</ele>
        <time>2017-10-28T07:39:14Z</time>
      </trkpt>
      <trkpt lat="45.2961" lon="5.85049">
        <ele>1049.4389648438</ele>
        <time>2017-10-28T07:39:18Z</time>
      </trkpt>
      <trkpt lat="45.29615" lon="5.85054">
        <ele>1047.4389648438</ele>
        <time>2017-10-28T07:39:21Z</time>
      </trkpt>
      <trkpt lat="45.29619" lon="5.85059">
        <ele>1046.4389648438</ele>
        <time>2017-10-28T07:39:24Z</time>
      </trkpt>
      <trkpt lat="45.29624" lon="5.85064">
        <ele>1044.4389648438</ele>
        <time>2017-10-28T07:39:28Z</time>
      </trkpt>
      <trkpt lat="45.29628" lon="5.85067">
        <ele>1045.4389648438</ele>
        <time>2017-10-28T07:39:33Z</time>
      </trkpt>
      <trkpt lat="45.29632" lon="5.85071">
        <ele>1044.4389648438</ele>
        <time>2017-10-28T07:39:37Z</time>
      </trkpt>
      <trkpt lat="45.29636" lon="5.85073">
        <ele>1043.4389648438</ele>
        <time>2017-10-28T07:39:42Z</time>
      </trkpt>
      <trkpt lat="45.29639" lon="5.85081">
        <ele>1042.4389648438</ele>
        <time>2017-10-28T07:39:45Z</time>
      </trkpt>
      <trkpt lat="45.29646" lon="5.85077">
        <ele>1039.4389648438</ele>
        <time>2017-10-28T07:39:48Z</time>
      </trkpt>
      <trkpt lat="45.2965" lon="5.85078">
        <ele>1040.4389648438</ele>
        <time>2017-10-28T07:39:52Z</time>
      </trkpt>
      <trkpt lat="45.29654" lon="5.85085">
        <ele>1043.4389648438</ele>
        <time>2017-10-28T07:39:58Z</time>
      </trkpt>
      <trkpt lat="45.29652" lon="5.85091">
        <ele>1047.4389648438</ele>
        <time>2017-10-28T07:40:04Z</time>
      </trkpt>
      <trkpt lat="45.29648" lon="5.85096">
        <ele>1048.4389648438</ele>
        <time>2017-10-28T07:40:09Z</time>
      </trkpt>
      <trkpt lat="45.29643" lon="5.85098">
        <ele>1045.4389648438</ele>
        <time>2017-10-28T07:40:14Z</time>
      </trkpt>
      <trkpt lat="45.29637" lon="5.85101">
        <ele>1044.4389648438</ele>
        <time>2017-10-28T07:40:18Z</time>
      </trkpt>
      <trkpt lat="45.29631" lon="5.85104">
        <ele>1044.4389648438</ele>
        <time>2017-10-28T07:40:20Z</time>
      </trkpt>
      <trkpt lat="45.29625" lon="5.85108">
        <ele>1045.4389648438</ele>
        <time>2017-10-28T07:40:22Z</time>
      </trkpt>
      <trkpt lat="45.29618" lon="5.8511">
        <ele>1044.4389648438</ele>
        <time>2017-10-28T07:40:25Z</time>
      </trkpt>
      <trkpt lat="45.29611" lon="5.8511">
        <ele>1045.4389648438</ele>
        <time>2017-10-28T07:40:28Z</time>
      </trkpt>
      <trkpt lat="45.29607" lon="5.85111">
        <ele>1044.4389648438</ele>
        <time>2017-10-28T07:40:31Z</time>
      </trkpt>
      <trkpt lat="45.296" lon="5.85111">
        <ele>1041.4389648438</ele>
        <time>2017-10-28T07:40:35Z</time>
      </trkpt>
      <trkpt lat="45.29594" lon="5.85112">
        <ele>1040.4389648438</ele>
        <time>2017-10-28T07:40:37Z</time>
      </trkpt>
      <trkpt lat="45.29588" lon="5.85111">
        <ele>1041.4389648438</ele>
        <time>2017-10-28T07:40:39Z</time>
      </trkpt>
      <trkpt lat="45.29583" lon="5.85117">
        <ele>1039.4389648438</ele>
        <time>2017-10-28T07:40:41Z</time>
      </trkpt>
      <trkpt lat="45.29578" lon="5.85121">
        <ele>1038.4389648438</ele>
        <time>2017-10-28T07:40:43Z</time>
      </trkpt>
      <trkpt lat="45.29573" lon="5.85127">
        <ele>1039.4389648438</ele>
        <time>2017-10-28T07:40:45Z</time>
      </trkpt>
      <trkpt lat="45.29568" lon="5.85131">
        <ele>1040.4389648438</ele>
        <time>2017-10-28T07:40:49Z</time>
      </trkpt>
      <trkpt lat="45.29564" lon="5.85139">
        <ele>1041.4389648438</ele>
        <time>2017-10-28T07:40:52Z</time>
      </trkpt>
      <trkpt lat="45.2956" lon="5.85144">
        <ele>1044.4389648438</ele>
        <time>2017-10-28T07:40:54Z</time>
      </trkpt>
      <trkpt lat="45.29556" lon="5.85149">
        <ele>1045.4389648438</ele>
        <time>2017-10-28T07:40:58Z</time>
      </trkpt>
      <trkpt lat="45.29552" lon="5.85153">
        <ele>1045.4389648438</ele>
        <time>2017-10-28T07:41:01Z</time>
      </trkpt>
      <trkpt lat="45.29547" lon="5.85155">
        <ele>1043.4389648438</ele>
        <time>2017-10-28T07:41:06Z</time>
      </trkpt>
      <trkpt lat="45.29543" lon="5.8516">
        <ele>1042.4389648438</ele>
        <time>2017-10-28T07:41:10Z</time>
      </trkpt>
      <trkpt lat="45.2954" lon="5.85166">
        <ele>1042.4389648438</ele>
        <time>2017-10-28T07:41:13Z</time>
      </trkpt>
      <trkpt lat="45.29538" lon="5.85171">
        <ele>1039.4389648438</ele>
        <time>2017-10-28T07:41:16Z</time>
      </trkpt>
      <trkpt lat="45.29532" lon="5.85174">
        <ele>1042.4389648438</ele>
        <time>2017-10-28T07:41:20Z</time>
      </trkpt>
      <trkpt lat="45.29526" lon="5.85177">
        <ele>1042.4389648438</ele>
        <time>2017-10-28T07:41:26Z</time>
      </trkpt>
      <trkpt lat="45.29521" lon="5.85183">
        <ele>1043.4389648438</ele>
        <time>2017-10-28T07:41:28Z</time>
      </trkpt>
      <trkpt lat="45.29516" lon="5.85188">
        <ele>1041.4389648438</ele>
        <time>2017-10-28T07:41:31Z</time>
      </trkpt>
      <trkpt lat="45.2951" lon="5.85191">
        <ele>1042.4389648438</ele>
        <time>2017-10-28T07:41:35Z</time>
      </trkpt>
      <trkpt lat="45.29506" lon="5.85196">
        <ele>1039.4389648438</ele>
        <time>2017-10-28T07:41:39Z</time>
      </trkpt>
      <trkpt lat="45.29502" lon="5.85202">
        <ele>1039.4389648438</ele>
        <time>2017-10-28T07:41:43Z</time>
      </trkpt>
      <trkpt lat="45.29498" lon="5.85205">
        <ele>1040.4389648438</ele>
        <time>2017-10-28T07:41:46Z</time>
      </trkpt>
      <trkpt lat="45.29493" lon="5.85207">
        <ele>1045.4389648438</ele>
        <time>2017-10-28T07:41:48Z</time>
      </trkpt>
      <trkpt lat="45.29487" lon="5.85208">
        <ele>1042.4389648438</ele>
        <time>2017-10-28T07:41:52Z</time>
      </trkpt>
      <trkpt lat="45.29481" lon="5.85213">
        <ele>1044.4389648438</ele>
        <time>2017-10-28T07:41:54Z</time>
      </trkpt>
      <trkpt lat="45.29476" lon="5.85218">
        <ele>1045.4389648438</ele>
        <time>2017-10-28T07:41:56Z</time>
      </trkpt>
      <trkpt lat="45.29471" lon="5.85225">
        <ele>1045.4389648438</ele>
        <time>2017-10-28T07:41:59Z</time>
      </trkpt>
      <trkpt lat="45.29467" lon="5.85232">
        <ele>1045.4389648438</ele>
        <time>2017-10-28T07:42:01Z</time>
      </trkpt>
      <trkpt lat="45.29468" lon="5.8524">
        <ele>1044.4389648438</ele>
        <time>2017-10-28T07:42:02Z</time>
      </trkpt>
      <trkpt lat="45.29467" lon="5.85252">
        <ele>1044.4389648438</ele>
        <time>2017-10-28T07:42:04Z</time>
      </trkpt>
      <trkpt lat="45.29467" lon="5.8526">
        <ele>1045.4389648438</ele>
        <time>2017-10-28T07:42:06Z</time>
      </trkpt>
      <trkpt lat="45.29463" lon="5.85264">
        <ele>1045.4389648438</ele>
        <time>2017-10-28T07:42:08Z</time>
      </trkpt>
      <trkpt lat="45.29459" lon="5.85268">
        <ele>1043.4389648438</ele>
        <time>2017-10-28T07:42:11Z</time>
      </trkpt>
      <trkpt lat="45.29453" lon="5.85275">
        <ele>1041.4389648438</ele>
        <time>2017-10-28T07:42:14Z</time>
      </trkpt>
      <trkpt lat="45.29447" lon="5.85277">
        <ele>1041.4389648438</ele>
        <time>2017-10-28T07:42:17Z</time>
      </trkpt>
      <trkpt lat="45.29443" lon="5.85282">
        <ele>1041.4389648438</ele>
        <time>2017-10-28T07:42:20Z</time>
      </trkpt>
      <trkpt lat="45.29439" lon="5.85285">
        <ele>1042.4389648438</ele>
        <time>2017-10-28T07:42:23Z</time>
      </trkpt>
      <trkpt lat="45.29436" lon="5.85291">
        <ele>1041.4389648438</ele>
        <time>2017-10-28T07:42:26Z</time>
      </trkpt>
      <trkpt lat="45.29432" lon="5.85295">
        <ele>1041.4389648438</ele>
        <time>2017-10-28T07:42:29Z</time>
      </trkpt>
      <trkpt lat="45.29427" lon="5.85297">
        <ele>1041.4389648438</ele>
        <time>2017-10-28T07:42:32Z</time>
      </trkpt>
      <trkpt lat="45.29423" lon="5.85298">
        <ele>1042.4389648438</ele>
        <time>2017-10-28T07:42:35Z</time>
      </trkpt>
      <trkpt lat="45.29418" lon="5.853">
        <ele>1041.4389648438</ele>
        <time>2017-10-28T07:42:39Z</time>
      </trkpt>
      <trkpt lat="45.29414" lon="5.85303">
        <ele>1042.4389648438</ele>
        <time>2017-10-28T07:42:43Z</time>
      </trkpt>
      <trkpt lat="45.29409" lon="5.85305">
        <ele>1042.4389648438</ele>
        <time>2017-10-28T07:42:47Z</time>
      </trkpt>
      <trkpt lat="45.29405" lon="5.85309">
        <ele>1044.4389648438</ele>
        <time>2017-10-28T07:42:50Z</time>
      </trkpt>
      <trkpt lat="45.29402" lon="5.85315">
        <ele>1042.4389648438</ele>
        <time>2017-10-28T07:42:55Z</time>
      </trkpt>
      <trkpt lat="45.29398" lon="5.85321">
        <ele>1040.4389648438</ele>
        <time>2017-10-28T07:42:59Z</time>
      </trkpt>
      <trkpt lat="45.29395" lon="5.85326">
        <ele>1041.4389648438</ele>
        <time>2017-10-28T07:43:02Z</time>
      </trkpt>
      <trkpt lat="45.29391" lon="5.85332">
        <ele>1042.4389648438</ele>
        <time>2017-10-28T07:43:04Z</time>
      </trkpt>
      <trkpt lat="45.29388" lon="5.8534">
        <ele>1043.4389648438</ele>
        <time>2017-10-28T07:43:07Z</time>
      </trkpt>
      <trkpt lat="45.29386" lon="5.85348">
        <ele>1042.4389648438</ele>
        <time>2017-10-28T07:43:10Z</time>
      </trkpt>
      <trkpt lat="45.29385" lon="5.85355">
        <ele>1041.4389648438</ele>
        <time>2017-10-28T07:43:14Z</time>
      </trkpt>
      <trkpt lat="45.29383" lon="5.85366">
        <ele>1040.4389648438</ele>
        <time>2017-10-28T07:43:17Z</time>
      </trkpt>
      <trkpt lat="45.29383" lon="5.85377">
        <ele>1039.4389648438</ele>
        <time>2017-10-28T07:43:20Z</time>
      </trkpt>
      <trkpt lat="45.29382" lon="5.85392">
        <ele>1039.4389648438</ele>
        <time>2017-10-28T07:43:24Z</time>
      </trkpt>
      <trkpt lat="45.2938" lon="5.85399">
        <ele>1039.4389648438</ele>
        <time>2017-10-28T07:43:25Z</time>
      </trkpt>
      <trkpt lat="45.2938" lon="5.85407">
        <ele>1039.4389648438</ele>
        <time>2017-10-28T07:43:28Z</time>
      </trkpt>
      <trkpt lat="45.2938" lon="5.85413">
        <ele>1038.4389648438</ele>
        <time>2017-10-28T07:43:31Z</time>
      </trkpt>
      <trkpt lat="45.29379" lon="5.85424">
        <ele>1038.4389648438</ele>
        <time>2017-10-28T07:43:33Z</time>
      </trkpt>
      <trkpt lat="45.2938" lon="5.85433">
        <ele>1036.4389648438</ele>
        <time>2017-10-28T07:43:36Z</time>
      </trkpt>
      <trkpt lat="45.29381" lon="5.8544">
        <ele>1037.4389648438</ele>
        <time>2017-10-28T07:43:38Z</time>
      </trkpt>
      <trkpt lat="45.29382" lon="5.85447">
        <ele>1038.4389648438</ele>
        <time>2017-10-28T07:43:39Z</time>
      </trkpt>
      <trkpt lat="45.29382" lon="5.85454">
        <ele>1037.4389648438</ele>
        <time>2017-10-28T07:43:41Z</time>
      </trkpt>
      <trkpt lat="45.2938" lon="5.85469">
        <ele>1038.4389648438</ele>
        <time>2017-10-28T07:43:44Z</time>
      </trkpt>
      <trkpt lat="45.2938" lon="5.85477">
        <ele>1038.4389648438</ele>
        <time>2017-10-28T07:43:46Z</time>
      </trkpt>
      <trkpt lat="45.2938" lon="5.85487">
        <ele>1039.4389648438</ele>
        <time>2017-10-28T07:43:48Z</time>
      </trkpt>
      <trkpt lat="45.2938" lon="5.85495">
        <ele>1039.4389648438</ele>
        <time>2017-10-28T07:43:50Z</time>
      </trkpt>
      <trkpt lat="45.2938" lon="5.85503">
        <ele>1039.4389648438</ele>
        <time>2017-10-28T07:43:53Z</time>
      </trkpt>
      <trkpt lat="45.29382" lon="5.85511">
        <ele>1039.4389648438</ele>
        <time>2017-10-28T07:43:56Z</time>
      </trkpt>
      <trkpt lat="45.29382" lon="5.85519">
        <ele>1039.4389648438</ele>
        <time>2017-10-28T07:43:58Z</time>
      </trkpt>
      <trkpt lat="45.29381" lon="5.85526">
        <ele>1038.4389648438</ele>
        <time>2017-10-28T07:44:01Z</time>
      </trkpt>
      <trkpt lat="45.29379" lon="5.85532">
        <ele>1037.4389648438</ele>
        <time>2017-10-28T07:44:02Z</time>
      </trkpt>
      <trkpt lat="45.29381" lon="5.85539">
        <ele>1037.4389648438</ele>
        <time>2017-10-28T07:44:04Z</time>
      </trkpt>
      <trkpt lat="45.29382" lon="5.8555">
        <ele>1039.4389648438</ele>
        <time>2017-10-28T07:44:07Z</time>
      </trkpt>
      <trkpt lat="45.29382" lon="5.85557">
        <ele>1041.4389648438</ele>
        <time>2017-10-28T07:44:09Z</time>
      </trkpt>
      <trkpt lat="45.29381" lon="5.85568">
        <ele>1041.4389648438</ele>
        <time>2017-10-28T07:44:13Z</time>
      </trkpt>
      <trkpt lat="45.2938" lon="5.85575">
        <ele>1042.4389648438</ele>
        <time>2017-10-28T07:44:15Z</time>
      </trkpt>
      <trkpt lat="45.29381" lon="5.85584">
        <ele>1042.4389648438</ele>
        <time>2017-10-28T07:44:17Z</time>
      </trkpt>
      <trkpt lat="45.29379" lon="5.85592">
        <ele>1042.4389648438</ele>
        <time>2017-10-28T07:44:19Z</time>
      </trkpt>
      <trkpt lat="45.2938" lon="5.85599">
        <ele>1044.4389648438</ele>
        <time>2017-10-28T07:44:21Z</time>
      </trkpt>
      <trkpt lat="45.29376" lon="5.85605">
        <ele>1042.4389648438</ele>
        <time>2017-10-28T07:44:24Z</time>
      </trkpt>
      <trkpt lat="45.29374" lon="5.85614">
        <ele>1040.4389648438</ele>
        <time>2017-10-28T07:44:28Z</time>
      </trkpt>
      <trkpt lat="45.29373" lon="5.85623">
        <ele>1039.4389648438</ele>
        <time>2017-10-28T07:44:31Z</time>
      </trkpt>
      <trkpt lat="45.29373" lon="5.8563">
        <ele>1039.4389648438</ele>
        <time>2017-10-28T07:44:34Z</time>
      </trkpt>
      <trkpt lat="45.29374" lon="5.85637">
        <ele>1036.4389648438</ele>
        <time>2017-10-28T07:44:36Z</time>
      </trkpt>
      <trkpt lat="45.29373" lon="5.85643">
        <ele>1036.4389648438</ele>
        <time>2017-10-28T07:44:38Z</time>
      </trkpt>
      <trkpt lat="45.2937" lon="5.85656">
        <ele>1039.4389648438</ele>
        <time>2017-10-28T07:44:43Z</time>
      </trkpt>
      <trkpt lat="45.2937" lon="5.85663">
        <ele>1040.4389648438</ele>
        <time>2017-10-28T07:44:47Z</time>
      </trkpt>
      <trkpt lat="45.29366" lon="5.85669">
        <ele>1038.4389648438</ele>
        <time>2017-10-28T07:44:59Z</time>
      </trkpt>
      <trkpt lat="45.29367" lon="5.85678">
        <ele>1037.4389648438</ele>
        <time>2017-10-28T07:45:01Z</time>
      </trkpt>
      <trkpt lat="45.29367" lon="5.85686">
        <ele>1041.4389648438</ele>
        <time>2017-10-28T07:45:04Z</time>
      </trkpt>
      <trkpt lat="45.29363" lon="5.85694">
        <ele>1039.4389648438</ele>
        <time>2017-10-28T07:45:07Z</time>
      </trkpt>
      <trkpt lat="45.29359" lon="5.85699">
        <ele>1040.4389648438</ele>
        <time>2017-10-28T07:45:09Z</time>
      </trkpt>
      <trkpt lat="45.29355" lon="5.85706">
        <ele>1038.4389648438</ele>
        <time>2017-10-28T07:45:11Z</time>
      </trkpt>
      <trkpt lat="45.29353" lon="5.85715">
        <ele>1037.4389648438</ele>
        <time>2017-10-28T07:45:13Z</time>
      </trkpt>
      <trkpt lat="45.29352" lon="5.85722">
        <ele>1036.4389648438</ele>
        <time>2017-10-28T07:45:15Z</time>
      </trkpt>
      <trkpt lat="45.29353" lon="5.85732">
        <ele>1036.4389648438</ele>
        <time>2017-10-28T07:45:17Z</time>
      </trkpt>
      <trkpt lat="45.29353" lon="5.8574">
        <ele>1036.4389648438</ele>
        <time>2017-10-28T07:45:19Z</time>
      </trkpt>
      <trkpt lat="45.29351" lon="5.85749">
        <ele>1037.4389648438</ele>
        <time>2017-10-28T07:45:22Z</time>
      </trkpt>
      <trkpt lat="45.2935" lon="5.85756">
        <ele>1037.4389648438</ele>
        <time>2017-10-28T07:45:24Z</time>
      </trkpt>
      <trkpt lat="45.29353" lon="5.85765">
        <ele>1036.4389648438</ele>
        <time>2017-10-28T07:45:27Z</time>
      </trkpt>
      <trkpt lat="45.29352" lon="5.85773">
        <ele>1035.4389648438</ele>
        <time>2017-10-28T07:45:29Z</time>
      </trkpt>
      <trkpt lat="45.29352" lon="5.85783">
        <ele>1037.4389648438</ele>
        <time>2017-10-28T07:45:31Z</time>
      </trkpt>
      <trkpt lat="45.2935" lon="5.85789">
        <ele>1036.4389648438</ele>
        <time>2017-10-28T07:45:33Z</time>
      </trkpt>
      <trkpt lat="45.29348" lon="5.85796">
        <ele>1036.4389648438</ele>
        <time>2017-10-28T07:45:35Z</time>
      </trkpt>
      <trkpt lat="45.29347" lon="5.85805">
        <ele>1034.4389648438</ele>
        <time>2017-10-28T07:45:38Z</time>
      </trkpt>
      <trkpt lat="45.29344" lon="5.85812">
        <ele>1034.4389648438</ele>
        <time>2017-10-28T07:45:40Z</time>
      </trkpt>
      <trkpt lat="45.29343" lon="5.85819">
        <ele>1034.4389648438</ele>
        <time>2017-10-28T07:45:42Z</time>
      </trkpt>
      <trkpt lat="45.2934" lon="5.85828">
        <ele>1035.4399414062</ele>
        <time>2017-10-28T07:45:44Z</time>
      </trkpt>
      <trkpt lat="45.29339" lon="5.85836">
        <ele>1036.4399414062</ele>
        <time>2017-10-28T07:45:47Z</time>
      </trkpt>
      <trkpt lat="45.29336" lon="5.85843">
        <ele>1038.4399414062</ele>
        <time>2017-10-28T07:45:49Z</time>
      </trkpt>
      <trkpt lat="45.29335" lon="5.85849">
        <ele>1039.4399414062</ele>
        <time>2017-10-28T07:45:51Z</time>
      </trkpt>
      <trkpt lat="45.29333" lon="5.85857">
        <ele>1041.4399414062</ele>
        <time>2017-10-28T07:45:53Z</time>
      </trkpt>
      <trkpt lat="45.29335" lon="5.85865">
        <ele>1037.4399414062</ele>
        <time>2017-10-28T07:45:58Z</time>
      </trkpt>
      <trkpt lat="45.29332" lon="5.85871">
        <ele>1038.4399414062</ele>
        <time>2017-10-28T07:46:00Z</time>
      </trkpt>
      <trkpt lat="45.29328" lon="5.85876">
        <ele>1035.4399414062</ele>
        <time>2017-10-28T07:46:04Z</time>
      </trkpt>
      <trkpt lat="45.29323" lon="5.85877">
        <ele>1034.4399414062</ele>
        <time>2017-10-28T07:46:08Z</time>
      </trkpt>
      <trkpt lat="45.29318" lon="5.85879">
        <ele>1033.4399414062</ele>
        <time>2017-10-28T07:46:11Z</time>
      </trkpt>
      <trkpt lat="45.29312" lon="5.85878">
        <ele>1031.4399414062</ele>
        <time>2017-10-28T07:46:14Z</time>
      </trkpt>
      <trkpt lat="45.29307" lon="5.85879">
        <ele>1031.4399414062</ele>
        <time>2017-10-28T07:46:16Z</time>
      </trkpt>
      <trkpt lat="45.29301" lon="5.8588">
        <ele>1030.4389648438</ele>
        <time>2017-10-28T07:46:19Z</time>
      </trkpt>
      <trkpt lat="45.29297" lon="5.85882">
        <ele>1029.4389648438</ele>
        <time>2017-10-28T07:46:21Z</time>
      </trkpt>
      <trkpt lat="45.29292" lon="5.85884">
        <ele>1028.4389648438</ele>
        <time>2017-10-28T07:46:24Z</time>
      </trkpt>
      <trkpt lat="45.29289" lon="5.85879">
        <ele>1025.4389648438</ele>
        <time>2017-10-28T07:46:32Z</time>
      </trkpt>
      <trkpt lat="45.29283" lon="5.85882">
        <ele>1024.4389648438</ele>
        <time>2017-10-28T07:46:36Z</time>
      </trkpt>
      <trkpt lat="45.29277" lon="5.85883">
        <ele>1022.4390258789</ele>
        <time>2017-10-28T07:46:39Z</time>
      </trkpt>
      <trkpt lat="45.2927" lon="5.85886">
        <ele>1021.4390258789</ele>
        <time>2017-10-28T07:46:42Z</time>
      </trkpt>
      <trkpt lat="45.29265" lon="5.8589">
        <ele>1020.4390258789</ele>
        <time>2017-10-28T07:46:44Z</time>
      </trkpt>
      <trkpt lat="45.29259" lon="5.85891">
        <ele>1017.4390258789</ele>
        <time>2017-10-28T07:46:47Z</time>
      </trkpt>
      <trkpt lat="45.29252" lon="5.85895">
        <ele>1017.4390258789</ele>
        <time>2017-10-28T07:46:49Z</time>
      </trkpt>
      <trkpt lat="45.29247" lon="5.85895">
        <ele>1013.4390258789</ele>
        <time>2017-10-28T07:46:51Z</time>
      </trkpt>
      <trkpt lat="45.29241" lon="5.85896">
        <ele>1009.4390258789</ele>
        <time>2017-10-28T07:46:55Z</time>
      </trkpt>
      <trkpt lat="45.29237" lon="5.859">
        <ele>1008.4390258789</ele>
        <time>2017-10-28T07:46:58Z</time>
      </trkpt>
      <trkpt lat="45.2923" lon="5.85906">
        <ele>1008.4390258789</ele>
        <time>2017-10-28T07:47:00Z</time>
      </trkpt>
      <trkpt lat="45.29225" lon="5.85908">
        <ele>1008.4390258789</ele>
        <time>2017-10-28T07:47:02Z</time>
      </trkpt>
      <trkpt lat="45.29219" lon="5.85914">
        <ele>1006.4390258789</ele>
        <time>2017-10-28T07:47:04Z</time>
      </trkpt>
      <trkpt lat="45.29214" lon="5.85919">
        <ele>1004.4390258789</ele>
        <time>2017-10-28T07:47:06Z</time>
      </trkpt>
      <trkpt lat="45.2921" lon="5.85924">
        <ele>1005.4390258789</ele>
        <time>2017-10-28T07:47:07Z</time>
      </trkpt>
      <trkpt lat="45.29205" lon="5.85931">
        <ele>1003.4390258789</ele>
        <time>2017-10-28T07:47:10Z</time>
      </trkpt>
      <trkpt lat="45.292" lon="5.85937">
        <ele>1001.4390258789</ele>
        <time>2017-10-28T07:47:13Z</time>
      </trkpt>
      <trkpt lat="45.29197" lon="5.85942">
        <ele>1000.4390258789</ele>
        <time>2017-10-28T07:47:15Z</time>
      </trkpt>
      <trkpt lat="45.2919" lon="5.85944">
        <ele>999.43902587891</ele>
        <time>2017-10-28T07:47:17Z</time>
      </trkpt>
      <trkpt lat="45.29187" lon="5.85949">
        <ele>997.43902587891</ele>
        <time>2017-10-28T07:47:19Z</time>
      </trkpt>
      <trkpt lat="45.29186" lon="5.85956">
        <ele>996.43902587891</ele>
        <time>2017-10-28T07:47:22Z</time>
      </trkpt>
      <trkpt lat="45.29185" lon="5.85965">
        <ele>994.43902587891</ele>
        <time>2017-10-28T07:47:25Z</time>
      </trkpt>
      <trkpt lat="45.29184" lon="5.85971">
        <ele>995.43902587891</ele>
        <time>2017-10-28T07:47:26Z</time>
      </trkpt>
      <trkpt lat="45.29183" lon="5.85979">
        <ele>996.43902587891</ele>
        <time>2017-10-28T07:47:28Z</time>
      </trkpt>
      <trkpt lat="45.29186" lon="5.85987">
        <ele>997.43902587891</ele>
        <time>2017-10-28T07:47:30Z</time>
      </trkpt>
      <trkpt lat="45.29187" lon="5.85994">
        <ele>996.43902587891</ele>
        <time>2017-10-28T07:47:32Z</time>
      </trkpt>
      <trkpt lat="45.29188" lon="5.86">
        <ele>995.43902587891</ele>
        <time>2017-10-28T07:47:34Z</time>
      </trkpt>
      <trkpt lat="45.2919" lon="5.86009">
        <ele>995.43902587891</ele>
        <time>2017-10-28T07:47:37Z</time>
      </trkpt>
      <trkpt lat="45.29188" lon="5.86015">
        <ele>996.43902587891</ele>
        <time>2017-10-28T07:47:39Z</time>
      </trkpt>
      <trkpt lat="45.29181" lon="5.86018">
        <ele>995.43902587891</ele>
        <time>2017-10-28T07:47:41Z</time>
      </trkpt>
      <trkpt lat="45.29176" lon="5.86019">
        <ele>995.43902587891</ele>
        <time>2017-10-28T07:47:44Z</time>
      </trkpt>
      <trkpt lat="45.29172" lon="5.86022">
        <ele>993.43902587891</ele>
        <time>2017-10-28T07:47:47Z</time>
      </trkpt>
      <trkpt lat="45.29165" lon="5.86022">
        <ele>991.43902587891</ele>
        <time>2017-10-28T07:47:50Z</time>
      </trkpt>
      <trkpt lat="45.2916" lon="5.86022">
        <ele>991.43902587891</ele>
        <time>2017-10-28T07:47:53Z</time>
      </trkpt>
      <trkpt lat="45.29156" lon="5.86024">
        <ele>992.43902587891</ele>
        <time>2017-10-28T07:47:55Z</time>
      </trkpt>
      <trkpt lat="45.29149" lon="5.86027">
        <ele>991.43902587891</ele>
        <time>2017-10-28T07:47:57Z</time>
      </trkpt>
      <trkpt lat="45.29144" lon="5.86029">
        <ele>992.43902587891</ele>
        <time>2017-10-28T07:47:59Z</time>
      </trkpt>
      <trkpt lat="45.29139" lon="5.86027">
        <ele>990.43902587891</ele>
        <time>2017-10-28T07:48:01Z</time>
      </trkpt>
      <trkpt lat="45.29135" lon="5.86029">
        <ele>990.43902587891</ele>
        <time>2017-10-28T07:48:03Z</time>
      </trkpt>
      <trkpt lat="45.29128" lon="5.86031">
        <ele>988.43902587891</ele>
        <time>2017-10-28T07:48:06Z</time>
      </trkpt>
      <trkpt lat="45.29123" lon="5.86034">
        <ele>989.43902587891</ele>
        <time>2017-10-28T07:48:08Z</time>
      </trkpt>
      <trkpt lat="45.29118" lon="5.86036">
        <ele>990.43902587891</ele>
        <time>2017-10-28T07:48:11Z</time>
      </trkpt>
      <trkpt lat="45.29113" lon="5.86031">
        <ele>991.43902587891</ele>
        <time>2017-10-28T07:48:23Z</time>
      </trkpt>
      <trkpt lat="45.29108" lon="5.86026">
        <ele>991.43902587891</ele>
        <time>2017-10-28T07:48:26Z</time>
      </trkpt>
      <trkpt lat="45.29097" lon="5.86021">
        <ele>992.43902587891</ele>
        <time>2017-10-28T07:48:31Z</time>
      </trkpt>
      <trkpt lat="45.29093" lon="5.86018">
        <ele>991.43902587891</ele>
        <time>2017-10-28T07:48:34Z</time>
      </trkpt>
      <trkpt lat="45.2909" lon="5.86013">
        <ele>991.43902587891</ele>
        <time>2017-10-28T07:48:36Z</time>
      </trkpt>
      <trkpt lat="45.29081" lon="5.86008">
        <ele>993.43902587891</ele>
        <time>2017-10-28T07:48:39Z</time>
      </trkpt>
      <trkpt lat="45.29074" lon="5.86007">
        <ele>991.43902587891</ele>
        <time>2017-10-28T07:48:41Z</time>
      </trkpt>
      <trkpt lat="45.29066" lon="5.86007">
        <ele>993.43902587891</ele>
        <time>2017-10-28T07:48:44Z</time>
      </trkpt>
      <trkpt lat="45.2906" lon="5.86006">
        <ele>993.43902587891</ele>
        <time>2017-10-28T07:48:47Z</time>
      </trkpt>
      <trkpt lat="45.29049" lon="5.86003">
        <ele>990.43902587891</ele>
        <time>2017-10-28T07:48:50Z</time>
      </trkpt>
      <trkpt lat="45.29044" lon="5.85999">
        <ele>990.43902587891</ele>
        <time>2017-10-28T07:48:52Z</time>
      </trkpt>
      <trkpt lat="45.29039" lon="5.85999">
        <ele>991.43902587891</ele>
        <time>2017-10-28T07:48:55Z</time>
      </trkpt>
      <trkpt lat="45.29033" lon="5.85997">
        <ele>991.43902587891</ele>
        <time>2017-10-28T07:48:58Z</time>
      </trkpt>
      <trkpt lat="45.29028" lon="5.85999">
        <ele>991.43902587891</ele>
        <time>2017-10-28T07:49:01Z</time>
      </trkpt>
      <trkpt lat="45.29023" lon="5.85998">
        <ele>990.43902587891</ele>
        <time>2017-10-28T07:49:05Z</time>
      </trkpt>
      <trkpt lat="45.29019" lon="5.85996">
        <ele>991.43902587891</ele>
        <time>2017-10-28T07:49:09Z</time>
      </trkpt>
      <trkpt lat="45.29013" lon="5.85994">
        <ele>989.43902587891</ele>
        <time>2017-10-28T07:49:12Z</time>
      </trkpt>
      <trkpt lat="45.29005" lon="5.85994">
        <ele>990.43902587891</ele>
        <time>2017-10-28T07:49:15Z</time>
      </trkpt>
      <trkpt lat="45.28998" lon="5.85995">
        <ele>988.43902587891</ele>
        <time>2017-10-28T07:49:17Z</time>
      </trkpt>
      <trkpt lat="45.28993" lon="5.85995">
        <ele>986.43902587891</ele>
        <time>2017-10-28T07:49:19Z</time>
      </trkpt>
      <trkpt lat="45.28987" lon="5.85995">
        <ele>984.43902587891</ele>
        <time>2017-10-28T07:49:21Z</time>
      </trkpt>
      <trkpt lat="45.28981" lon="5.85994">
        <ele>981.43902587891</ele>
        <time>2017-10-28T07:49:23Z</time>
      </trkpt>
      <trkpt lat="45.28976" lon="5.85994">
        <ele>979.43902587891</ele>
        <time>2017-10-28T07:49:25Z</time>
      </trkpt>
      <trkpt lat="45.28971" lon="5.85995">
        <ele>979.43902587891</ele>
        <time>2017-10-28T07:49:27Z</time>
      </trkpt>
      <trkpt lat="45.28965" lon="5.85996">
        <ele>979.43902587891</ele>
        <time>2017-10-28T07:49:29Z</time>
      </trkpt>
      <trkpt lat="45.28959" lon="5.85993">
        <ele>977.43902587891</ele>
        <time>2017-10-28T07:49:32Z</time>
      </trkpt>
      <trkpt lat="45.28953" lon="5.85993">
        <ele>976.43902587891</ele>
        <time>2017-10-28T07:49:35Z</time>
      </trkpt>
      <trkpt lat="45.28948" lon="5.85991">
        <ele>977.43902587891</ele>
        <time>2017-10-28T07:49:37Z</time>
      </trkpt>
      <trkpt lat="45.28943" lon="5.8599">
        <ele>974.43902587891</ele>
        <time>2017-10-28T07:49:40Z</time>
      </trkpt>
      <trkpt lat="45.28937" lon="5.85989">
        <ele>974.43902587891</ele>
        <time>2017-10-28T07:49:43Z</time>
      </trkpt>
      <trkpt lat="45.28931" lon="5.8599">
        <ele>975.43902587891</ele>
        <time>2017-10-28T07:49:47Z</time>
      </trkpt>
      <trkpt lat="45.28926" lon="5.85989">
        <ele>974.43902587891</ele>
        <time>2017-10-28T07:49:50Z</time>
      </trkpt>
      <trkpt lat="45.28921" lon="5.85988">
        <ele>976.43902587891</ele>
        <time>2017-10-28T07:49:54Z</time>
      </trkpt>
      <trkpt lat="45.28915" lon="5.85988">
        <ele>976.43902587891</ele>
        <time>2017-10-28T07:49:58Z</time>
      </trkpt>
      <trkpt lat="45.2891" lon="5.85987">
        <ele>977.43902587891</ele>
        <time>2017-10-28T07:50:01Z</time>
      </trkpt>
      <trkpt lat="45.28905" lon="5.85986">
        <ele>976.43902587891</ele>
        <time>2017-10-28T07:50:06Z</time>
      </trkpt>
      <trkpt lat="45.289" lon="5.85983">
        <ele>969.43902587891</ele>
        <time>2017-10-28T07:50:11Z</time>
      </trkpt>
      <trkpt lat="45.28894" lon="5.85981">
        <ele>968.43902587891</ele>
        <time>2017-10-28T07:50:17Z</time>
      </trkpt>
      <trkpt lat="45.28891" lon="5.85975">
        <ele>972.43902587891</ele>
        <time>2017-10-28T07:50:19Z</time>
      </trkpt>
      <trkpt lat="45.28887" lon="5.85971">
        <ele>974.43902587891</ele>
        <time>2017-10-28T07:50:23Z</time>
      </trkpt>
      <trkpt lat="45.28882" lon="5.85971">
        <ele>975.43902587891</ele>
        <time>2017-10-28T07:50:27Z</time>
      </trkpt>
      <trkpt lat="45.28877" lon="5.85967">
        <ele>973.43902587891</ele>
        <time>2017-10-28T07:50:31Z</time>
      </trkpt>
      <trkpt lat="45.28871" lon="5.85967">
        <ele>975.43902587891</ele>
        <time>2017-10-28T07:50:33Z</time>
      </trkpt>
      <trkpt lat="45.28864" lon="5.85965">
        <ele>974.43902587891</ele>
        <time>2017-10-28T07:50:37Z</time>
      </trkpt>
      <trkpt lat="45.2886" lon="5.85961">
        <ele>977.43902587891</ele>
        <time>2017-10-28T07:50:42Z</time>
      </trkpt>
      <trkpt lat="45.28856" lon="5.85956">
        <ele>975.43902587891</ele>
        <time>2017-10-28T07:50:46Z</time>
      </trkpt>
      <trkpt lat="45.28851" lon="5.85957">
        <ele>975.43902587891</ele>
        <time>2017-10-28T07:50:50Z</time>
      </trkpt>
      <trkpt lat="45.28846" lon="5.85956">
        <ele>976.43902587891</ele>
        <time>2017-10-28T07:50:53Z</time>
      </trkpt>
      <trkpt lat="45.2884" lon="5.85954">
        <ele>975.43902587891</ele>
        <time>2017-10-28T07:50:57Z</time>
      </trkpt>
      <trkpt lat="45.28836" lon="5.85951">
        <ele>973.43902587891</ele>
        <time>2017-10-28T07:51:00Z</time>
      </trkpt>
      <trkpt lat="45.2883" lon="5.85953">
        <ele>971.43902587891</ele>
        <time>2017-10-28T07:51:04Z</time>
      </trkpt>
      <trkpt lat="45.28826" lon="5.85948">
        <ele>973.43902587891</ele>
        <time>2017-10-28T07:51:08Z</time>
      </trkpt>
      <trkpt lat="45.28822" lon="5.85946">
        <ele>972.43902587891</ele>
        <time>2017-10-28T07:51:12Z</time>
      </trkpt>
      <trkpt lat="45.28817" lon="5.85943">
        <ele>973.43902587891</ele>
        <time>2017-10-28T07:51:16Z</time>
      </trkpt>
      <trkpt lat="45.28812" lon="5.85942">
        <ele>974.43902587891</ele>
        <time>2017-10-28T07:51:23Z</time>
      </trkpt>
      <trkpt lat="45.28806" lon="5.85941">
        <ele>974.43902587891</ele>
        <time>2017-10-28T07:51:29Z</time>
      </trkpt>
      <trkpt lat="45.28802" lon="5.85939">
        <ele>973.43902587891</ele>
        <time>2017-10-28T07:51:31Z</time>
      </trkpt>
      <trkpt lat="45.28796" lon="5.85934">
        <ele>976.43902587891</ele>
        <time>2017-10-28T07:51:33Z</time>
      </trkpt>
      <trkpt lat="45.28786" lon="5.85927">
        <ele>981.43798828125</ele>
        <time>2017-10-28T07:51:37Z</time>
      </trkpt>
      <trkpt lat="45.28778" lon="5.85924">
        <ele>981.43798828125</ele>
        <time>2017-10-28T07:51:41Z</time>
      </trkpt>
      <trkpt lat="45.28772" lon="5.85923">
        <ele>981.43798828125</ele>
        <time>2017-10-28T07:51:43Z</time>
      </trkpt>
      <trkpt lat="45.28768" lon="5.85922">
        <ele>983.43798828125</ele>
        <time>2017-10-28T07:51:45Z</time>
      </trkpt>
      <trkpt lat="45.28762" lon="5.85919">
        <ele>982.43798828125</ele>
        <time>2017-10-28T07:51:47Z</time>
      </trkpt>
      <trkpt lat="45.28758" lon="5.85916">
        <ele>983.43798828125</ele>
        <time>2017-10-28T07:51:50Z</time>
      </trkpt>
      <trkpt lat="45.28754" lon="5.85913">
        <ele>981.43798828125</ele>
        <time>2017-10-28T07:51:53Z</time>
      </trkpt>
      <trkpt lat="45.28748" lon="5.85912">
        <ele>982.43798828125</ele>
        <time>2017-10-28T07:51:56Z</time>
      </trkpt>
      <trkpt lat="45.28743" lon="5.85911">
        <ele>983.43798828125</ele>
        <time>2017-10-28T07:51:59Z</time>
      </trkpt>
      <trkpt lat="45.28737" lon="5.85912">
        <ele>985.43798828125</ele>
        <time>2017-10-28T07:52:02Z</time>
      </trkpt>
      <trkpt lat="45.28731" lon="5.85911">
        <ele>986.43798828125</ele>
        <time>2017-10-28T07:52:05Z</time>
      </trkpt>
      <trkpt lat="45.28726" lon="5.85912">
        <ele>986.43798828125</ele>
        <time>2017-10-28T07:52:08Z</time>
      </trkpt>
      <trkpt lat="45.28722" lon="5.85912">
        <ele>988.43798828125</ele>
        <time>2017-10-28T07:52:11Z</time>
      </trkpt>
      <trkpt lat="45.28716" lon="5.85913">
        <ele>989.43798828125</ele>
        <time>2017-10-28T07:52:15Z</time>
      </trkpt>
      <trkpt lat="45.28712" lon="5.85912">
        <ele>989.43798828125</ele>
        <time>2017-10-28T07:52:18Z</time>
      </trkpt>
      <trkpt lat="45.28706" lon="5.85912">
        <ele>988.43798828125</ele>
        <time>2017-10-28T07:52:22Z</time>
      </trkpt>
      <trkpt lat="45.28701" lon="5.85911">
        <ele>988.43798828125</ele>
        <time>2017-10-28T07:52:26Z</time>
      </trkpt>
      <trkpt lat="45.28696" lon="5.85913">
        <ele>986.43798828125</ele>
        <time>2017-10-28T07:52:30Z</time>
      </trkpt>
      <trkpt lat="45.28689" lon="5.85913">
        <ele>987.43798828125</ele>
        <time>2017-10-28T07:52:34Z</time>
      </trkpt>
      <trkpt lat="45.28683" lon="5.85915">
        <ele>985.43798828125</ele>
        <time>2017-10-28T07:52:38Z</time>
      </trkpt>
      <trkpt lat="45.28678" lon="5.85914">
        <ele>984.43798828125</ele>
        <time>2017-10-28T07:52:41Z</time>
      </trkpt>
      <trkpt lat="45.28674" lon="5.85916">
        <ele>982.43798828125</ele>
        <time>2017-10-28T07:52:42Z</time>
      </trkpt>
      <trkpt lat="45.28669" lon="5.85916">
        <ele>983.43798828125</ele>
        <time>2017-10-28T07:52:47Z</time>
      </trkpt>
      <trkpt lat="45.28662" lon="5.85913">
        <ele>983.43798828125</ele>
        <time>2017-10-28T07:52:51Z</time>
      </trkpt>
      <trkpt lat="45.28658" lon="5.85915">
        <ele>982.43798828125</ele>
        <time>2017-10-28T07:52:55Z</time>
      </trkpt>
      <trkpt lat="45.28653" lon="5.85916">
        <ele>980.43798828125</ele>
        <time>2017-10-28T07:52:58Z</time>
      </trkpt>
      <trkpt lat="45.28648" lon="5.85918">
        <ele>980.43798828125</ele>
        <time>2017-10-28T07:53:01Z</time>
      </trkpt>
      <trkpt lat="45.28644" lon="5.85913">
        <ele>977.43798828125</ele>
        <time>2017-10-28T07:53:06Z</time>
      </trkpt>
      <trkpt lat="45.2864" lon="5.85915">
        <ele>975.43798828125</ele>
        <time>2017-10-28T07:53:09Z</time>
      </trkpt>
      <trkpt lat="45.28633" lon="5.85917">
        <ele>976.43798828125</ele>
        <time>2017-10-28T07:53:13Z</time>
      </trkpt>
      <trkpt lat="45.28629" lon="5.85919">
        <ele>975.43798828125</ele>
        <time>2017-10-28T07:53:16Z</time>
      </trkpt>
      <trkpt lat="45.28623" lon="5.85914">
        <ele>973.43798828125</ele>
        <time>2017-10-28T07:53:26Z</time>
      </trkpt>
      <trkpt lat="45.28616" lon="5.85914">
        <ele>971.43798828125</ele>
        <time>2017-10-28T07:53:30Z</time>
      </trkpt>
      <trkpt lat="45.28612" lon="5.85913">
        <ele>970.43798828125</ele>
        <time>2017-10-28T07:53:34Z</time>
      </trkpt>
      <trkpt lat="45.28608" lon="5.85915">
        <ele>968.43798828125</ele>
        <time>2017-10-28T07:53:49Z</time>
      </trkpt>
      <trkpt lat="45.28604" lon="5.8592">
        <ele>966.43798828125</ele>
        <time>2017-10-28T07:53:58Z</time>
      </trkpt>
      <trkpt lat="45.28601" lon="5.85926">
        <ele>965.43798828125</ele>
        <time>2017-10-28T07:54:02Z</time>
      </trkpt>
      <trkpt lat="45.28597" lon="5.8593">
        <ele>964.43798828125</ele>
        <time>2017-10-28T07:54:04Z</time>
      </trkpt>
      <trkpt lat="45.28594" lon="5.85935">
        <ele>961.43798828125</ele>
        <time>2017-10-28T07:54:08Z</time>
      </trkpt>
      <trkpt lat="45.28589" lon="5.85933">
        <ele>962.43798828125</ele>
        <time>2017-10-28T07:54:19Z</time>
      </trkpt>
      <trkpt lat="45.28584" lon="5.85931">
        <ele>961.43798828125</ele>
        <time>2017-10-28T07:54:22Z</time>
      </trkpt>
      <trkpt lat="45.2858" lon="5.85926">
        <ele>960.43798828125</ele>
        <time>2017-10-28T07:54:25Z</time>
      </trkpt>
      <trkpt lat="45.28575" lon="5.85921">
        <ele>958.43798828125</ele>
        <time>2017-10-28T07:54:28Z</time>
      </trkpt>
      <trkpt lat="45.2857" lon="5.8592">
        <ele>959.43798828125</ele>
        <time>2017-10-28T07:54:31Z</time>
      </trkpt>
      <trkpt lat="45.28564" lon="5.85918">
        <ele>956.43798828125</ele>
        <time>2017-10-28T07:54:35Z</time>
      </trkpt>
      <trkpt lat="45.2856" lon="5.85915">
        <ele>954.43798828125</ele>
        <time>2017-10-28T07:54:39Z</time>
      </trkpt>
      <trkpt lat="45.28555" lon="5.85912">
        <ele>954.43798828125</ele>
        <time>2017-10-28T07:54:43Z</time>
      </trkpt>
      <trkpt lat="45.2855" lon="5.85907">
        <ele>951.43798828125</ele>
        <time>2017-10-28T07:54:47Z</time>
      </trkpt>
      <trkpt lat="45.28547" lon="5.85903">
        <ele>951.43798828125</ele>
        <time>2017-10-28T07:54:50Z</time>
      </trkpt>
      <trkpt lat="45.28544" lon="5.85897">
        <ele>951.43798828125</ele>
        <time>2017-10-28T07:54:53Z</time>
      </trkpt>
      <trkpt lat="45.28539" lon="5.85893">
        <ele>951.43798828125</ele>
        <time>2017-10-28T07:54:57Z</time>
      </trkpt>
      <trkpt lat="45.28536" lon="5.85888">
        <ele>950.43798828125</ele>
        <time>2017-10-28T07:55:01Z</time>
      </trkpt>
      <trkpt lat="45.28533" lon="5.85882">
        <ele>946.43798828125</ele>
        <time>2017-10-28T07:55:06Z</time>
      </trkpt>
      <trkpt lat="45.28529" lon="5.85876">
        <ele>945.43798828125</ele>
        <time>2017-10-28T07:55:10Z</time>
      </trkpt>
      <trkpt lat="45.28526" lon="5.8587">
        <ele>944.43798828125</ele>
        <time>2017-10-28T07:55:13Z</time>
      </trkpt>
      <trkpt lat="45.28523" lon="5.85864">
        <ele>942.43798828125</ele>
        <time>2017-10-28T07:55:17Z</time>
      </trkpt>
      <trkpt lat="45.2852" lon="5.85857">
        <ele>941.43798828125</ele>
        <time>2017-10-28T07:55:21Z</time>
      </trkpt>
      <trkpt lat="45.28517" lon="5.85849">
        <ele>941.43798828125</ele>
        <time>2017-10-28T07:55:26Z</time>
      </trkpt>
      <trkpt lat="45.28516" lon="5.85843">
        <ele>940.43798828125</ele>
        <time>2017-10-28T07:55:29Z</time>
      </trkpt>
      <trkpt lat="45.28514" lon="5.85837">
        <ele>938.43798828125</ele>
        <time>2017-10-28T07:55:32Z</time>
      </trkpt>
      <trkpt lat="45.28511" lon="5.85831">
        <ele>939.43798828125</ele>
        <time>2017-10-28T07:55:35Z</time>
      </trkpt>
      <trkpt lat="45.28508" lon="5.85825">
        <ele>935.43798828125</ele>
        <time>2017-10-28T07:55:38Z</time>
      </trkpt>
      <trkpt lat="45.28504" lon="5.85818">
        <ele>933.43798828125</ele>
        <time>2017-10-28T07:55:41Z</time>
      </trkpt>
      <trkpt lat="45.285" lon="5.85812">
        <ele>928.43798828125</ele>
        <time>2017-10-28T07:55:45Z</time>
      </trkpt>
      <trkpt lat="45.28496" lon="5.85809">
        <ele>924.43798828125</ele>
        <time>2017-10-28T07:55:49Z</time>
      </trkpt>
      <trkpt lat="45.28492" lon="5.85805">
        <ele>923.43798828125</ele>
        <time>2017-10-28T07:55:53Z</time>
      </trkpt>
      <trkpt lat="45.28489" lon="5.85799">
        <ele>922.43798828125</ele>
        <time>2017-10-28T07:55:56Z</time>
      </trkpt>
      <trkpt lat="45.28486" lon="5.85794">
        <ele>922.43798828125</ele>
        <time>2017-10-28T07:55:59Z</time>
      </trkpt>
      <trkpt lat="45.28484" lon="5.85788">
        <ele>917.43798828125</ele>
        <time>2017-10-28T07:56:03Z</time>
      </trkpt>
      <trkpt lat="45.28481" lon="5.85782">
        <ele>916.43798828125</ele>
        <time>2017-10-28T07:56:07Z</time>
      </trkpt>
      <trkpt lat="45.28479" lon="5.85775">
        <ele>916.43798828125</ele>
        <time>2017-10-28T07:56:10Z</time>
      </trkpt>
      <trkpt lat="45.28476" lon="5.8577">
        <ele>915.43798828125</ele>
        <time>2017-10-28T07:56:12Z</time>
      </trkpt>
      <trkpt lat="45.28472" lon="5.85763">
        <ele>915.43798828125</ele>
        <time>2017-10-28T07:56:15Z</time>
      </trkpt>
      <trkpt lat="45.28467" lon="5.85757">
        <ele>914.43798828125</ele>
        <time>2017-10-28T07:56:18Z</time>
      </trkpt>
      <trkpt lat="45.28464" lon="5.8575">
        <ele>913.43798828125</ele>
        <time>2017-10-28T07:56:22Z</time>
      </trkpt>
      <trkpt lat="45.28461" lon="5.85745">
        <ele>931.43798828125</ele>
        <time>2017-10-28T07:56:26Z</time>
      </trkpt>
      <trkpt lat="45.28461" lon="5.85738">
        <ele>916.43798828125</ele>
        <time>2017-10-28T07:56:30Z</time>
      </trkpt>
      <trkpt lat="45.28459" lon="5.8573">
        <ele>908.43798828125</ele>
        <time>2017-10-28T07:56:35Z</time>
      </trkpt>
      <trkpt lat="45.28456" lon="5.85725">
        <ele>907.43798828125</ele>
        <time>2017-10-28T07:56:37Z</time>
      </trkpt>
      <trkpt lat="45.2845" lon="5.85723">
        <ele>904.43798828125</ele>
        <time>2017-10-28T07:56:41Z</time>
      </trkpt>
      <trkpt lat="45.28445" lon="5.85727">
        <ele>903.43798828125</ele>
        <time>2017-10-28T07:56:47Z</time>
      </trkpt>
      <trkpt lat="45.28442" lon="5.85731">
        <ele>896.43798828125</ele>
        <time>2017-10-28T07:56:55Z</time>
      </trkpt>
      <trkpt lat="45.28437" lon="5.85738">
        <ele>893.43798828125</ele>
        <time>2017-10-28T07:57:05Z</time>
      </trkpt>
      <trkpt lat="45.28433" lon="5.85743">
        <ele>895.43798828125</ele>
        <time>2017-10-28T07:57:08Z</time>
      </trkpt>
      <trkpt lat="45.28428" lon="5.85748">
        <ele>897.43798828125</ele>
        <time>2017-10-28T07:57:13Z</time>
      </trkpt>
      <trkpt lat="45.28424" lon="5.85756">
        <ele>896.43798828125</ele>
        <time>2017-10-28T07:57:20Z</time>
      </trkpt>
      <trkpt lat="45.28422" lon="5.85765">
        <ele>894.43798828125</ele>
        <time>2017-10-28T07:57:25Z</time>
      </trkpt>
      <trkpt lat="45.28422" lon="5.85774">
        <ele>893.43798828125</ele>
        <time>2017-10-28T07:57:27Z</time>
      </trkpt>
      <trkpt lat="45.28422" lon="5.85782">
        <ele>892.43798828125</ele>
        <time>2017-10-28T07:57:29Z</time>
      </trkpt>
      <trkpt lat="45.28423" lon="5.85789">
        <ele>891.43798828125</ele>
        <time>2017-10-28T07:57:34Z</time>
      </trkpt>
      <trkpt lat="45.28422" lon="5.85796">
        <ele>892.43798828125</ele>
        <time>2017-10-28T07:57:38Z</time>
      </trkpt>
      <trkpt lat="45.28426" lon="5.85799">
        <ele>889.43798828125</ele>
        <time>2017-10-28T07:57:52Z</time>
      </trkpt>
      <trkpt lat="45.28425" lon="5.85806">
        <ele>890.43798828125</ele>
        <time>2017-10-28T07:57:54Z</time>
      </trkpt>
      <trkpt lat="45.28425" lon="5.85816">
        <ele>889.43798828125</ele>
        <time>2017-10-28T07:58:32Z</time>
      </trkpt>
      <trkpt lat="45.28423" lon="5.85822">
        <ele>889.43798828125</ele>
        <time>2017-10-28T07:58:34Z</time>
      </trkpt>
      <trkpt lat="45.2842" lon="5.85828">
        <ele>889.43798828125</ele>
        <time>2017-10-28T07:58:39Z</time>
      </trkpt>
      <trkpt lat="45.28415" lon="5.85833">
        <ele>891.43798828125</ele>
        <time>2017-10-28T07:58:41Z</time>
      </trkpt>
      <trkpt lat="45.2842" lon="5.85839">
        <ele>888.43798828125</ele>
        <time>2017-10-28T07:58:42Z</time>
      </trkpt>
      <trkpt lat="45.28423" lon="5.85847">
        <ele>885.43798828125</ele>
        <time>2017-10-28T07:58:43Z</time>
      </trkpt>
      <trkpt lat="45.28422" lon="5.85857">
        <ele>885.43798828125</ele>
        <time>2017-10-28T07:58:45Z</time>
      </trkpt>
      <trkpt lat="45.28425" lon="5.85867">
        <ele>884.43798828125</ele>
        <time>2017-10-28T07:58:48Z</time>
      </trkpt>
      <trkpt lat="45.28424" lon="5.85873">
        <ele>882.43798828125</ele>
        <time>2017-10-28T07:58:50Z</time>
      </trkpt>
      <trkpt lat="45.28424" lon="5.85881">
        <ele>881.43798828125</ele>
        <time>2017-10-28T07:58:52Z</time>
      </trkpt>
      <trkpt lat="45.28422" lon="5.85889">
        <ele>881.43798828125</ele>
        <time>2017-10-28T07:58:54Z</time>
      </trkpt>
      <trkpt lat="45.28423" lon="5.85899">
        <ele>880.43798828125</ele>
        <time>2017-10-28T07:58:56Z</time>
      </trkpt>
      <trkpt lat="45.28422" lon="5.85909">
        <ele>880.43798828125</ele>
        <time>2017-10-28T07:58:59Z</time>
      </trkpt>
      <trkpt lat="45.28421" lon="5.85916">
        <ele>883.43798828125</ele>
        <time>2017-10-28T07:59:01Z</time>
      </trkpt>
      <trkpt lat="45.28422" lon="5.85924">
        <ele>882.43798828125</ele>
        <time>2017-10-28T07:59:04Z</time>
      </trkpt>
      <trkpt lat="45.28424" lon="5.85931">
        <ele>881.43798828125</ele>
        <time>2017-10-28T07:59:06Z</time>
      </trkpt>
      <trkpt lat="45.28427" lon="5.85941">
        <ele>881.43798828125</ele>
        <time>2017-10-28T07:59:09Z</time>
      </trkpt>
      <trkpt lat="45.28428" lon="5.85948">
        <ele>880.43798828125</ele>
        <time>2017-10-28T07:59:11Z</time>
      </trkpt>
      <trkpt lat="45.28429" lon="5.85956">
        <ele>880.43798828125</ele>
        <time>2017-10-28T07:59:13Z</time>
      </trkpt>
      <trkpt lat="45.28429" lon="5.85968">
        <ele>882.43798828125</ele>
        <time>2017-10-28T07:59:16Z</time>
      </trkpt>
      <trkpt lat="45.28431" lon="5.85975">
        <ele>882.43798828125</ele>
        <time>2017-10-28T07:59:19Z</time>
      </trkpt>
      <trkpt lat="45.28431" lon="5.85986">
        <ele>882.43798828125</ele>
        <time>2017-10-28T07:59:22Z</time>
      </trkpt>
      <trkpt lat="45.28433" lon="5.85995">
        <ele>880.43798828125</ele>
        <time>2017-10-28T07:59:25Z</time>
      </trkpt>
      <trkpt lat="45.28432" lon="5.86002">
        <ele>879.43798828125</ele>
        <time>2017-10-28T07:59:27Z</time>
      </trkpt>
      <trkpt lat="45.28433" lon="5.86008">
        <ele>879.43798828125</ele>
        <time>2017-10-28T07:59:30Z</time>
      </trkpt>
      <trkpt lat="45.28435" lon="5.86016">
        <ele>878.43798828125</ele>
        <time>2017-10-28T07:59:32Z</time>
      </trkpt>
      <trkpt lat="45.28437" lon="5.86023">
        <ele>878.43798828125</ele>
        <time>2017-10-28T07:59:34Z</time>
      </trkpt>
      <trkpt lat="45.28435" lon="5.86031">
        <ele>875.43798828125</ele>
        <time>2017-10-28T07:59:37Z</time>
      </trkpt>
      <trkpt lat="45.28433" lon="5.8604">
        <ele>875.43798828125</ele>
        <time>2017-10-28T07:59:39Z</time>
      </trkpt>
      <trkpt lat="45.28432" lon="5.86048">
        <ele>874.43798828125</ele>
        <time>2017-10-28T07:59:41Z</time>
      </trkpt>
      <trkpt lat="45.28431" lon="5.86056">
        <ele>873.43798828125</ele>
        <time>2017-10-28T07:59:43Z</time>
      </trkpt>
      <trkpt lat="45.28427" lon="5.8605">
        <ele>870.43798828125</ele>
        <time>2017-10-28T07:59:50Z</time>
      </trkpt>
      <trkpt lat="45.28426" lon="5.8604">
        <ele>869.43798828125</ele>
        <time>2017-10-28T07:59:53Z</time>
      </trkpt>
      <trkpt lat="45.28428" lon="5.8603">
        <ele>867.43798828125</ele>
        <time>2017-10-28T07:59:56Z</time>
      </trkpt>
      <trkpt lat="45.28426" lon="5.86021">
        <ele>865.43798828125</ele>
        <time>2017-10-28T07:59:58Z</time>
      </trkpt>
      <trkpt lat="45.28424" lon="5.86011">
        <ele>864.43798828125</ele>
        <time>2017-10-28T08:00:00Z</time>
      </trkpt>
      <trkpt lat="45.28423" lon="5.86002">
        <ele>864.43798828125</ele>
        <time>2017-10-28T08:00:02Z</time>
      </trkpt>
      <trkpt lat="45.28423" lon="5.85987">
        <ele>862.43798828125</ele>
        <time>2017-10-28T08:00:08Z</time>
      </trkpt>
      <trkpt lat="45.2842" lon="5.85981">
        <ele>861.43798828125</ele>
        <time>2017-10-28T08:00:10Z</time>
      </trkpt>
      <trkpt lat="45.28418" lon="5.85973">
        <ele>858.43798828125</ele>
        <time>2017-10-28T08:00:13Z</time>
      </trkpt>
      <trkpt lat="45.28415" lon="5.85967">
        <ele>854.43798828125</ele>
        <time>2017-10-28T08:00:16Z</time>
      </trkpt>
      <trkpt lat="45.28411" lon="5.85959">
        <ele>853.43798828125</ele>
        <time>2017-10-28T08:00:19Z</time>
      </trkpt>
      <trkpt lat="45.28406" lon="5.85958">
        <ele>855.43798828125</ele>
        <time>2017-10-28T08:00:21Z</time>
      </trkpt>
      <trkpt lat="45.284" lon="5.85959">
        <ele>855.43798828125</ele>
        <time>2017-10-28T08:00:24Z</time>
      </trkpt>
      <trkpt lat="45.284" lon="5.85966">
        <ele>856.43798828125</ele>
        <time>2017-10-28T08:00:26Z</time>
      </trkpt>
      <trkpt lat="45.28399" lon="5.85974">
        <ele>856.43798828125</ele>
        <time>2017-10-28T08:00:28Z</time>
      </trkpt>
      <trkpt lat="45.28399" lon="5.85982">
        <ele>856.43798828125</ele>
        <time>2017-10-28T08:00:32Z</time>
      </trkpt>
      <trkpt lat="45.28394" lon="5.8598">
        <ele>853.43798828125</ele>
        <time>2017-10-28T08:00:38Z</time>
      </trkpt>
      <trkpt lat="45.28392" lon="5.85972">
        <ele>850.43798828125</ele>
        <time>2017-10-28T08:00:41Z</time>
      </trkpt>
      <trkpt lat="45.2839" lon="5.85965">
        <ele>846.43798828125</ele>
        <time>2017-10-28T08:00:46Z</time>
      </trkpt>
      <trkpt lat="45.28387" lon="5.85958">
        <ele>845.43798828125</ele>
        <time>2017-10-28T08:00:51Z</time>
      </trkpt>
      <trkpt lat="45.28387" lon="5.8595">
        <ele>842.43798828125</ele>
        <time>2017-10-28T08:00:55Z</time>
      </trkpt>
      <trkpt lat="45.28385" lon="5.85944">
        <ele>840.43798828125</ele>
        <time>2017-10-28T08:00:59Z</time>
      </trkpt>
      <trkpt lat="45.28384" lon="5.85938">
        <ele>839.43798828125</ele>
        <time>2017-10-28T08:01:02Z</time>
      </trkpt>
      <trkpt lat="45.28382" lon="5.85931">
        <ele>838.43798828125</ele>
        <time>2017-10-28T08:01:05Z</time>
      </trkpt>
      <trkpt lat="45.28381" lon="5.85924">
        <ele>838.43798828125</ele>
        <time>2017-10-28T08:01:10Z</time>
      </trkpt>
      <trkpt lat="45.2838" lon="5.85918">
        <ele>835.43798828125</ele>
        <time>2017-10-28T08:01:14Z</time>
      </trkpt>
      <trkpt lat="45.28377" lon="5.85911">
        <ele>835.43798828125</ele>
        <time>2017-10-28T08:01:18Z</time>
      </trkpt>
      <trkpt lat="45.28376" lon="5.85905">
        <ele>834.43798828125</ele>
        <time>2017-10-28T08:01:22Z</time>
      </trkpt>
      <trkpt lat="45.28376" lon="5.85897">
        <ele>833.43798828125</ele>
        <time>2017-10-28T08:01:26Z</time>
      </trkpt>
      <trkpt lat="45.28378" lon="5.8589">
        <ele>832.43798828125</ele>
        <time>2017-10-28T08:01:30Z</time>
      </trkpt>
      <trkpt lat="45.28378" lon="5.85882">
        <ele>830.43798828125</ele>
        <time>2017-10-28T08:01:35Z</time>
      </trkpt>
      <trkpt lat="45.28379" lon="5.85875">
        <ele>829.43798828125</ele>
        <time>2017-10-28T08:01:39Z</time>
      </trkpt>
      <trkpt lat="45.2838" lon="5.85868">
        <ele>829.43798828125</ele>
        <time>2017-10-28T08:01:42Z</time>
      </trkpt>
      <trkpt lat="45.28384" lon="5.85863">
        <ele>827.43798828125</ele>
        <time>2017-10-28T08:01:46Z</time>
      </trkpt>
      <trkpt lat="45.28386" lon="5.85856">
        <ele>827.43798828125</ele>
        <time>2017-10-28T08:01:51Z</time>
      </trkpt>
      <trkpt lat="45.2839" lon="5.8585">
        <ele>826.43798828125</ele>
        <time>2017-10-28T08:01:56Z</time>
      </trkpt>
      <trkpt lat="45.2839" lon="5.85843">
        <ele>825.43798828125</ele>
        <time>2017-10-28T08:02:00Z</time>
      </trkpt>
      <trkpt lat="45.28392" lon="5.85833">
        <ele>824.43798828125</ele>
        <time>2017-10-28T08:02:04Z</time>
      </trkpt>
      <trkpt lat="45.28393" lon="5.85826">
        <ele>824.43798828125</ele>
        <time>2017-10-28T08:02:09Z</time>
      </trkpt>
      <trkpt lat="45.28396" lon="5.8582">
        <ele>824.43798828125</ele>
        <time>2017-10-28T08:02:12Z</time>
      </trkpt>
      <trkpt lat="45.28397" lon="5.85812">
        <ele>823.43798828125</ele>
        <time>2017-10-28T08:02:16Z</time>
      </trkpt>
      <trkpt lat="45.28397" lon="5.85806">
        <ele>822.43798828125</ele>
        <time>2017-10-28T08:02:21Z</time>
      </trkpt>
      <trkpt lat="45.28398" lon="5.85799">
        <ele>821.43798828125</ele>
        <time>2017-10-28T08:02:27Z</time>
      </trkpt>
      <trkpt lat="45.28399" lon="5.85791">
        <ele>820.43798828125</ele>
        <time>2017-10-28T08:02:31Z</time>
      </trkpt>
      <trkpt lat="45.28398" lon="5.85783">
        <ele>819.43701171875</ele>
        <time>2017-10-28T08:02:35Z</time>
      </trkpt>
      <trkpt lat="45.28398" lon="5.85774">
        <ele>818.43701171875</ele>
        <time>2017-10-28T08:02:39Z</time>
      </trkpt>
      <trkpt lat="45.28399" lon="5.85768">
        <ele>817.43701171875</ele>
        <time>2017-10-28T08:02:42Z</time>
      </trkpt>
      <trkpt lat="45.28401" lon="5.85761">
        <ele>816.43701171875</ele>
        <time>2017-10-28T08:02:45Z</time>
      </trkpt>
      <trkpt lat="45.284" lon="5.85752">
        <ele>814.43701171875</ele>
        <time>2017-10-28T08:02:50Z</time>
      </trkpt>
      <trkpt lat="45.28402" lon="5.85743">
        <ele>813.43701171875</ele>
        <time>2017-10-28T08:02:53Z</time>
      </trkpt>
      <trkpt lat="45.28402" lon="5.85736">
        <ele>813.43701171875</ele>
        <time>2017-10-28T08:02:56Z</time>
      </trkpt>
      <trkpt lat="45.28399" lon="5.85729">
        <ele>813.43701171875</ele>
        <time>2017-10-28T08:03:00Z</time>
      </trkpt>
      <trkpt lat="45.284" lon="5.85722">
        <ele>812.43701171875</ele>
        <time>2017-10-28T08:03:04Z</time>
      </trkpt>
      <trkpt lat="45.28397" lon="5.85715">
        <ele>810.43701171875</ele>
        <time>2017-10-28T08:03:08Z</time>
      </trkpt>
      <trkpt lat="45.28394" lon="5.85711">
        <ele>810.43701171875</ele>
        <time>2017-10-28T08:03:12Z</time>
      </trkpt>
      <trkpt lat="45.28398" lon="5.85707">
        <ele>808.43701171875</ele>
        <time>2017-10-28T08:03:18Z</time>
      </trkpt>
      <trkpt lat="45.28399" lon="5.857">
        <ele>809.43701171875</ele>
        <time>2017-10-28T08:03:21Z</time>
      </trkpt>
      <trkpt lat="45.28402" lon="5.85695">
        <ele>807.43701171875</ele>
        <time>2017-10-28T08:03:23Z</time>
      </trkpt>
      <trkpt lat="45.28403" lon="5.85688">
        <ele>809.43701171875</ele>
        <time>2017-10-28T08:03:26Z</time>
      </trkpt>
      <trkpt lat="45.284" lon="5.85681">
        <ele>808.43701171875</ele>
        <time>2017-10-28T08:03:29Z</time>
      </trkpt>
      <trkpt lat="45.28395" lon="5.85678">
        <ele>808.43701171875</ele>
        <time>2017-10-28T08:03:32Z</time>
      </trkpt>
      <trkpt lat="45.28393" lon="5.85685">
        <ele>805.43701171875</ele>
        <time>2017-10-28T08:03:35Z</time>
      </trkpt>
      <trkpt lat="45.28392" lon="5.85691">
        <ele>802.43701171875</ele>
        <time>2017-10-28T08:03:37Z</time>
      </trkpt>
      <trkpt lat="45.28391" lon="5.857">
        <ele>800.43701171875</ele>
        <time>2017-10-28T08:03:40Z</time>
      </trkpt>
      <trkpt lat="45.28388" lon="5.85711">
        <ele>798.43701171875</ele>
        <time>2017-10-28T08:03:45Z</time>
      </trkpt>
      <trkpt lat="45.28388" lon="5.85719">
        <ele>797.43701171875</ele>
        <time>2017-10-28T08:03:47Z</time>
      </trkpt>
      <trkpt lat="45.28386" lon="5.85728">
        <ele>795.43701171875</ele>
        <time>2017-10-28T08:03:51Z</time>
      </trkpt>
      <trkpt lat="45.28385" lon="5.85735">
        <ele>792.43701171875</ele>
        <time>2017-10-28T08:03:55Z</time>
      </trkpt>
      <trkpt lat="45.28385" lon="5.85743">
        <ele>791.43701171875</ele>
        <time>2017-10-28T08:03:58Z</time>
      </trkpt>
      <trkpt lat="45.28385" lon="5.85755">
        <ele>787.43701171875</ele>
        <time>2017-10-28T08:04:01Z</time>
      </trkpt>
      <trkpt lat="45.28382" lon="5.85762">
        <ele>787.43701171875</ele>
        <time>2017-10-28T08:04:05Z</time>
      </trkpt>
      <trkpt lat="45.28377" lon="5.85766">
        <ele>786.43701171875</ele>
        <time>2017-10-28T08:04:08Z</time>
      </trkpt>
      <trkpt lat="45.28373" lon="5.85762">
        <ele>785.43701171875</ele>
        <time>2017-10-28T08:04:13Z</time>
      </trkpt>
      <trkpt lat="45.28373" lon="5.85753">
        <ele>784.43701171875</ele>
        <time>2017-10-28T08:04:20Z</time>
      </trkpt>
      <trkpt lat="45.28372" lon="5.85746">
        <ele>783.43701171875</ele>
        <time>2017-10-28T08:04:27Z</time>
      </trkpt>
      <trkpt lat="45.28369" lon="5.85737">
        <ele>782.43701171875</ele>
        <time>2017-10-28T08:04:30Z</time>
      </trkpt>
      <trkpt lat="45.28368" lon="5.85731">
        <ele>780.43701171875</ele>
        <time>2017-10-28T08:04:33Z</time>
      </trkpt>
      <trkpt lat="45.28366" lon="5.85724">
        <ele>779.43701171875</ele>
        <time>2017-10-28T08:04:37Z</time>
      </trkpt>
      <trkpt lat="45.28363" lon="5.85716">
        <ele>779.43701171875</ele>
        <time>2017-10-28T08:04:40Z</time>
      </trkpt>
      <trkpt lat="45.28361" lon="5.85709">
        <ele>777.43701171875</ele>
        <time>2017-10-28T08:04:43Z</time>
      </trkpt>
      <trkpt lat="45.28361" lon="5.85701">
        <ele>773.43701171875</ele>
        <time>2017-10-28T08:04:47Z</time>
      </trkpt>
      <trkpt lat="45.28361" lon="5.85692">
        <ele>771.43701171875</ele>
        <time>2017-10-28T08:04:51Z</time>
      </trkpt>
      <trkpt lat="45.28358" lon="5.85686">
        <ele>769.43701171875</ele>
        <time>2017-10-28T08:04:55Z</time>
      </trkpt>
      <trkpt lat="45.28357" lon="5.85679">
        <ele>767.43701171875</ele>
        <time>2017-10-28T08:05:02Z</time>
      </trkpt>
      <trkpt lat="45.28359" lon="5.85673">
        <ele>764.43701171875</ele>
        <time>2017-10-28T08:05:07Z</time>
      </trkpt>
      <trkpt lat="45.2836" lon="5.85664">
        <ele>762.43701171875</ele>
        <time>2017-10-28T08:05:11Z</time>
      </trkpt>
      <trkpt lat="45.28358" lon="5.85656">
        <ele>760.43701171875</ele>
        <time>2017-10-28T08:05:16Z</time>
      </trkpt>
      <trkpt lat="45.28355" lon="5.8565">
        <ele>760.43701171875</ele>
        <time>2017-10-28T08:05:20Z</time>
      </trkpt>
      <trkpt lat="45.28352" lon="5.85643">
        <ele>759.43701171875</ele>
        <time>2017-10-28T08:05:24Z</time>
      </trkpt>
      <trkpt lat="45.28351" lon="5.85636">
        <ele>759.43701171875</ele>
        <time>2017-10-28T08:05:27Z</time>
      </trkpt>
      <trkpt lat="45.28349" lon="5.85628">
        <ele>758.43701171875</ele>
        <time>2017-10-28T08:05:34Z</time>
      </trkpt>
      <trkpt lat="45.28349" lon="5.85621">
        <ele>759.43701171875</ele>
        <time>2017-10-28T08:05:39Z</time>
      </trkpt>
      <trkpt lat="45.28349" lon="5.85615">
        <ele>756.43701171875</ele>
        <time>2017-10-28T08:05:41Z</time>
      </trkpt>
      <trkpt lat="45.28349" lon="5.85606">
        <ele>756.43701171875</ele>
        <time>2017-10-28T08:05:45Z</time>
      </trkpt>
      <trkpt lat="45.28348" lon="5.85598">
        <ele>752.43701171875</ele>
        <time>2017-10-28T08:05:49Z</time>
      </trkpt>
      <trkpt lat="45.28348" lon="5.85591">
        <ele>751.43701171875</ele>
        <time>2017-10-28T08:05:55Z</time>
      </trkpt>
      <trkpt lat="45.28348" lon="5.85585">
        <ele>751.43701171875</ele>
        <time>2017-10-28T08:05:59Z</time>
      </trkpt>
      <trkpt lat="45.28349" lon="5.85577">
        <ele>749.43701171875</ele>
        <time>2017-10-28T08:06:05Z</time>
      </trkpt>
      <trkpt lat="45.2835" lon="5.85571">
        <ele>747.43701171875</ele>
        <time>2017-10-28T08:06:09Z</time>
      </trkpt>
      <trkpt lat="45.28352" lon="5.85565">
        <ele>746.43701171875</ele>
        <time>2017-10-28T08:06:15Z</time>
      </trkpt>
      <trkpt lat="45.28352" lon="5.85557">
        <ele>744.43701171875</ele>
        <time>2017-10-28T08:06:18Z</time>
      </trkpt>
      <trkpt lat="45.28351" lon="5.8555">
        <ele>745.43701171875</ele>
        <time>2017-10-28T08:06:20Z</time>
      </trkpt>
      <trkpt lat="45.28353" lon="5.85542">
        <ele>744.43701171875</ele>
        <time>2017-10-28T08:06:24Z</time>
      </trkpt>
      <trkpt lat="45.28354" lon="5.85535">
        <ele>744.43701171875</ele>
        <time>2017-10-28T08:06:28Z</time>
      </trkpt>
      <trkpt lat="45.28357" lon="5.85529">
        <ele>744.43701171875</ele>
        <time>2017-10-28T08:06:33Z</time>
      </trkpt>
      <trkpt lat="45.28359" lon="5.85522">
        <ele>745.43701171875</ele>
        <time>2017-10-28T08:06:36Z</time>
      </trkpt>
      <trkpt lat="45.28359" lon="5.85515">
        <ele>744.43701171875</ele>
        <time>2017-10-28T08:06:38Z</time>
      </trkpt>
      <trkpt lat="45.2836" lon="5.85507">
        <ele>743.43701171875</ele>
        <time>2017-10-28T08:06:40Z</time>
      </trkpt>
      <trkpt lat="45.28362" lon="5.85499">
        <ele>742.43701171875</ele>
        <time>2017-10-28T08:06:43Z</time>
      </trkpt>
      <trkpt lat="45.28365" lon="5.85493">
        <ele>740.43701171875</ele>
        <time>2017-10-28T08:06:46Z</time>
      </trkpt>
      <trkpt lat="45.28365" lon="5.85486">
        <ele>739.43701171875</ele>
        <time>2017-10-28T08:06:50Z</time>
      </trkpt>
      <trkpt lat="45.28365" lon="5.85477">
        <ele>738.43701171875</ele>
        <time>2017-10-28T08:06:57Z</time>
      </trkpt>
      <trkpt lat="45.28364" lon="5.85465">
        <ele>740.43701171875</ele>
        <time>2017-10-28T08:06:59Z</time>
      </trkpt>
      <trkpt lat="45.28364" lon="5.85458">
        <ele>738.43701171875</ele>
        <time>2017-10-28T08:07:02Z</time>
      </trkpt>
      <trkpt lat="45.28364" lon="5.85451">
        <ele>738.43701171875</ele>
        <time>2017-10-28T08:07:05Z</time>
      </trkpt>
      <trkpt lat="45.28364" lon="5.85443">
        <ele>739.43701171875</ele>
        <time>2017-10-28T08:07:08Z</time>
      </trkpt>
      <trkpt lat="45.28364" lon="5.85436">
        <ele>737.43701171875</ele>
        <time>2017-10-28T08:07:13Z</time>
      </trkpt>
      <trkpt lat="45.28364" lon="5.85428">
        <ele>736.43701171875</ele>
        <time>2017-10-28T08:07:16Z</time>
      </trkpt>
      <trkpt lat="45.28363" lon="5.8542">
        <ele>731.43701171875</ele>
        <time>2017-10-28T08:07:20Z</time>
      </trkpt>
      <trkpt lat="45.28362" lon="5.85414">
        <ele>729.43701171875</ele>
        <time>2017-10-28T08:07:24Z</time>
      </trkpt>
      <trkpt lat="45.28361" lon="5.85407">
        <ele>725.43701171875</ele>
        <time>2017-10-28T08:07:29Z</time>
      </trkpt>
      <trkpt lat="45.2836" lon="5.854">
        <ele>725.43701171875</ele>
        <time>2017-10-28T08:07:33Z</time>
      </trkpt>
      <trkpt lat="45.28361" lon="5.85392">
        <ele>723.43701171875</ele>
        <time>2017-10-28T08:07:39Z</time>
      </trkpt>
      <trkpt lat="45.28363" lon="5.85384">
        <ele>723.43701171875</ele>
        <time>2017-10-28T08:07:43Z</time>
      </trkpt>
      <trkpt lat="45.28365" lon="5.85377">
        <ele>723.43701171875</ele>
        <time>2017-10-28T08:07:47Z</time>
      </trkpt>
      <trkpt lat="45.28364" lon="5.85369">
        <ele>724.43701171875</ele>
        <time>2017-10-28T08:07:50Z</time>
      </trkpt>
      <trkpt lat="45.28363" lon="5.85359">
        <ele>722.43701171875</ele>
        <time>2017-10-28T08:07:55Z</time>
      </trkpt>
      <trkpt lat="45.28362" lon="5.85352">
        <ele>718.43701171875</ele>
        <time>2017-10-28T08:08:00Z</time>
      </trkpt>
      <trkpt lat="45.2836" lon="5.85346">
        <ele>712.43701171875</ele>
        <time>2017-10-28T08:08:06Z</time>
      </trkpt>
      <trkpt lat="45.28355" lon="5.85346">
        <ele>704.43701171875</ele>
        <time>2017-10-28T08:08:15Z</time>
      </trkpt>
      <trkpt lat="45.28351" lon="5.85349">
        <ele>704.43701171875</ele>
        <time>2017-10-28T08:08:19Z</time>
      </trkpt>
      <trkpt lat="45.28347" lon="5.85347">
        <ele>702.43701171875</ele>
        <time>2017-10-28T08:08:23Z</time>
      </trkpt>
      <trkpt lat="45.28341" lon="5.8535">
        <ele>694.43701171875</ele>
        <time>2017-10-28T08:08:30Z</time>
      </trkpt>
      <trkpt lat="45.28337" lon="5.85353">
        <ele>684.43701171875</ele>
        <time>2017-10-28T08:08:37Z</time>
      </trkpt>
      <trkpt lat="45.28333" lon="5.85356">
        <ele>683.43701171875</ele>
        <time>2017-10-28T08:08:41Z</time>
      </trkpt>
      <trkpt lat="45.28328" lon="5.85359">
        <ele>685.43701171875</ele>
        <time>2017-10-28T08:08:44Z</time>
      </trkpt>
      <trkpt lat="45.28326" lon="5.85365">
        <ele>684.43701171875</ele>
        <time>2017-10-28T08:08:47Z</time>
      </trkpt>
      <trkpt lat="45.28323" lon="5.8537">
        <ele>682.43701171875</ele>
        <time>2017-10-28T08:08:50Z</time>
      </trkpt>
      <trkpt lat="45.28321" lon="5.85376">
        <ele>680.43701171875</ele>
        <time>2017-10-28T08:08:53Z</time>
      </trkpt>
      <trkpt lat="45.28317" lon="5.85381">
        <ele>679.43701171875</ele>
        <time>2017-10-28T08:08:58Z</time>
      </trkpt>
      <trkpt lat="45.28315" lon="5.85388">
        <ele>677.43701171875</ele>
        <time>2017-10-28T08:09:02Z</time>
      </trkpt>
      <trkpt lat="45.28314" lon="5.85394">
        <ele>674.43701171875</ele>
        <time>2017-10-28T08:09:05Z</time>
      </trkpt>
      <trkpt lat="45.28311" lon="5.85399">
        <ele>675.43701171875</ele>
        <time>2017-10-28T08:09:09Z</time>
      </trkpt>
      <trkpt lat="45.28305" lon="5.85397">
        <ele>675.43701171875</ele>
        <time>2017-10-28T08:09:17Z</time>
      </trkpt>
      <trkpt lat="45.28302" lon="5.85392">
        <ele>673.43701171875</ele>
        <time>2017-10-28T08:09:23Z</time>
      </trkpt>
      <trkpt lat="45.283" lon="5.85384">
        <ele>670.43701171875</ele>
        <time>2017-10-28T08:09:30Z</time>
      </trkpt>
      <trkpt lat="45.28296" lon="5.85379">
        <ele>667.43701171875</ele>
        <time>2017-10-28T08:09:38Z</time>
      </trkpt>
      <trkpt lat="45.28293" lon="5.85372">
        <ele>665.43701171875</ele>
        <time>2017-10-28T08:09:46Z</time>
      </trkpt>
      <trkpt lat="45.28292" lon="5.85366">
        <ele>664.43701171875</ele>
        <time>2017-10-28T08:09:51Z</time>
      </trkpt>
      <trkpt lat="45.28292" lon="5.85357">
        <ele>664.43701171875</ele>
        <time>2017-10-28T08:09:54Z</time>
      </trkpt>
      <trkpt lat="45.28293" lon="5.85351">
        <ele>664.43701171875</ele>
        <time>2017-10-28T08:09:57Z</time>
      </trkpt>
      <trkpt lat="45.28295" lon="5.85345">
        <ele>663.43701171875</ele>
        <time>2017-10-28T08:10:00Z</time>
      </trkpt>
      <trkpt lat="45.28298" lon="5.85336">
        <ele>661.43701171875</ele>
        <time>2017-10-28T08:10:04Z</time>
      </trkpt>
      <trkpt lat="45.28301" lon="5.85328">
        <ele>661.43701171875</ele>
        <time>2017-10-28T08:10:08Z</time>
      </trkpt>
      <trkpt lat="45.28307" lon="5.85324">
        <ele>660.43701171875</ele>
        <time>2017-10-28T08:10:12Z</time>
      </trkpt>
      <trkpt lat="45.28312" lon="5.85321">
        <ele>660.43701171875</ele>
        <time>2017-10-28T08:10:15Z</time>
      </trkpt>
      <trkpt lat="45.28313" lon="5.85314">
        <ele>660.43701171875</ele>
        <time>2017-10-28T08:10:18Z</time>
      </trkpt>
      <trkpt lat="45.28313" lon="5.85306">
        <ele>661.43701171875</ele>
        <time>2017-10-28T08:10:21Z</time>
      </trkpt>
      <trkpt lat="45.28312" lon="5.853">
        <ele>657.43701171875</ele>
        <time>2017-10-28T08:10:26Z</time>
      </trkpt>
      <trkpt lat="45.28309" lon="5.85295">
        <ele>658.43701171875</ele>
        <time>2017-10-28T08:10:28Z</time>
      </trkpt>
      <trkpt lat="45.28306" lon="5.85288">
        <ele>656.43701171875</ele>
        <time>2017-10-28T08:10:32Z</time>
      </trkpt>
      <trkpt lat="45.28304" lon="5.85281">
        <ele>656.43701171875</ele>
        <time>2017-10-28T08:10:37Z</time>
      </trkpt>
      <trkpt lat="45.28302" lon="5.85275">
        <ele>652.43701171875</ele>
        <time>2017-10-28T08:10:41Z</time>
      </trkpt>
      <trkpt lat="45.28299" lon="5.85268">
        <ele>690.43701171875</ele>
        <time>2017-10-28T08:10:45Z</time>
      </trkpt>
      <trkpt lat="45.28296" lon="5.85263">
        <ele>667.43701171875</ele>
        <time>2017-10-28T08:10:48Z</time>
      </trkpt>
      <trkpt lat="45.28291" lon="5.85262">
        <ele>661.43701171875</ele>
        <time>2017-10-28T08:10:52Z</time>
      </trkpt>
      <trkpt lat="45.28287" lon="5.85257">
        <ele>652.43701171875</ele>
        <time>2017-10-28T08:10:57Z</time>
      </trkpt>
      <trkpt lat="45.28282" lon="5.85253">
        <ele>644.43701171875</ele>
        <time>2017-10-28T08:11:02Z</time>
      </trkpt>
      <trkpt lat="45.28282" lon="5.85259">
        <ele>635.43701171875</ele>
        <time>2017-10-28T08:11:13Z</time>
      </trkpt>
      <trkpt lat="45.28277" lon="5.85261">
        <ele>630.43701171875</ele>
        <time>2017-10-28T08:11:18Z</time>
      </trkpt>
      <trkpt lat="45.28273" lon="5.85258">
        <ele>626.43701171875</ele>
        <time>2017-10-28T08:11:25Z</time>
      </trkpt>
      <trkpt lat="45.28267" lon="5.85254">
        <ele>623.43701171875</ele>
        <time>2017-10-28T08:11:31Z</time>
      </trkpt>
      <trkpt lat="45.28265" lon="5.85248">
        <ele>621.43597412109</ele>
        <time>2017-10-28T08:11:36Z</time>
      </trkpt>
      <trkpt lat="45.28271" lon="5.85247">
        <ele>623.43597412109</ele>
        <time>2017-10-28T08:11:43Z</time>
      </trkpt>
      <trkpt lat="45.28276" lon="5.85247">
        <ele>621.43701171875</ele>
        <time>2017-10-28T08:11:46Z</time>
      </trkpt>
      <trkpt lat="45.28281" lon="5.85246">
        <ele>621.43701171875</ele>
        <time>2017-10-28T08:11:48Z</time>
      </trkpt>
      <trkpt lat="45.28286" lon="5.85244">
        <ele>799.43701171875</ele>
        <time>2017-10-28T08:11:52Z</time>
      </trkpt>
      <trkpt lat="45.28285" lon="5.85237">
        <ele>764.43701171875</ele>
        <time>2017-10-28T08:11:55Z</time>
      </trkpt>
      <trkpt lat="45.28285" lon="5.85229">
        <ele>726.43701171875</ele>
        <time>2017-10-28T08:11:59Z</time>
      </trkpt>
      <trkpt lat="45.28281" lon="5.85222">
        <ele>704.43597412109</ele>
        <time>2017-10-28T08:12:01Z</time>
      </trkpt>
      <trkpt lat="45.28276" lon="5.85217">
        <ele>658.43597412109</ele>
        <time>2017-10-28T08:12:06Z</time>
      </trkpt>
      <trkpt lat="45.2827" lon="5.85212">
        <ele>630.43597412109</ele>
        <time>2017-10-28T08:12:11Z</time>
      </trkpt>
      <trkpt lat="45.28265" lon="5.85214">
        <ele>622.43597412109</ele>
        <time>2017-10-28T08:12:18Z</time>
      </trkpt>
      <trkpt lat="45.2826" lon="5.85213">
        <ele>615.43597412109</ele>
        <time>2017-10-28T08:12:25Z</time>
      </trkpt>
      <trkpt lat="45.28258" lon="5.85208">
        <ele>613.43597412109</ele>
        <time>2017-10-28T08:12:33Z</time>
      </trkpt>
      <trkpt lat="45.28252" lon="5.85206">
        <ele>607.43597412109</ele>
        <time>2017-10-28T08:12:40Z</time>
      </trkpt>
      <trkpt lat="45.28247" lon="5.85205">
        <ele>599.43597412109</ele>
        <time>2017-10-28T08:12:47Z</time>
      </trkpt>
      <trkpt lat="45.28242" lon="5.85206">
        <ele>597.43597412109</ele>
        <time>2017-10-28T08:12:51Z</time>
      </trkpt>
      <trkpt lat="45.28238" lon="5.85211">
        <ele>594.43597412109</ele>
        <time>2017-10-28T08:12:56Z</time>
      </trkpt>
      <trkpt lat="45.28235" lon="5.85216">
        <ele>592.43597412109</ele>
        <time>2017-10-28T08:12:59Z</time>
      </trkpt>
      <trkpt lat="45.28237" lon="5.85224">
        <ele>591.43597412109</ele>
        <time>2017-10-28T08:13:02Z</time>
      </trkpt>
      <trkpt lat="45.28231" lon="5.85228">
        <ele>588.43597412109</ele>
        <time>2017-10-28T08:13:06Z</time>
      </trkpt>
      <trkpt lat="45.28226" lon="5.85226">
        <ele>589.43597412109</ele>
        <time>2017-10-28T08:13:11Z</time>
      </trkpt>
      <trkpt lat="45.28223" lon="5.85232">
        <ele>585.43597412109</ele>
        <time>2017-10-28T08:13:17Z</time>
      </trkpt>
      <trkpt lat="45.28225" lon="5.85238">
        <ele>584.43597412109</ele>
        <time>2017-10-28T08:13:23Z</time>
      </trkpt>
      <trkpt lat="45.28226" lon="5.85245">
        <ele>581.43597412109</ele>
        <time>2017-10-28T08:13:27Z</time>
      </trkpt>
      <trkpt lat="45.28226" lon="5.85256">
        <ele>580.43597412109</ele>
        <time>2017-10-28T08:13:34Z</time>
      </trkpt>
      <trkpt lat="45.28225" lon="5.85263">
        <ele>579.43597412109</ele>
        <time>2017-10-28T08:13:38Z</time>
      </trkpt>
      <trkpt lat="45.28222" lon="5.85269">
        <ele>580.43597412109</ele>
        <time>2017-10-28T08:13:42Z</time>
      </trkpt>
      <trkpt lat="45.28218" lon="5.85274">
        <ele>576.43597412109</ele>
        <time>2017-10-28T08:13:47Z</time>
      </trkpt>
      <trkpt lat="45.28215" lon="5.85279">
        <ele>572.43597412109</ele>
        <time>2017-10-28T08:13:51Z</time>
      </trkpt>
      <trkpt lat="45.28212" lon="5.85286">
        <ele>570.43597412109</ele>
        <time>2017-10-28T08:13:55Z</time>
      </trkpt>
      <trkpt lat="45.2821" lon="5.85293">
        <ele>570.43597412109</ele>
        <time>2017-10-28T08:13:58Z</time>
      </trkpt>
      <trkpt lat="45.28213" lon="5.853">
        <ele>566.43597412109</ele>
        <time>2017-10-28T08:14:01Z</time>
      </trkpt>
      <trkpt lat="45.28211" lon="5.85307">
        <ele>565.43597412109</ele>
        <time>2017-10-28T08:14:04Z</time>
      </trkpt>
      <trkpt lat="45.2821" lon="5.85316">
        <ele>566.43597412109</ele>
        <time>2017-10-28T08:14:07Z</time>
      </trkpt>
      <trkpt lat="45.28208" lon="5.85323">
        <ele>566.43597412109</ele>
        <time>2017-10-28T08:14:10Z</time>
      </trkpt>
      <trkpt lat="45.28207" lon="5.8533">
        <ele>566.43597412109</ele>
        <time>2017-10-28T08:14:13Z</time>
      </trkpt>
      <trkpt lat="45.28205" lon="5.85337">
        <ele>566.43597412109</ele>
        <time>2017-10-28T08:14:15Z</time>
      </trkpt>
      <trkpt lat="45.28205" lon="5.85346">
        <ele>567.43597412109</ele>
        <time>2017-10-28T08:14:18Z</time>
      </trkpt>
      <trkpt lat="45.28203" lon="5.85352">
        <ele>568.43701171875</ele>
        <time>2017-10-28T08:14:22Z</time>
      </trkpt>
      <trkpt lat="45.282" lon="5.85359">
        <ele>569.43701171875</ele>
        <time>2017-10-28T08:14:24Z</time>
      </trkpt>
      <trkpt lat="45.28199" lon="5.85367">
        <ele>569.43701171875</ele>
        <time>2017-10-28T08:14:27Z</time>
      </trkpt>
      <trkpt lat="45.28196" lon="5.85375">
        <ele>569.43701171875</ele>
        <time>2017-10-28T08:14:30Z</time>
      </trkpt>
      <trkpt lat="45.28196" lon="5.85382">
        <ele>568.43701171875</ele>
        <time>2017-10-28T08:14:32Z</time>
      </trkpt>
      <trkpt lat="45.28194" lon="5.85389">
        <ele>569.43701171875</ele>
        <time>2017-10-28T08:14:34Z</time>
      </trkpt>
      <trkpt lat="45.28195" lon="5.85398">
        <ele>567.43701171875</ele>
        <time>2017-10-28T08:14:37Z</time>
      </trkpt>
      <trkpt lat="45.28194" lon="5.85404">
        <ele>568.43701171875</ele>
        <time>2017-10-28T08:14:40Z</time>
      </trkpt>
      <trkpt lat="45.28193" lon="5.8541">
        <ele>568.43701171875</ele>
        <time>2017-10-28T08:14:43Z</time>
      </trkpt>
      <trkpt lat="45.28193" lon="5.85418">
        <ele>566.43701171875</ele>
        <time>2017-10-28T08:14:49Z</time>
      </trkpt>
      <trkpt lat="45.28192" lon="5.85425">
        <ele>564.43701171875</ele>
        <time>2017-10-28T08:14:53Z</time>
      </trkpt>
      <trkpt lat="45.28188" lon="5.85426">
        <ele>557.43701171875</ele>
        <time>2017-10-28T08:15:02Z</time>
      </trkpt>
      <trkpt lat="45.28183" lon="5.85429">
        <ele>556.43701171875</ele>
        <time>2017-10-28T08:15:06Z</time>
      </trkpt>
      <trkpt lat="45.28181" lon="5.85422">
        <ele>554.43701171875</ele>
        <time>2017-10-28T08:15:07Z</time>
      </trkpt>
      <trkpt lat="45.28179" lon="5.8543">
        <ele>553.43701171875</ele>
        <time>2017-10-28T08:15:09Z</time>
      </trkpt>
      <trkpt lat="45.28178" lon="5.85437">
        <ele>551.43701171875</ele>
        <time>2017-10-28T08:15:11Z</time>
      </trkpt>
      <trkpt lat="45.28177" lon="5.85445">
        <ele>546.43701171875</ele>
        <time>2017-10-28T08:15:14Z</time>
      </trkpt>
      <trkpt lat="45.28176" lon="5.85453">
        <ele>542.43701171875</ele>
        <time>2017-10-28T08:15:18Z</time>
      </trkpt>
      <trkpt lat="45.28174" lon="5.85461">
        <ele>539.43701171875</ele>
        <time>2017-10-28T08:15:22Z</time>
      </trkpt>
      <trkpt lat="45.28171" lon="5.85467">
        <ele>536.43701171875</ele>
        <time>2017-10-28T08:15:25Z</time>
      </trkpt>
      <trkpt lat="45.2817" lon="5.85473">
        <ele>535.43701171875</ele>
        <time>2017-10-28T08:15:28Z</time>
      </trkpt>
      <trkpt lat="45.28167" lon="5.85479">
        <ele>537.43701171875</ele>
        <time>2017-10-28T08:15:32Z</time>
      </trkpt>
      <trkpt lat="45.28167" lon="5.85486">
        <ele>535.43701171875</ele>
        <time>2017-10-28T08:15:36Z</time>
      </trkpt>
      <trkpt lat="45.28167" lon="5.85479">
        <ele>533.43701171875</ele>
        <time>2017-10-28T08:15:40Z</time>
      </trkpt>
      <trkpt lat="45.28165" lon="5.85472">
        <ele>547.43701171875</ele>
        <time>2017-10-28T08:15:45Z</time>
      </trkpt>
      <trkpt lat="45.28162" lon="5.85464">
        <ele>536.43701171875</ele>
        <time>2017-10-28T08:15:51Z</time>
      </trkpt>
      <trkpt lat="45.2816" lon="5.85471">
        <ele>528.43701171875</ele>
        <time>2017-10-28T08:15:58Z</time>
      </trkpt>
      <trkpt lat="45.2816" lon="5.85478">
        <ele>524.43701171875</ele>
        <time>2017-10-28T08:16:02Z</time>
      </trkpt>
      <trkpt lat="45.28163" lon="5.85485">
        <ele>520.43701171875</ele>
        <time>2017-10-28T08:16:06Z</time>
      </trkpt>
      <trkpt lat="45.2816" lon="5.8549">
        <ele>520.43701171875</ele>
        <time>2017-10-28T08:16:09Z</time>
      </trkpt>
      <trkpt lat="45.28156" lon="5.85497">
        <ele>522.43701171875</ele>
        <time>2017-10-28T08:16:13Z</time>
      </trkpt>
      <trkpt lat="45.28152" lon="5.85503">
        <ele>523.43701171875</ele>
        <time>2017-10-28T08:16:16Z</time>
      </trkpt>
      <trkpt lat="45.28149" lon="5.85498">
        <ele>520.43701171875</ele>
        <time>2017-10-28T08:16:25Z</time>
      </trkpt>
      <trkpt lat="45.28148" lon="5.85491">
        <ele>519.43701171875</ele>
        <time>2017-10-28T08:16:30Z</time>
      </trkpt>
      <trkpt lat="45.28148" lon="5.85484">
        <ele>518.43701171875</ele>
        <time>2017-10-28T08:16:37Z</time>
      </trkpt>
      <trkpt lat="45.28143" lon="5.85482">
        <ele>514.43701171875</ele>
        <time>2017-10-28T08:16:42Z</time>
      </trkpt>
      <trkpt lat="45.28139" lon="5.85483">
        <ele>512.43701171875</ele>
        <time>2017-10-28T08:16:48Z</time>
      </trkpt>
      <trkpt lat="45.28134" lon="5.85485">
        <ele>506.43701171875</ele>
        <time>2017-10-28T08:17:02Z</time>
      </trkpt>
      <trkpt lat="45.2813" lon="5.85488">
        <ele>505.43701171875</ele>
        <time>2017-10-28T08:17:08Z</time>
      </trkpt>
      <trkpt lat="45.28125" lon="5.85487">
        <ele>504.43701171875</ele>
        <time>2017-10-28T08:17:12Z</time>
      </trkpt>
      <trkpt lat="45.28122" lon="5.85492">
        <ele>503.43701171875</ele>
        <time>2017-10-28T08:17:18Z</time>
      </trkpt>
      <trkpt lat="45.28117" lon="5.85496">
        <ele>501.43701171875</ele>
        <time>2017-10-28T08:17:21Z</time>
      </trkpt>
      <trkpt lat="45.28113" lon="5.85499">
        <ele>498.43701171875</ele>
        <time>2017-10-28T08:17:27Z</time>
      </trkpt>
      <trkpt lat="45.28108" lon="5.85502">
        <ele>495.43701171875</ele>
        <time>2017-10-28T08:17:33Z</time>
      </trkpt>
      <trkpt lat="45.28103" lon="5.85504">
        <ele>494.43701171875</ele>
        <time>2017-10-28T08:17:37Z</time>
      </trkpt>
      <trkpt lat="45.28098" lon="5.85505">
        <ele>493.43600463867</ele>
        <time>2017-10-28T08:17:41Z</time>
      </trkpt>
      <trkpt lat="45.28094" lon="5.85509">
        <ele>492.43600463867</ele>
        <time>2017-10-28T08:17:47Z</time>
      </trkpt>
      <trkpt lat="45.28089" lon="5.85511">
        <ele>492.43600463867</ele>
        <time>2017-10-28T08:17:51Z</time>
      </trkpt>
      <trkpt lat="45.28085" lon="5.85516">
        <ele>488.43600463867</ele>
        <time>2017-10-28T08:17:58Z</time>
      </trkpt>
      <trkpt lat="45.28081" lon="5.85511">
        <ele>488.43600463867</ele>
        <time>2017-10-28T08:18:02Z</time>
      </trkpt>
      <trkpt lat="45.28077" lon="5.85509">
        <ele>484.43600463867</ele>
        <time>2017-10-28T08:18:07Z</time>
      </trkpt>
      <trkpt lat="45.28072" lon="5.85512">
        <ele>481.43600463867</ele>
        <time>2017-10-28T08:18:13Z</time>
      </trkpt>
      <trkpt lat="45.28067" lon="5.85516">
        <ele>480.43600463867</ele>
        <time>2017-10-28T08:18:18Z</time>
      </trkpt>
      <trkpt lat="45.28066" lon="5.85509">
        <ele>474.43600463867</ele>
        <time>2017-10-28T08:18:26Z</time>
      </trkpt>
      <trkpt lat="45.28061" lon="5.85509">
        <ele>474.43600463867</ele>
        <time>2017-10-28T08:18:30Z</time>
      </trkpt>
      <trkpt lat="45.28057" lon="5.8551">
        <ele>474.43600463867</ele>
        <time>2017-10-28T08:18:35Z</time>
      </trkpt>
      <trkpt lat="45.28052" lon="5.85509">
        <ele>472.43600463867</ele>
        <time>2017-10-28T08:18:41Z</time>
      </trkpt>
      <trkpt lat="45.28047" lon="5.8551">
        <ele>470.43600463867</ele>
        <time>2017-10-28T08:18:45Z</time>
      </trkpt>
      <trkpt lat="45.28045" lon="5.85504">
        <ele>466.43600463867</ele>
        <time>2017-10-28T08:18:51Z</time>
      </trkpt>
      <trkpt lat="45.28047" lon="5.85497">
        <ele>464.43600463867</ele>
        <time>2017-10-28T08:18:56Z</time>
      </trkpt>
      <trkpt lat="45.28047" lon="5.85488">
        <ele>459.43600463867</ele>
        <time>2017-10-28T08:19:01Z</time>
      </trkpt>
      <trkpt lat="45.28046" lon="5.85481">
        <ele>460.43600463867</ele>
        <time>2017-10-28T08:19:05Z</time>
      </trkpt>
      <trkpt lat="45.28046" lon="5.85475">
        <ele>460.43600463867</ele>
        <time>2017-10-28T08:19:09Z</time>
      </trkpt>
      <trkpt lat="45.28044" lon="5.85467">
        <ele>458.43600463867</ele>
        <time>2017-10-28T08:19:12Z</time>
      </trkpt>
      <trkpt lat="45.28039" lon="5.85465">
        <ele>461.43600463867</ele>
        <time>2017-10-28T08:19:17Z</time>
      </trkpt>
      <trkpt lat="45.28035" lon="5.8547">
        <ele>455.43600463867</ele>
        <time>2017-10-28T08:19:24Z</time>
      </trkpt>
      <trkpt lat="45.2803" lon="5.85469">
        <ele>451.43600463867</ele>
        <time>2017-10-28T08:19:32Z</time>
      </trkpt>
      <trkpt lat="45.28025" lon="5.8547">
        <ele>443.43600463867</ele>
        <time>2017-10-28T08:19:43Z</time>
      </trkpt>
      <trkpt lat="45.28018" lon="5.85473">
        <ele>441.43600463867</ele>
        <time>2017-10-28T08:19:47Z</time>
      </trkpt>
      <trkpt lat="45.28014" lon="5.85476">
        <ele>440.43600463867</ele>
        <time>2017-10-28T08:19:52Z</time>
      </trkpt>
      <trkpt lat="45.28009" lon="5.85476">
        <ele>440.43600463867</ele>
        <time>2017-10-28T08:19:55Z</time>
      </trkpt>
      <trkpt lat="45.28004" lon="5.85476">
        <ele>438.43600463867</ele>
        <time>2017-10-28T08:20:00Z</time>
      </trkpt>
      <trkpt lat="45.27999" lon="5.85472">
        <ele>437.43600463867</ele>
        <time>2017-10-28T08:20:05Z</time>
      </trkpt>
      <trkpt lat="45.27994" lon="5.85476">
        <ele>433.43600463867</ele>
        <time>2017-10-28T08:20:09Z</time>
      </trkpt>
      <trkpt lat="45.27989" lon="5.85479">
        <ele>434.43600463867</ele>
        <time>2017-10-28T08:20:13Z</time>
      </trkpt>
      <trkpt lat="45.27985" lon="5.85482">
        <ele>431.43600463867</ele>
        <time>2017-10-28T08:20:15Z</time>
      </trkpt>
      <trkpt lat="45.27982" lon="5.85489">
        <ele>426.43600463867</ele>
        <time>2017-10-28T08:20:18Z</time>
      </trkpt>
      <trkpt lat="45.27977" lon="5.85487">
        <ele>424.43600463867</ele>
        <time>2017-10-28T08:20:22Z</time>
      </trkpt>
      <trkpt lat="45.27971" lon="5.85488">
        <ele>425.43600463867</ele>
        <time>2017-10-28T08:20:25Z</time>
      </trkpt>
      <trkpt lat="45.27966" lon="5.85489">
        <ele>420.43600463867</ele>
        <time>2017-10-28T08:20:31Z</time>
      </trkpt>
      <trkpt lat="45.27962" lon="5.85495">
        <ele>418.43600463867</ele>
        <time>2017-10-28T08:20:34Z</time>
      </trkpt>
      <trkpt lat="45.27958" lon="5.855">
        <ele>420.43600463867</ele>
        <time>2017-10-28T08:20:37Z</time>
      </trkpt>
      <trkpt lat="45.27958" lon="5.85507">
        <ele>420.43600463867</ele>
        <time>2017-10-28T08:20:44Z</time>
      </trkpt>
      <trkpt lat="45.27956" lon="5.85513">
        <ele>412.43600463867</ele>
        <time>2017-10-28T08:21:21Z</time>
      </trkpt>
      <trkpt lat="45.27952" lon="5.85517">
        <ele>412.43600463867</ele>
        <time>2017-10-28T08:21:23Z</time>
      </trkpt>
      <trkpt lat="45.27948" lon="5.85525">
        <ele>410.43600463867</ele>
        <time>2017-10-28T08:21:25Z</time>
      </trkpt>
      <trkpt lat="45.27943" lon="5.85532">
        <ele>409.43600463867</ele>
        <time>2017-10-28T08:21:28Z</time>
      </trkpt>
      <trkpt lat="45.27939" lon="5.85537">
        <ele>409.43600463867</ele>
        <time>2017-10-28T08:21:30Z</time>
      </trkpt>
      <trkpt lat="45.27934" lon="5.85541">
        <ele>406.43600463867</ele>
        <time>2017-10-28T08:21:32Z</time>
      </trkpt>
      <trkpt lat="45.27928" lon="5.85544">
        <ele>403.43600463867</ele>
        <time>2017-10-28T08:21:34Z</time>
      </trkpt>
      <trkpt lat="45.27922" lon="5.85548">
        <ele>403.43600463867</ele>
        <time>2017-10-28T08:21:36Z</time>
      </trkpt>
      <trkpt lat="45.27919" lon="5.85552">
        <ele>400.43600463867</ele>
        <time>2017-10-28T08:21:39Z</time>
      </trkpt>
      <trkpt lat="45.27917" lon="5.85559">
        <ele>399.43600463867</ele>
        <time>2017-10-28T08:21:42Z</time>
      </trkpt>
      <trkpt lat="45.27916" lon="5.8557">
        <ele>401.43600463867</ele>
        <time>2017-10-28T08:21:44Z</time>
      </trkpt>
      <trkpt lat="45.27916" lon="5.85578">
        <ele>401.43600463867</ele>
        <time>2017-10-28T08:21:46Z</time>
      </trkpt>
      <trkpt lat="45.27912" lon="5.85583">
        <ele>401.43600463867</ele>
        <time>2017-10-28T08:21:48Z</time>
      </trkpt>
      <trkpt lat="45.27908" lon="5.85587">
        <ele>398.43600463867</ele>
        <time>2017-10-28T08:21:51Z</time>
      </trkpt>
      <trkpt lat="45.27905" lon="5.85592">
        <ele>393.43600463867</ele>
        <time>2017-10-28T08:21:55Z</time>
      </trkpt>
      <trkpt lat="45.27904" lon="5.85599">
        <ele>391.43600463867</ele>
        <time>2017-10-28T08:21:59Z</time>
      </trkpt>
      <trkpt lat="45.279" lon="5.85605">
        <ele>389.43600463867</ele>
        <time>2017-10-28T08:22:02Z</time>
      </trkpt>
      <trkpt lat="45.27893" lon="5.85608">
        <ele>389.43600463867</ele>
        <time>2017-10-28T08:22:06Z</time>
      </trkpt>
      <trkpt lat="45.27891" lon="5.85614">
        <ele>387.43600463867</ele>
        <time>2017-10-28T08:22:09Z</time>
      </trkpt>
      <trkpt lat="45.2789" lon="5.85621">
        <ele>388.43600463867</ele>
        <time>2017-10-28T08:22:12Z</time>
      </trkpt>
      <trkpt lat="45.2789" lon="5.85628">
        <ele>383.43600463867</ele>
        <time>2017-10-28T08:22:16Z</time>
      </trkpt>
      <trkpt lat="45.27887" lon="5.85636">
        <ele>382.43600463867</ele>
        <time>2017-10-28T08:22:24Z</time>
      </trkpt>
      <trkpt lat="45.27887" lon="5.85643">
        <ele>382.43600463867</ele>
        <time>2017-10-28T08:22:28Z</time>
      </trkpt>
      <trkpt lat="45.27885" lon="5.8565">
        <ele>382.43600463867</ele>
        <time>2017-10-28T08:22:36Z</time>
      </trkpt>
      <trkpt lat="45.27884" lon="5.85657">
        <ele>380.43600463867</ele>
        <time>2017-10-28T08:22:39Z</time>
      </trkpt>
      <trkpt lat="45.27883" lon="5.85665">
        <ele>380.43600463867</ele>
        <time>2017-10-28T08:22:43Z</time>
      </trkpt>
      <trkpt lat="45.27882" lon="5.85671">
        <ele>379.43600463867</ele>
        <time>2017-10-28T08:22:46Z</time>
      </trkpt>
      <trkpt lat="45.27878" lon="5.85676">
        <ele>374.43600463867</ele>
        <time>2017-10-28T08:22:52Z</time>
      </trkpt>
      <trkpt lat="45.27873" lon="5.85676">
        <ele>366.43600463867</ele>
        <time>2017-10-28T08:22:57Z</time>
      </trkpt>
      <trkpt lat="45.27866" lon="5.85678">
        <ele>359.43600463867</ele>
        <time>2017-10-28T08:23:04Z</time>
      </trkpt>
      <trkpt lat="45.27862" lon="5.8568">
        <ele>361.43600463867</ele>
        <time>2017-10-28T08:23:08Z</time>
      </trkpt>
      <trkpt lat="45.27857" lon="5.85683">
        <ele>359.43600463867</ele>
        <time>2017-10-28T08:23:11Z</time>
      </trkpt>
      <trkpt lat="45.27853" lon="5.85686">
        <ele>356.43600463867</ele>
        <time>2017-10-28T08:23:14Z</time>
      </trkpt>
      <trkpt lat="45.27848" lon="5.85681">
        <ele>354.43600463867</ele>
        <time>2017-10-28T08:23:18Z</time>
      </trkpt>
      <trkpt lat="45.27847" lon="5.85674">
        <ele>354.43600463867</ele>
        <time>2017-10-28T08:23:21Z</time>
      </trkpt>
      <trkpt lat="45.27842" lon="5.85669">
        <ele>354.43600463867</ele>
        <time>2017-10-28T08:23:24Z</time>
      </trkpt>
      <trkpt lat="45.27837" lon="5.85666">
        <ele>355.43600463867</ele>
        <time>2017-10-28T08:23:27Z</time>
      </trkpt>
      <trkpt lat="45.27832" lon="5.85664">
        <ele>354.43600463867</ele>
        <time>2017-10-28T08:23:31Z</time>
      </trkpt>
      <trkpt lat="45.27828" lon="5.85662">
        <ele>354.43600463867</ele>
        <time>2017-10-28T08:23:34Z</time>
      </trkpt>
      <trkpt lat="45.27823" lon="5.85659">
        <ele>355.43600463867</ele>
        <time>2017-10-28T08:23:37Z</time>
      </trkpt>
      <trkpt lat="45.27824" lon="5.85666">
        <ele>348.43600463867</ele>
        <time>2017-10-28T08:23:48Z</time>
      </trkpt>
      <trkpt lat="45.27824" lon="5.85672">
        <ele>348.43600463867</ele>
        <time>2017-10-28T08:23:54Z</time>
      </trkpt>
      <trkpt lat="45.27826" lon="5.85681">
        <ele>342.43600463867</ele>
        <time>2017-10-28T08:23:58Z</time>
      </trkpt>
      <trkpt lat="45.27825" lon="5.85689">
        <ele>342.43600463867</ele>
        <time>2017-10-28T08:24:01Z</time>
      </trkpt>
      <trkpt lat="45.27824" lon="5.85698">
        <ele>344.43600463867</ele>
        <time>2017-10-28T08:24:08Z</time>
      </trkpt>
      <trkpt lat="45.27823" lon="5.85706">
        <ele>345.43600463867</ele>
        <time>2017-10-28T08:24:11Z</time>
      </trkpt>
      <trkpt lat="45.27822" lon="5.85715">
        <ele>347.43600463867</ele>
        <time>2017-10-28T08:24:14Z</time>
      </trkpt>
      <trkpt lat="45.27824" lon="5.85721">
        <ele>348.43600463867</ele>
        <time>2017-10-28T08:24:16Z</time>
      </trkpt>
      <trkpt lat="45.27821" lon="5.85727">
        <ele>349.43600463867</ele>
        <time>2017-10-28T08:24:18Z</time>
      </trkpt>
      <trkpt lat="45.2782" lon="5.85735">
        <ele>349.43600463867</ele>
        <time>2017-10-28T08:24:21Z</time>
      </trkpt>
      <trkpt lat="45.27819" lon="5.85743">
        <ele>349.43600463867</ele>
        <time>2017-10-28T08:24:23Z</time>
      </trkpt>
      <trkpt lat="45.27816" lon="5.85749">
        <ele>346.43600463867</ele>
        <time>2017-10-28T08:24:28Z</time>
      </trkpt>
      <trkpt lat="45.27811" lon="5.85754">
        <ele>344.43600463867</ele>
        <time>2017-10-28T08:24:33Z</time>
      </trkpt>
      <trkpt lat="45.27806" lon="5.85758">
        <ele>345.43600463867</ele>
        <time>2017-10-28T08:24:36Z</time>
      </trkpt>
      <trkpt lat="45.27803" lon="5.85763">
        <ele>347.43600463867</ele>
        <time>2017-10-28T08:24:39Z</time>
      </trkpt>
      <trkpt lat="45.27799" lon="5.85771">
        <ele>347.43600463867</ele>
        <time>2017-10-28T08:24:42Z</time>
      </trkpt>
      <trkpt lat="45.27798" lon="5.85777">
        <ele>347.43600463867</ele>
        <time>2017-10-28T08:24:45Z</time>
      </trkpt>
      <trkpt lat="45.27795" lon="5.85783">
        <ele>348.43600463867</ele>
        <time>2017-10-28T08:24:48Z</time>
      </trkpt>
      <trkpt lat="45.27796" lon="5.85789">
        <ele>348.43600463867</ele>
        <time>2017-10-28T08:24:52Z</time>
      </trkpt>
      <trkpt lat="45.27793" lon="5.85797">
        <ele>348.43600463867</ele>
        <time>2017-10-28T08:24:57Z</time>
      </trkpt>
      <trkpt lat="45.27791" lon="5.85803">
        <ele>349.43600463867</ele>
        <time>2017-10-28T08:24:59Z</time>
      </trkpt>
      <trkpt lat="45.27788" lon="5.85809">
        <ele>348.43600463867</ele>
        <time>2017-10-28T08:25:02Z</time>
      </trkpt>
      <trkpt lat="45.27786" lon="5.85817">
        <ele>347.43600463867</ele>
        <time>2017-10-28T08:25:05Z</time>
      </trkpt>
      <trkpt lat="45.27785" lon="5.85824">
        <ele>348.43600463867</ele>
        <time>2017-10-28T08:25:08Z</time>
      </trkpt>
      <trkpt lat="45.27783" lon="5.85833">
        <ele>347.43600463867</ele>
        <time>2017-10-28T08:25:12Z</time>
      </trkpt>
      <trkpt lat="45.27782" lon="5.85839">
        <ele>347.43600463867</ele>
        <time>2017-10-28T08:25:16Z</time>
      </trkpt>
      <trkpt lat="45.2778" lon="5.85845">
        <ele>346.43600463867</ele>
        <time>2017-10-28T08:25:19Z</time>
      </trkpt>
      <trkpt lat="45.27777" lon="5.85852">
        <ele>345.43600463867</ele>
        <time>2017-10-28T08:25:23Z</time>
      </trkpt>
      <trkpt lat="45.27774" lon="5.85858">
        <ele>343.43600463867</ele>
        <time>2017-10-28T08:25:27Z</time>
      </trkpt>
      <trkpt lat="45.27772" lon="5.85867">
        <ele>344.43600463867</ele>
        <time>2017-10-28T08:25:31Z</time>
      </trkpt>
      <trkpt lat="45.27771" lon="5.85874">
        <ele>345.43600463867</ele>
        <time>2017-10-28T08:25:34Z</time>
      </trkpt>
      <trkpt lat="45.27769" lon="5.85881">
        <ele>340.43600463867</ele>
        <time>2017-10-28T08:25:39Z</time>
      </trkpt>
      <trkpt lat="45.27768" lon="5.85887">
        <ele>340.43600463867</ele>
        <time>2017-10-28T08:25:44Z</time>
      </trkpt>
      <trkpt lat="45.27767" lon="5.85895">
        <ele>340.43600463867</ele>
        <time>2017-10-28T08:25:49Z</time>
      </trkpt>
      <trkpt lat="45.27765" lon="5.85901">
        <ele>340.43600463867</ele>
        <time>2017-10-28T08:25:52Z</time>
      </trkpt>
      <trkpt lat="45.27762" lon="5.8591">
        <ele>340.43600463867</ele>
        <time>2017-10-28T08:25:56Z</time>
      </trkpt>
      <trkpt lat="45.27759" lon="5.85916">
        <ele>339.43600463867</ele>
        <time>2017-10-28T08:26:00Z</time>
      </trkpt>
      <trkpt lat="45.27756" lon="5.85923">
        <ele>336.43600463867</ele>
        <time>2017-10-28T08:26:04Z</time>
      </trkpt>
      <trkpt lat="45.27753" lon="5.85929">
        <ele>336.43600463867</ele>
        <time>2017-10-28T08:26:07Z</time>
      </trkpt>
      <trkpt lat="45.27748" lon="5.85935">
        <ele>334.43600463867</ele>
        <time>2017-10-28T08:26:11Z</time>
      </trkpt>
      <trkpt lat="45.27746" lon="5.85941">
        <ele>334.43600463867</ele>
        <time>2017-10-28T08:26:14Z</time>
      </trkpt>
      <trkpt lat="45.27742" lon="5.85947">
        <ele>334.43600463867</ele>
        <time>2017-10-28T08:26:17Z</time>
      </trkpt>
      <trkpt lat="45.27737" lon="5.85952">
        <ele>335.43600463867</ele>
        <time>2017-10-28T08:26:20Z</time>
      </trkpt>
      <trkpt lat="45.27733" lon="5.85956">
        <ele>335.43600463867</ele>
        <time>2017-10-28T08:26:24Z</time>
      </trkpt>
      <trkpt lat="45.27727" lon="5.85958">
        <ele>335.43600463867</ele>
        <time>2017-10-28T08:26:28Z</time>
      </trkpt>
    </trkseg>
  </trk>
</gpx>